Time,TemperatureF,DewpointF,PressureIn,WindDirection,WindDirectionDegrees,WindSpeedMPH,WindSpeedGustMPH,Humidity,HourlyPrecipIn,Conditions,Clouds,dailyrainin,SoftwareType,DateUTC
2013-04-12 00:00:00,43.2,40.1,28.61,SE,135,4.3,9.6,89,0.00,,---,0.09,VWS V14.01,2013-04-12 03:00:00,
2013-04-12 00:01:00,43.2,40.1,28.61,SE,135,2.7,6.0,89,0.00,,---,0.09,VWS V14.01,2013-04-12 03:01:00,
2013-04-12 00:02:00,43.2,40.1,28.61,East,90,3.4,6.5,89,0.00,,---,0.09,VWS V14.01,2013-04-12 03:02:00,
2013-04-12 00:03:00,43.2,40.1,28.61,SSE,158,5.4,12.1,89,0.00,,---,0.09,VWS V14.01,2013-04-12 03:03:00,
2013-04-12 00:04:00,43.2,40.1,28.61,East,90,6.7,6.7,89,0.00,,---,0.09,VWS V14.01,2013-04-12 03:04:00,
2013-04-12 00:05:00,43.2,40.1,28.61,East,90,2.7,6.5,89,0.00,,---,0.09,VWS V14.01,2013-04-12 03:05:00,
2013-04-12 00:06:00,43.2,40.1,28.61,SE,135,4.5,7.6,89,0.00,,---,0.09,VWS V14.01,2013-04-12 03:06:00,
2013-04-12 00:07:00,43.2,40.1,28.61,East,90,3.1,6.7,89,0.00,,---,0.09,VWS V14.01,2013-04-12 03:07:00,
2013-04-12 00:08:00,43.2,40.1,28.61,SE,135,3.6,4.3,89,0.00,,---,0.09,VWS V14.01,2013-04-12 03:08:00,
2013-04-12 00:09:00,43.2,40.1,28.58,SE,135,6.5,6.5,89,0.00,,---,0.09,VWS V14.01,2013-04-12 03:09:00,
2013-04-12 00:10:00,43.2,40.1,28.58,East,90,3.1,5.4,89,0.00,,---,0.09,VWS V14.01,2013-04-12 03:10:00,
2013-04-12 00:11:00,43.2,40.1,28.58,East,90,2.5,6.3,89,0.00,,---,0.09,VWS V14.01,2013-04-12 03:11:00,
2013-04-12 00:12:00,43.2,40.1,28.58,East,90,5.4,6.5,89,0.00,,---,0.09,VWS V14.01,2013-04-12 03:12:00,
2013-04-12 00:13:00,43.2,40.1,28.58,East,90,4.3,5.4,89,0.00,,---,0.09,VWS V14.01,2013-04-12 03:13:00,
2013-04-12 00:14:00,43.3,40.3,28.58,NNE,22,7.6,7.6,89,0.00,,---,0.09,VWS V14.01,2013-04-12 03:14:00,
2013-04-12 00:15:00,43.3,40.3,28.58,ESE,112,4.0,7.4,89,0.00,,---,0.09,VWS V14.01,2013-04-12 03:15:00,
2013-04-12 00:16:00,43.3,40.3,28.58,SE,135,3.6,4.7,89,0.00,,---,0.09,VWS V14.01,2013-04-12 03:16:00,
2013-04-12 00:17:00,43.3,40.3,28.58,East,90,4.9,7.6,89,0.00,,---,0.09,VWS V14.01,2013-04-12 03:17:00,
2013-04-12 00:18:00,43.3,40.3,28.58,SE,135,2.7,4.9,89,0.00,,---,0.09,VWS V14.01,2013-04-12 03:18:00,
2013-04-12 00:19:00,43.3,40.3,28.58,SE,135,3.4,6.3,89,0.00,,---,0.09,VWS V14.01,2013-04-12 03:19:00,
2013-04-12 00:20:00,43.3,40.3,28.58,ESE,112,2.7,3.1,89,0.00,,---,0.09,VWS V14.01,2013-04-12 03:20:00,
2013-04-12 00:21:00,43.3,40.3,28.58,ENE,68,5.6,5.6,89,0.00,,---,0.09,VWS V14.01,2013-04-12 03:21:00,
2013-04-12 00:22:00,43.3,40.3,28.58,NE,45,2.5,6.3,89,0.00,,---,0.09,VWS V14.01,2013-04-12 03:22:00,
2013-04-12 00:23:00,43.3,40.3,28.58,South,180,1.1,2.5,89,0.00,,---,0.09,VWS V14.01,2013-04-12 03:23:00,
2013-04-12 00:24:00,43.3,40.3,28.55,East,90,1.1,2.0,89,0.00,,---,0.09,VWS V14.01,2013-04-12 03:24:00,
2013-04-12 00:25:00,43.3,40.3,28.55,SE,135,1.1,2.0,89,0.00,,---,0.09,VWS V14.01,2013-04-12 03:25:00,
2013-04-12 00:26:00,43.3,40.3,28.55,SE,135,2.0,2.5,89,0.00,,---,0.09,VWS V14.01,2013-04-12 03:26:00,
2013-04-12 00:27:00,43.3,40.3,28.55,SW,225,1.1,2.0,89,0.00,,---,0.09,VWS V14.01,2013-04-12 03:27:00,
2013-04-12 00:28:00,43.3,40.3,28.55,South,180,3.1,3.1,89,0.00,,---,0.09,VWS V14.01,2013-04-12 03:28:00,
2013-04-12 00:29:00,43.3,40.3,28.55,ESE,112,1.6,1.6,89,0.00,,---,0.09,VWS V14.01,2013-04-12 03:29:00,
2013-04-12 00:30:00,43.3,40.3,28.55,East,90,2.5,2.7,89,0.00,,---,0.09,VWS V14.01,2013-04-12 03:30:00,
2013-04-12 00:31:00,43.3,40.3,28.55,East,90,0.0,2.5,89,0.00,,---,0.09,VWS V14.01,2013-04-12 03:31:00,
2013-04-12 00:32:00,43.3,40.3,28.55,SE,135,0.9,1.6,89,0.00,,---,0.09,VWS V14.01,2013-04-12 03:32:00,
2013-04-12 00:33:00,43.3,40.3,28.55,East,90,1.1,1.1,89,0.00,,---,0.09,VWS V14.01,2013-04-12 03:33:00,
2013-04-12 00:34:00,43.3,40.6,28.55,SE,135,2.9,3.6,90,0.00,,---,0.09,VWS V14.01,2013-04-12 03:34:00,
2013-04-12 00:35:00,43.3,40.3,28.55,West,270,2.9,6.5,89,0.00,,---,0.09,VWS V14.01,2013-04-12 03:35:00,
2013-04-12 00:36:00,43.3,40.3,28.55,North,0,3.6,4.3,89,0.00,,---,0.09,VWS V14.01,2013-04-12 03:36:00,
2013-04-12 00:37:00,43.3,40.6,28.55,NNE,22,2.7,3.6,90,0.00,,---,0.09,VWS V14.01,2013-04-12 03:37:00,
2013-04-12 00:38:00,43.3,40.6,28.55,South,180,2.5,2.7,90,0.00,,---,0.09,VWS V14.01,2013-04-12 03:38:00,
2013-04-12 00:39:00,43.5,40.8,28.55,East,90,3.6,3.8,90,0.00,,---,0.09,VWS V14.01,2013-04-12 03:39:00,
2013-04-12 00:40:00,43.5,40.8,28.55,SE,135,3.4,3.6,90,0.00,,---,0.09,VWS V14.01,2013-04-12 03:40:00,
2013-04-12 00:41:00,43.5,40.8,28.55,SE,135,3.8,4.3,90,0.00,,---,0.09,VWS V14.01,2013-04-12 03:41:00,
2013-04-12 00:42:00,43.5,40.8,28.55,NE,45,3.1,3.8,90,0.00,,---,0.09,VWS V14.01,2013-04-12 03:42:00,
2013-04-12 00:43:00,43.7,41.0,28.55,SE,135,2.7,3.1,90,0.00,,---,0.09,VWS V14.01,2013-04-12 03:43:00,
2013-04-12 00:44:00,43.7,41.0,28.55,North,0,2.0,2.0,90,0.00,,---,0.09,VWS V14.01,2013-04-12 03:44:00,
2013-04-12 00:45:00,43.7,41.0,28.55,SE,135,4.3,4.9,90,0.00,,---,0.09,VWS V14.01,2013-04-12 03:45:00,
2013-04-12 00:46:00,43.7,41.0,28.55,West,270,2.0,4.3,90,0.00,,---,0.09,VWS V14.01,2013-04-12 03:46:00,
2013-04-12 00:47:00,43.7,41.0,28.55,North,0,3.1,3.1,90,0.00,,---,0.09,VWS V14.01,2013-04-12 03:47:00,
2013-04-12 00:48:00,43.7,41.2,28.55,NE,45,0.9,3.1,91,0.00,,---,0.09,VWS V14.01,2013-04-12 03:48:00,
2013-04-12 00:49:00,43.9,41.4,28.55,East,90,1.6,2.7,91,0.00,,---,0.09,VWS V14.01,2013-04-12 03:49:00,
2013-04-12 00:50:00,43.9,41.4,28.55,North,0,4.3,4.3,91,0.00,,---,0.09,VWS V14.01,2013-04-12 03:50:00,
2013-04-12 00:51:00,43.9,41.4,28.55,ENE,68,2.5,4.3,91,0.00,,---,0.09,VWS V14.01,2013-04-12 03:51:00,
2013-04-12 00:52:00,43.9,41.4,28.55,SE,135,3.6,3.6,91,0.00,,---,0.09,VWS V14.01,2013-04-12 03:52:00,
2013-04-12 00:53:00,43.9,41.4,28.55,SW,225,1.3,3.8,91,0.00,,---,0.09,VWS V14.01,2013-04-12 03:53:00,
2013-04-12 00:54:00,44.1,41.6,28.55,SSW,202,2.0,3.4,91,0.00,,---,0.09,VWS V14.01,2013-04-12 03:54:00,
2013-04-12 00:55:00,44.1,41.6,28.55,East,90,3.6,3.6,91,0.00,,---,0.09,VWS V14.01,2013-04-12 03:55:00,
2013-04-12 00:56:00,44.1,41.6,28.55,ESE,112,2.2,3.6,91,0.00,,---,0.09,VWS V14.01,2013-04-12 03:56:00,
2013-04-12 00:57:00,44.1,41.6,28.55,ESE,112,4.0,4.0,91,0.00,,---,0.09,VWS V14.01,2013-04-12 03:57:00,
2013-04-12 00:58:00,44.1,41.6,28.55,East,90,2.5,4.0,91,0.00,,---,0.09,VWS V14.01,2013-04-12 03:58:00,
2013-04-12 00:59:00,44.2,41.8,28.55,East,90,5.8,8.1,91,0.00,,---,0.00,VWS V14.01,2013-04-12 03:59:00,
2013-04-12 01:00:00,44.2,41.8,28.55,SE,135,4.0,4.0,91,0.00,,---,0.00,VWS V14.01,2013-04-12 04:00:00,
2013-04-12 01:01:00,44.2,41.8,28.55,SE,135,7.6,7.6,91,0.00,,---,0.00,VWS V14.01,2013-04-12 04:01:00,
2013-04-12 01:02:00,44.2,41.8,28.55,SE,135,4.0,8.1,91,0.00,,---,0.00,VWS V14.01,2013-04-12 04:02:00,
2013-04-12 01:03:00,44.2,41.8,28.55,SE,135,3.1,4.0,91,0.00,,---,0.00,VWS V14.01,2013-04-12 04:03:00,
2013-04-12 01:04:00,44.2,41.8,28.55,ESE,112,2.7,10.7,91,0.00,,---,0.00,VWS V14.01,2013-04-12 04:04:00,
2013-04-12 01:05:00,44.4,42.0,28.55,East,90,4.3,5.8,91,0.00,,---,0.00,VWS V14.01,2013-04-12 04:05:00,
2013-04-12 01:06:00,44.4,42.0,28.55,ESE,112,3.4,3.6,91,0.00,,---,0.00,VWS V14.01,2013-04-12 04:06:00,
2013-04-12 01:07:00,44.4,42.0,28.55,ESE,112,5.8,5.8,91,0.00,,---,0.00,VWS V14.01,2013-04-12 04:07:00,
2013-04-12 01:08:00,44.4,42.0,28.55,East,90,4.3,5.8,91,0.00,,---,0.00,VWS V14.01,2013-04-12 04:08:00,
2013-04-12 01:09:00,44.4,42.0,28.55,ESE,112,3.6,4.9,91,0.00,,---,0.00,VWS V14.01,2013-04-12 04:09:00,
2013-04-12 01:10:00,44.4,41.7,28.55,SE,135,2.9,2.9,90,0.00,,---,0.00,VWS V14.01,2013-04-12 04:10:00,
2013-04-12 01:11:00,44.4,41.7,28.55,ESE,112,4.0,6.5,90,0.00,,---,0.00,VWS V14.01,2013-04-12 04:11:00,
2013-04-12 01:12:00,44.4,41.7,28.55,SE,135,2.9,4.3,90,0.00,,---,0.00,VWS V14.01,2013-04-12 04:12:00,
2013-04-12 01:13:00,44.4,41.7,28.55,ESE,112,3.6,5.6,90,0.00,,---,0.00,VWS V14.01,2013-04-12 04:13:00,
2013-04-12 01:14:00,44.4,41.7,28.55,ESE,112,4.9,6.5,90,0.00,,---,0.00,VWS V14.01,2013-04-12 04:14:00,
2013-04-12 01:15:00,44.6,41.6,28.55,ESE,112,3.4,3.4,89,0.00,,---,0.00,VWS V14.01,2013-04-12 04:15:00,
2013-04-12 01:16:00,44.6,41.8,28.55,NE,45,2.7,9.4,90,0.00,,---,0.00,VWS V14.01,2013-04-12 04:16:00,
2013-04-12 01:17:00,44.6,41.6,28.55,NNE,22,1.6,2.7,89,0.00,,---,0.00,VWS V14.01,2013-04-12 04:17:00,
2013-04-12 01:18:00,44.6,41.6,28.55,ESE,112,8.7,8.7,89,0.00,,---,0.00,VWS V14.01,2013-04-12 04:18:00,
2013-04-12 01:19:00,44.6,41.6,28.55,SE,135,3.8,8.7,89,0.00,,---,0.00,VWS V14.01,2013-04-12 04:19:00,
2013-04-12 01:20:00,44.6,41.6,28.55,East,90,2.9,2.9,89,0.00,,---,0.00,VWS V14.01,2013-04-12 04:20:00,
2013-04-12 01:21:00,44.6,41.6,28.55,North,0,1.6,2.5,89,0.00,,---,0.00,VWS V14.01,2013-04-12 04:21:00,
2013-04-12 01:22:00,44.6,41.6,28.55,East,90,2.7,4.9,89,0.00,,---,0.00,VWS V14.01,2013-04-12 04:22:00,
2013-04-12 01:23:00,44.6,41.8,28.55,NNW,338,1.1,2.9,90,0.00,,---,0.00,VWS V14.01,2013-04-12 04:23:00,
2013-04-12 01:24:00,44.6,41.8,28.55,NNE,22,2.2,2.2,90,0.00,,---,0.00,VWS V14.01,2013-04-12 04:24:00,
2013-04-12 01:25:00,44.6,41.8,28.52,East,90,2.7,5.4,90,0.00,,---,0.00,VWS V14.01,2013-04-12 04:25:00,
2013-04-12 01:26:00,44.6,41.8,28.52,East,90,4.9,4.9,90,0.00,,---,0.00,VWS V14.01,2013-04-12 04:26:00,
2013-04-12 01:27:00,44.6,41.8,28.52,SE,135,5.4,10.3,90,0.00,,---,0.00,VWS V14.01,2013-04-12 04:27:00,
2013-04-12 01:28:00,44.6,41.8,28.52,North,0,1.6,5.4,90,0.00,,---,0.00,VWS V14.01,2013-04-12 04:28:00,
2013-04-12 01:29:00,44.6,41.8,28.52,NNW,338,6.5,6.5,90,0.00,,---,0.00,VWS V14.01,2013-04-12 04:29:00,
2013-04-12 01:30:00,44.6,41.8,28.52,ENE,68,4.0,5.6,90,0.00,,---,0.00,VWS V14.01,2013-04-12 04:30:00,
2013-04-12 01:31:00,44.6,41.8,28.52,SE,135,2.9,4.0,90,0.00,,---,0.00,VWS V14.01,2013-04-12 04:31:00,
2013-04-12 01:32:00,44.6,41.8,28.52,NNE,22,5.6,5.6,90,0.00,,---,0.00,VWS V14.01,2013-04-12 04:32:00,
2013-04-12 01:33:00,44.6,41.8,28.52,East,90,3.4,5.6,90,0.00,,---,0.00,VWS V14.01,2013-04-12 04:33:00,
2013-04-12 01:34:00,44.6,41.8,28.52,ESE,112,1.6,3.8,90,0.00,,---,0.00,VWS V14.01,2013-04-12 04:34:00,
2013-04-12 01:35:00,44.8,42.0,28.52,NE,45,2.0,2.0,90,0.00,,---,0.00,VWS V14.01,2013-04-12 04:35:00,
2013-04-12 01:36:00,44.8,42.0,28.52,North,0,1.3,2.7,90,0.00,,---,0.00,VWS V14.01,2013-04-12 04:36:00,
2013-04-12 01:37:00,44.8,42.0,28.52,East,90,2.0,4.3,90,0.00,,---,0.00,VWS V14.01,2013-04-12 04:37:00,
2013-04-12 01:38:00,44.8,42.0,28.52,South,180,3.4,3.4,90,0.00,,---,0.00,VWS V14.01,2013-04-12 04:38:00,
2013-04-12 01:39:00,44.8,42.0,28.52,ENE,68,4.9,4.9,90,0.00,,---,0.00,VWS V14.01,2013-04-12 04:39:00,
2013-04-12 01:40:00,44.8,42.3,28.52,SE,135,2.0,2.7,91,0.00,,---,0.00,VWS V14.01,2013-04-12 04:40:00,
2013-04-12 01:41:00,44.8,42.3,28.52,NE,45,3.6,4.0,91,0.00,,---,0.00,VWS V14.01,2013-04-12 04:41:00,
2013-04-12 01:42:00,44.8,42.3,28.52,North,0,2.7,3.6,91,0.00,,---,0.00,VWS V14.01,2013-04-12 04:42:00,
2013-04-12 01:43:00,44.8,42.3,28.52,ESE,112,6.7,6.7,91,0.00,,---,0.00,VWS V14.01,2013-04-12 04:43:00,
2013-04-12 01:44:00,45.0,42.5,28.52,North,0,3.1,9.8,91,0.00,,---,0.00,VWS V14.01,2013-04-12 04:44:00,
2013-04-12 01:45:00,45.1,42.7,28.52,North,0,3.6,3.6,91,0.00,,---,0.00,VWS V14.01,2013-04-12 04:45:00,
2013-04-12 01:46:00,45.1,42.7,28.52,West,270,2.9,6.0,91,0.00,,---,0.00,VWS V14.01,2013-04-12 04:46:00,
2013-04-12 01:47:00,45.1,42.7,28.52,East,90,2.5,3.1,91,0.00,,---,0.00,VWS V14.01,2013-04-12 04:47:00,
2013-04-12 01:48:00,45.1,42.7,28.52,SE,135,2.9,3.6,91,0.00,,---,0.00,VWS V14.01,2013-04-12 04:48:00,
2013-04-12 01:49:00,45.1,42.7,28.52,ESE,112,1.3,2.9,91,0.00,,---,0.00,VWS V14.01,2013-04-12 04:49:00,
2013-04-12 01:50:00,45.1,43.0,28.52,East,90,3.6,7.8,92,0.00,,---,0.00,VWS V14.01,2013-04-12 04:50:00,
2013-04-12 01:51:00,45.1,43.0,28.52,East,90,4.0,4.0,92,0.00,,---,0.00,VWS V14.01,2013-04-12 04:51:00,
2013-04-12 01:52:00,45.1,43.0,28.52,SE,135,7.8,7.8,92,0.00,,---,0.00,VWS V14.01,2013-04-12 04:52:00,
2013-04-12 01:53:00,45.3,43.1,28.52,North,0,1.3,7.8,92,0.00,,---,0.00,VWS V14.01,2013-04-12 04:53:00,
2013-04-12 01:54:00,45.3,43.1,28.52,NNW,338,0.0,1.3,92,0.00,,---,0.00,VWS V14.01,2013-04-12 04:54:00,
2013-04-12 01:55:00,45.3,43.1,28.52,SE,135,2.2,3.1,92,0.00,,---,0.00,VWS V14.01,2013-04-12 04:55:00,
2013-04-12 01:56:00,45.3,43.1,28.52,ESE,112,2.5,3.1,92,0.00,,---,0.00,VWS V14.01,2013-04-12 04:56:00,
2013-04-12 01:57:00,45.3,43.1,28.52,East,90,3.1,4.7,92,0.00,,---,0.00,VWS V14.01,2013-04-12 04:57:00,
2013-04-12 01:58:00,45.3,43.1,28.52,NW,315,1.3,3.1,92,0.00,,---,0.00,VWS V14.01,2013-04-12 04:58:00,
2013-04-12 01:59:00,45.3,43.1,28.52,WNW,292,1.3,2.7,92,0.00,,---,0.00,VWS V14.01,2013-04-12 04:59:00,
2013-04-12 02:00:00,45.5,43.3,28.52,ESE,112,6.0,6.5,92,0.00,,---,0.00,VWS V14.01,2013-04-12 05:00:00,
2013-04-12 02:01:00,45.3,43.1,28.52,SSE,158,2.0,3.6,92,0.00,,---,0.00,VWS V14.01,2013-04-12 05:01:00,
2013-04-12 02:02:00,45.5,43.3,28.52,East,90,1.6,3.4,92,0.00,,---,0.00,VWS V14.01,2013-04-12 05:02:00,
2013-04-12 02:03:00,45.5,43.3,28.52,East,90,5.4,6.5,92,0.00,,---,0.00,VWS V14.01,2013-04-12 05:03:00,
2013-04-12 02:04:00,45.5,43.3,28.52,NE,45,2.7,5.4,92,0.00,,---,0.00,VWS V14.01,2013-04-12 05:04:00,
2013-04-12 02:05:00,45.5,43.3,28.52,NE,45,2.9,2.9,92,0.00,,---,0.00,VWS V14.01,2013-04-12 05:05:00,
2013-04-12 02:06:00,45.5,43.3,28.52,NW,315,3.4,4.0,92,0.00,,---,0.00,VWS V14.01,2013-04-12 05:06:00,
2013-04-12 02:07:00,45.5,43.3,28.52,NE,45,2.9,3.4,92,0.00,,---,0.00,VWS V14.01,2013-04-12 05:07:00,
2013-04-12 02:08:00,45.5,43.3,28.52,SE,135,2.5,2.9,92,0.00,,---,0.00,VWS V14.01,2013-04-12 05:08:00,
2013-04-12 02:09:00,45.5,43.3,28.52,ESE,112,3.4,3.4,92,0.00,,---,0.00,VWS V14.01,2013-04-12 05:09:00,
2013-04-12 02:10:00,45.9,44.0,28.52,SE,135,5.6,5.6,93,0.00,,---,0.00,VWS V14.01,2013-04-12 05:10:00,
2013-04-12 02:11:00,45.9,43.7,28.52,East,90,1.3,7.6,92,0.00,,---,0.00,VWS V14.01,2013-04-12 05:11:00,
2013-04-12 02:12:00,45.9,44.0,28.52,East,90,2.5,3.8,93,0.00,,---,0.00,VWS V14.01,2013-04-12 05:12:00,
2013-04-12 02:13:00,46.0,44.1,28.52,South,180,4.7,5.6,93,0.00,,---,0.00,VWS V14.01,2013-04-12 05:13:00,
2013-04-12 02:14:00,46.0,44.1,28.52,ESE,112,5.4,7.6,93,0.00,,---,0.00,VWS V14.01,2013-04-12 05:14:00,
2013-04-12 02:15:00,46.0,44.1,28.52,NE,45,2.0,2.0,93,0.00,,---,0.00,VWS V14.01,2013-04-12 05:15:00,
2013-04-12 02:16:00,46.0,44.1,28.52,ENE,68,1.6,2.5,93,0.00,,---,0.00,VWS V14.01,2013-04-12 05:16:00,
2013-04-12 02:17:00,46.0,44.1,28.52,North,0,1.3,1.6,93,0.00,,---,0.00,VWS V14.01,2013-04-12 05:17:00,
2013-04-12 02:18:00,46.0,44.1,28.52,East,90,4.0,4.0,93,0.00,,---,0.00,VWS V14.01,2013-04-12 05:18:00,
2013-04-12 02:19:00,46.2,44.3,28.52,East,90,9.2,9.2,93,0.00,,---,0.00,VWS V14.01,2013-04-12 05:19:00,
2013-04-12 02:20:00,46.4,44.5,28.52,East,90,4.0,4.0,93,0.00,,---,0.00,VWS V14.01,2013-04-12 05:20:00,
2013-04-12 02:21:00,46.4,44.5,28.52,ESE,112,9.8,9.8,93,0.00,,---,0.00,VWS V14.01,2013-04-12 05:21:00,
2013-04-12 02:22:00,46.4,44.5,28.52,West,270,3.8,9.8,93,0.00,,---,0.00,VWS V14.01,2013-04-12 05:22:00,
2013-04-12 02:23:00,46.6,44.7,28.52,East,90,4.0,4.7,93,0.00,,---,0.00,VWS V14.01,2013-04-12 05:23:00,
2013-04-12 02:24:00,46.6,44.7,28.52,SE,135,7.2,10.1,93,0.00,,---,0.00,VWS V14.01,2013-04-12 05:24:00,
2013-04-12 02:25:00,46.8,44.8,28.50,East,90,2.7,2.7,93,0.00,,---,0.00,VWS V14.01,2013-04-12 05:25:00,
2013-04-12 02:26:00,46.8,44.8,28.50,East,90,1.6,2.5,93,0.00,,---,0.00,VWS V14.01,2013-04-12 05:26:00,
2013-04-12 02:27:00,46.8,44.8,28.50,SE,135,2.0,2.2,93,0.00,,---,0.00,VWS V14.01,2013-04-12 05:27:00,
2013-04-12 02:28:00,46.8,44.8,28.50,SE,135,4.0,7.4,93,0.00,,---,0.00,VWS V14.01,2013-04-12 05:28:00,
2013-04-12 02:29:00,46.8,44.8,28.50,ESE,112,2.7,5.6,93,0.00,,---,0.00,VWS V14.01,2013-04-12 05:29:00,
2013-04-12 02:30:00,46.9,45.0,28.50,SSW,202,2.0,3.4,93,0.00,,---,0.00,VWS V14.01,2013-04-12 05:30:00,
2013-04-12 02:31:00,46.9,45.0,28.50,ESE,112,4.3,6.0,93,0.00,,---,0.00,VWS V14.01,2013-04-12 05:31:00,
2013-04-12 02:32:00,46.9,45.0,28.50,NW,315,3.4,4.3,93,0.00,,---,0.00,VWS V14.01,2013-04-12 05:32:00,
2013-04-12 02:33:00,46.9,45.0,28.50,SE,135,1.6,3.4,93,0.00,,---,0.00,VWS V14.01,2013-04-12 05:33:00,
2013-04-12 02:34:00,46.9,45.0,28.50,South,180,1.1,2.5,93,0.00,,---,0.00,VWS V14.01,2013-04-12 05:34:00,
2013-04-12 02:35:00,47.1,45.2,28.50,ESE,112,2.9,3.8,93,0.00,,---,0.00,VWS V14.01,2013-04-12 05:35:00,
2013-04-12 02:36:00,47.1,45.2,28.50,North,0,1.1,3.1,93,0.00,,---,0.00,VWS V14.01,2013-04-12 05:36:00,
2013-04-12 02:37:00,47.1,45.2,28.50,South,180,3.8,3.8,93,0.00,,---,0.00,VWS V14.01,2013-04-12 05:37:00,
2013-04-12 02:38:00,47.1,45.2,28.50,SE,135,4.3,4.3,93,0.00,,---,0.00,VWS V14.01,2013-04-12 05:38:00,
2013-04-12 02:39:00,47.3,45.4,28.50,SE,135,7.2,12.5,93,0.00,,---,0.00,VWS V14.01,2013-04-12 05:39:00,
2013-04-12 02:40:00,47.5,45.6,28.52,East,90,2.0,3.6,93,0.00,,---,0.00,VWS V14.01,2013-04-12 05:40:00,
2013-04-12 02:41:00,47.3,45.4,28.52,SE,135,6.0,10.1,93,0.00,,---,0.00,VWS V14.01,2013-04-12 05:41:00,
2013-04-12 02:42:00,47.5,45.6,28.52,NE,45,3.6,8.1,93,0.00,,---,0.00,VWS V14.01,2013-04-12 05:42:00,
2013-04-12 02:43:00,47.5,45.6,28.52,NE,45,2.9,3.6,93,0.00,,---,0.00,VWS V14.01,2013-04-12 05:43:00,
2013-04-12 02:44:00,47.5,45.6,28.52,SE,135,2.7,2.9,93,0.00,,---,0.00,VWS V14.01,2013-04-12 05:44:00,
2013-04-12 02:45:00,47.5,45.3,28.52,SE,135,3.4,3.4,92,0.00,,---,0.00,VWS V14.01,2013-04-12 05:45:00,
2013-04-12 02:46:00,47.5,45.3,28.52,ENE,68,5.6,5.6,92,0.00,,---,0.00,VWS V14.01,2013-04-12 05:46:00,
2013-04-12 02:47:00,47.5,45.3,28.52,SE,135,3.4,5.8,92,0.00,,---,0.00,VWS V14.01,2013-04-12 05:47:00,
2013-04-12 02:48:00,47.5,45.3,28.52,SE,135,5.4,5.6,92,0.00,,---,0.00,VWS V14.01,2013-04-12 05:48:00,
2013-04-12 02:49:00,47.7,45.5,28.52,East,90,4.3,7.8,92,0.00,,---,0.00,VWS V14.01,2013-04-12 05:49:00,
2013-04-12 02:50:00,47.7,45.5,28.52,East,90,3.1,3.1,92,0.00,,---,0.00,VWS V14.01,2013-04-12 05:50:00,
2013-04-12 02:51:00,47.7,45.5,28.52,ENE,68,3.8,4.3,92,0.00,,---,0.00,VWS V14.01,2013-04-12 05:51:00,
2013-04-12 02:52:00,47.7,45.5,28.52,ESE,112,3.1,3.8,92,0.00,,---,0.00,VWS V14.01,2013-04-12 05:52:00,
2013-04-12 02:53:00,47.7,45.5,28.52,East,90,9.8,9.8,92,0.00,,---,0.00,VWS V14.01,2013-04-12 05:53:00,
2013-04-12 02:54:00,47.8,45.6,28.52,SE,135,3.4,9.8,92,0.00,,---,0.00,VWS V14.01,2013-04-12 05:54:00,
2013-04-12 02:55:00,47.8,45.6,28.47,SE,135,7.4,8.1,92,0.00,,---,0.00,VWS V14.01,2013-04-12 05:55:00,
2013-04-12 02:56:00,47.8,45.6,28.47,East,90,8.7,10.3,92,0.00,,---,0.00,VWS V14.01,2013-04-12 05:56:00,
2013-04-12 02:57:00,47.8,45.6,28.47,SE,135,8.1,8.7,92,0.00,,---,0.00,VWS V14.01,2013-04-12 05:57:00,
2013-04-12 02:58:00,47.8,45.6,28.47,SE,135,4.9,8.1,92,0.00,,---,0.00,VWS V14.01,2013-04-12 05:58:00,
2013-04-12 02:59:00,47.8,45.6,28.47,SE,135,4.3,4.9,92,0.00,,---,0.00,VWS V14.01,2013-04-12 05:59:00,
2013-04-12 03:00:00,48.0,45.5,28.47,East,90,7.4,7.4,91,0.00,,---,0.00,VWS V14.01,2013-04-12 06:00:00,
2013-04-12 03:01:00,47.8,45.3,28.47,ESE,112,6.5,9.4,91,0.00,,---,0.00,VWS V14.01,2013-04-12 06:01:00,
2013-04-12 03:02:00,48.0,45.5,28.47,ESE,112,4.9,8.7,91,0.00,,---,0.00,VWS V14.01,2013-04-12 06:02:00,
2013-04-12 03:03:00,48.0,45.5,28.47,ESE,112,6.0,7.4,91,0.00,,---,0.00,VWS V14.01,2013-04-12 06:03:00,
2013-04-12 03:04:00,48.0,45.5,28.47,East,90,6.3,12.3,91,0.00,,---,0.00,VWS V14.01,2013-04-12 06:04:00,
2013-04-12 03:05:00,48.2,45.7,28.47,ESE,112,7.4,7.4,91,0.00,,---,0.00,VWS V14.01,2013-04-12 06:05:00,
2013-04-12 03:06:00,48.0,45.5,28.47,East,90,4.7,5.6,91,0.00,,---,0.00,VWS V14.01,2013-04-12 06:06:00,
2013-04-12 03:07:00,48.2,45.7,28.47,SE,135,5.6,9.8,91,0.00,,---,0.00,VWS V14.01,2013-04-12 06:07:00,
2013-04-12 03:08:00,48.2,45.7,28.47,ESE,112,3.1,7.4,91,0.00,,---,0.00,VWS V14.01,2013-04-12 06:08:00,
2013-04-12 03:09:00,48.2,45.7,28.47,East,90,7.8,9.8,91,0.00,,---,0.00,VWS V14.01,2013-04-12 06:09:00,
2013-04-12 03:10:00,48.2,45.4,28.50,ESE,112,4.9,5.8,90,0.00,,---,0.00,VWS V14.01,2013-04-12 06:10:00,
2013-04-12 03:11:00,48.2,45.7,28.50,East,90,5.8,5.8,91,0.00,,---,0.00,VWS V14.01,2013-04-12 06:11:00,
2013-04-12 03:12:00,48.2,45.4,28.50,East,90,5.8,10.3,90,0.00,,---,0.00,VWS V14.01,2013-04-12 06:12:00,
2013-04-12 03:13:00,48.2,45.4,28.50,ESE,112,4.3,5.8,90,0.00,,---,0.00,VWS V14.01,2013-04-12 06:13:00,
2013-04-12 03:14:00,48.2,45.4,28.50,ESE,112,10.5,10.7,90,0.00,,---,0.00,VWS V14.01,2013-04-12 06:14:00,
2013-04-12 03:15:00,48.2,45.4,28.50,SE,135,2.7,4.7,90,0.00,,---,0.00,VWS V14.01,2013-04-12 06:15:00,
2013-04-12 03:16:00,48.2,45.4,28.50,North,0,1.6,8.1,90,0.00,,---,0.00,VWS V14.01,2013-04-12 06:16:00,
2013-04-12 03:17:00,48.2,45.4,28.50,NNW,338,4.7,4.7,90,0.00,,---,0.00,VWS V14.01,2013-04-12 06:17:00,
2013-04-12 03:18:00,48.2,45.4,28.50,NE,45,1.3,4.7,90,0.00,,---,0.00,VWS V14.01,2013-04-12 06:18:00,
2013-04-12 03:19:00,48.2,45.4,28.50,NE,45,4.7,6.0,90,0.00,,---,0.00,VWS V14.01,2013-04-12 06:19:00,
2013-04-12 03:20:00,48.2,45.4,28.50,East,90,5.4,5.4,90,0.00,,---,0.00,VWS V14.01,2013-04-12 06:20:00,
2013-04-12 03:21:00,48.2,45.4,28.50,East,90,6.0,11.4,90,0.00,,---,0.00,VWS V14.01,2013-04-12 06:21:00,
2013-04-12 03:22:00,48.2,45.4,28.50,East,90,5.4,8.5,90,0.00,,---,0.00,VWS V14.01,2013-04-12 06:22:00,
2013-04-12 03:23:00,48.4,45.6,28.50,East,90,3.8,6.3,90,0.00,,---,0.00,VWS V14.01,2013-04-12 06:23:00,
2013-04-12 03:24:00,48.4,45.6,28.50,East,90,5.8,8.5,90,0.00,,---,0.00,VWS V14.01,2013-04-12 06:24:00,
2013-04-12 03:25:00,48.4,45.6,28.47,ESE,112,8.7,9.6,90,0.00,,---,0.00,VWS V14.01,2013-04-12 06:25:00,
2013-04-12 03:26:00,48.4,45.6,28.47,East,90,2.0,3.4,90,0.00,,---,0.00,VWS V14.01,2013-04-12 06:26:00,
2013-04-12 03:27:00,48.4,45.6,28.47,ESE,112,2.9,4.0,90,0.00,,---,0.00,VWS V14.01,2013-04-12 06:27:00,
2013-04-12 03:28:00,48.4,45.6,28.47,East,90,7.6,9.6,90,0.00,,---,0.00,VWS V14.01,2013-04-12 06:28:00,
2013-04-12 03:29:00,48.4,45.6,28.47,East,90,4.7,7.6,90,0.00,,---,0.00,VWS V14.01,2013-04-12 06:29:00,
2013-04-12 03:30:00,48.4,45.6,28.47,SE,135,1.6,3.1,90,0.00,,---,0.00,VWS V14.01,2013-04-12 06:30:00,
2013-04-12 03:31:00,48.4,45.6,28.47,East,90,8.5,8.5,90,0.00,,---,0.00,VWS V14.01,2013-04-12 06:31:00,
2013-04-12 03:32:00,48.4,45.6,28.47,SE,135,3.1,8.5,90,0.00,,---,0.00,VWS V14.01,2013-04-12 06:32:00,
2013-04-12 03:33:00,48.4,45.6,28.47,SW,225,2.9,3.1,90,0.00,,---,0.00,VWS V14.01,2013-04-12 06:33:00,
2013-04-12 03:34:00,48.4,45.6,28.47,NNE,22,4.3,4.3,90,0.00,,---,0.00,VWS V14.01,2013-04-12 06:34:00,
2013-04-12 03:35:00,48.4,45.9,28.47,East,90,13.2,13.2,91,0.00,,---,0.00,VWS V14.01,2013-04-12 06:35:00,
2013-04-12 03:36:00,48.4,45.6,28.47,East,90,3.6,7.2,90,0.00,,---,0.00,VWS V14.01,2013-04-12 06:36:00,
2013-04-12 03:37:00,48.4,45.9,28.47,ESE,112,6.0,6.0,91,0.00,,---,0.00,VWS V14.01,2013-04-12 06:37:00,
2013-04-12 03:38:00,48.4,45.9,28.47,SW,225,7.4,13.2,91,0.00,,---,0.00,VWS V14.01,2013-04-12 06:38:00,
2013-04-12 03:39:00,48.4,45.9,28.47,SE,135,7.6,7.6,91,0.00,,---,0.00,VWS V14.01,2013-04-12 06:39:00,
2013-04-12 03:40:00,48.4,45.9,28.44,NE,45,6.3,6.3,91,0.00,,---,0.00,VWS V14.01,2013-04-12 06:40:00,
2013-04-12 03:41:00,48.4,45.9,28.44,NE,45,9.2,9.2,91,0.00,,---,0.00,VWS V14.01,2013-04-12 06:41:00,
2013-04-12 03:42:00,48.4,45.9,28.44,SE,135,5.4,12.8,91,0.00,,---,0.00,VWS V14.01,2013-04-12 06:42:00,
2013-04-12 03:43:00,48.4,45.9,28.44,SE,135,9.6,9.6,91,0.00,,---,0.00,VWS V14.01,2013-04-12 06:43:00,
2013-04-12 03:44:00,48.6,46.1,28.44,South,180,5.6,9.6,91,0.00,,---,0.00,VWS V14.01,2013-04-12 06:44:00,
2013-04-12 03:45:00,48.6,45.8,28.44,ESE,112,3.4,6.5,90,0.00,,---,0.00,VWS V14.01,2013-04-12 06:45:00,
2013-04-12 03:46:00,48.6,45.8,28.44,East,90,9.8,14.5,90,0.00,,---,0.00,VWS V14.01,2013-04-12 06:46:00,
2013-04-12 03:47:00,48.6,45.8,28.44,East,90,6.5,12.8,90,0.00,,---,0.00,VWS V14.01,2013-04-12 06:47:00,
2013-04-12 03:48:00,48.6,45.8,28.44,SE,135,4.0,6.5,90,0.00,,---,0.00,VWS V14.01,2013-04-12 06:48:00,
2013-04-12 03:49:00,48.6,45.8,28.44,East,90,2.7,4.7,90,0.00,,---,0.00,VWS V14.01,2013-04-12 06:49:00,
2013-04-12 03:50:00,48.6,46.1,28.44,ENE,68,6.5,6.5,91,0.00,,---,0.00,VWS V14.01,2013-04-12 06:50:00,
2013-04-12 03:51:00,48.6,45.8,28.44,SE,135,5.8,11.0,90,0.00,,---,0.00,VWS V14.01,2013-04-12 06:51:00,
2013-04-12 03:52:00,48.6,46.1,28.44,SE,135,5.8,5.8,91,0.00,,---,0.00,VWS V14.01,2013-04-12 06:52:00,
2013-04-12 03:53:00,48.6,46.1,28.44,SE,135,5.6,10.1,91,0.00,,---,0.00,VWS V14.01,2013-04-12 06:53:00,
2013-04-12 03:54:00,48.6,46.1,28.44,ESE,112,8.7,10.7,91,0.00,,---,0.00,VWS V14.01,2013-04-12 06:54:00,
2013-04-12 03:55:00,48.6,46.1,28.44,ESE,112,8.7,8.7,91,0.00,,---,0.00,VWS V14.01,2013-04-12 06:55:00,
2013-04-12 03:56:00,48.6,46.1,28.44,East,90,13.2,13.2,91,0.00,,---,0.00,VWS V14.01,2013-04-12 06:56:00,
2013-04-12 03:57:00,48.6,46.1,28.44,East,90,7.8,13.2,91,0.00,,---,0.00,VWS V14.01,2013-04-12 06:57:00,
2013-04-12 03:58:00,48.6,46.1,28.44,SE,135,7.6,8.7,91,0.00,,---,0.00,VWS V14.01,2013-04-12 06:58:00,
2013-04-12 03:59:00,48.6,46.1,28.44,SE,135,3.8,7.6,91,0.00,,---,0.00,VWS V14.01,2013-04-12 06:59:00,
2013-04-12 04:00:00,48.6,46.1,28.44,SE,135,5.6,7.4,91,0.00,,---,0.00,VWS V14.01,2013-04-12 07:00:00,
2013-04-12 04:01:00,48.6,46.1,28.44,ESE,112,9.6,10.7,91,0.00,,---,0.00,VWS V14.01,2013-04-12 07:01:00,
2013-04-12 04:02:00,48.6,46.1,28.44,East,90,7.4,10.1,91,0.00,,---,0.00,VWS V14.01,2013-04-12 07:02:00,
2013-04-12 04:03:00,48.7,46.2,28.44,ESE,112,4.9,7.4,91,0.00,,---,0.00,VWS V14.01,2013-04-12 07:03:00,
2013-04-12 04:04:00,48.7,46.2,28.44,East,90,2.7,4.9,91,0.00,,---,0.00,VWS V14.01,2013-04-12 07:04:00,
2013-04-12 04:05:00,48.7,46.2,28.44,ESE,112,12.8,12.8,91,0.00,,---,0.00,VWS V14.01,2013-04-12 07:05:00,
2013-04-12 04:06:00,48.7,46.2,28.44,East,90,5.4,6.3,91,0.00,,---,0.00,VWS V14.01,2013-04-12 07:06:00,
2013-04-12 04:07:00,48.7,46.2,28.44,ESE,112,9.8,13.2,91,0.00,,---,0.00,VWS V14.01,2013-04-12 07:07:00,
2013-04-12 04:08:00,48.7,46.2,28.44,ESE,112,6.3,12.8,91,0.00,,---,0.00,VWS V14.01,2013-04-12 07:08:00,
2013-04-12 04:09:00,48.7,46.2,28.44,East,90,8.7,8.7,91,0.00,,---,0.00,VWS V14.01,2013-04-12 07:09:00,
2013-04-12 04:10:00,48.7,46.2,28.44,NE,45,6.0,6.3,91,0.00,,---,0.00,VWS V14.01,2013-04-12 07:10:00,
2013-04-12 04:11:00,48.7,46.2,28.44,SE,135,8.5,8.5,91,0.00,,---,0.00,VWS V14.01,2013-04-12 07:11:00,
2013-04-12 04:12:00,48.7,46.2,28.44,East,90,5.8,8.5,91,0.00,,---,0.00,VWS V14.01,2013-04-12 07:12:00,
2013-04-12 04:13:00,48.7,46.2,28.44,East,90,6.3,6.3,91,0.00,,---,0.00,VWS V14.01,2013-04-12 07:13:00,
2013-04-12 04:14:00,48.7,46.2,28.44,East,90,4.9,6.3,91,0.00,,---,0.00,VWS V14.01,2013-04-12 07:14:00,
2013-04-12 04:15:00,48.7,46.2,28.44,East,90,4.7,6.0,91,0.00,,---,0.00,VWS V14.01,2013-04-12 07:15:00,
2013-04-12 04:16:00,48.7,46.2,28.44,SE,135,5.8,5.8,91,0.00,,---,0.00,VWS V14.01,2013-04-12 07:16:00,
2013-04-12 04:17:00,48.7,46.2,28.44,ESE,112,6.0,7.2,91,0.00,,---,0.00,VWS V14.01,2013-04-12 07:17:00,
2013-04-12 04:18:00,48.7,46.2,28.44,NE,45,2.9,6.0,91,0.00,,---,0.00,VWS V14.01,2013-04-12 07:18:00,
2013-04-12 04:19:00,48.7,46.2,28.44,ESE,112,4.3,4.3,91,0.00,,---,0.00,VWS V14.01,2013-04-12 07:19:00,
2013-04-12 04:20:00,48.9,46.7,28.44,SE,135,6.0,6.0,92,0.00,,---,0.00,VWS V14.01,2013-04-12 07:20:00,
2013-04-12 04:21:00,48.9,46.7,28.44,East,90,11.0,11.9,92,0.00,,---,0.00,VWS V14.01,2013-04-12 07:21:00,
2013-04-12 04:22:00,48.9,46.7,28.44,East,90,5.8,12.5,92,0.00,,---,0.00,VWS V14.01,2013-04-12 07:22:00,
2013-04-12 04:23:00,48.9,46.7,28.44,SE,135,5.4,9.8,92,0.00,,---,0.00,VWS V14.01,2013-04-12 07:23:00,
2013-04-12 04:24:00,48.9,46.7,28.44,ESE,112,9.8,9.8,92,0.00,,---,0.00,VWS V14.01,2013-04-12 07:24:00,
2013-04-12 04:25:00,48.9,46.7,28.44,East,90,6.0,6.0,92,0.00,,---,0.00,VWS V14.01,2013-04-12 07:25:00,
2013-04-12 04:26:00,48.9,46.7,28.44,East,90,5.6,8.5,92,0.00,,---,0.00,VWS V14.01,2013-04-12 07:26:00,
2013-04-12 04:27:00,48.9,46.7,28.44,East,90,6.0,6.3,92,0.00,,---,0.00,VWS V14.01,2013-04-12 07:27:00,
2013-04-12 04:28:00,48.9,46.7,28.44,East,90,3.4,6.0,92,0.00,,---,0.00,VWS V14.01,2013-04-12 07:28:00,
2013-04-12 04:29:00,48.9,46.7,28.44,East,90,4.9,5.6,92,0.00,,---,0.00,VWS V14.01,2013-04-12 07:29:00,
2013-04-12 04:30:00,49.1,46.9,28.44,East,90,5.6,5.6,92,0.00,,---,0.00,VWS V14.01,2013-04-12 07:30:00,
2013-04-12 04:31:00,48.9,46.7,28.44,SE,135,3.8,3.8,92,0.00,,---,0.00,VWS V14.01,2013-04-12 07:31:00,
2013-04-12 04:32:00,49.1,46.9,28.44,ESE,112,5.4,6.3,92,0.00,,---,0.00,VWS V14.01,2013-04-12 07:32:00,
2013-04-12 04:33:00,49.1,46.9,28.44,SE,135,10.3,12.5,92,0.00,,---,0.00,VWS V14.01,2013-04-12 07:33:00,
2013-04-12 04:34:00,49.1,46.9,28.44,East,90,8.7,13.2,92,0.00,,---,0.00,VWS V14.01,2013-04-12 07:34:00,
2013-04-12 04:35:00,49.1,47.2,28.44,SE,135,3.4,6.0,93,0.00,,---,0.00,VWS V14.01,2013-04-12 07:35:00,
2013-04-12 04:36:00,49.1,47.2,28.44,SE,135,10.5,10.5,93,0.00,,---,0.00,VWS V14.01,2013-04-12 07:36:00,
2013-04-12 04:37:00,49.1,47.2,28.44,East,90,3.8,10.5,93,0.00,,---,0.00,VWS V14.01,2013-04-12 07:37:00,
2013-04-12 04:38:00,49.1,47.2,28.44,SSE,158,2.0,6.0,93,0.00,,---,0.00,VWS V14.01,2013-04-12 07:38:00,
2013-04-12 04:39:00,49.1,47.2,28.44,ESE,112,8.7,8.7,93,0.00,,---,0.00,VWS V14.01,2013-04-12 07:39:00,
2013-04-12 04:40:00,49.1,47.2,28.41,East,90,6.5,6.5,93,0.00,,---,0.00,VWS V14.01,2013-04-12 07:40:00,
2013-04-12 04:41:00,49.1,47.2,28.41,SE,135,4.7,10.7,93,0.00,,---,0.00,VWS V14.01,2013-04-12 07:41:00,
2013-04-12 04:42:00,49.1,47.2,28.41,East,90,5.4,5.4,93,0.00,,---,0.00,VWS V14.01,2013-04-12 07:42:00,
2013-04-12 04:43:00,49.1,47.2,28.41,NE,45,2.5,6.5,93,0.00,,---,0.00,VWS V14.01,2013-04-12 07:43:00,
2013-04-12 04:44:00,49.1,47.2,28.41,East,90,4.9,4.9,93,0.00,,---,0.00,VWS V14.01,2013-04-12 07:44:00,
2013-04-12 04:45:00,49.1,47.2,28.41,ESE,112,5.8,6.0,93,0.00,,---,0.00,VWS V14.01,2013-04-12 07:45:00,
2013-04-12 04:46:00,49.1,47.2,28.41,ESE,112,4.0,4.9,93,0.00,,---,0.00,VWS V14.01,2013-04-12 07:46:00,
2013-04-12 04:47:00,49.1,47.2,28.41,ESE,112,5.8,6.0,93,0.00,,---,0.00,VWS V14.01,2013-04-12 07:47:00,
2013-04-12 04:48:00,49.1,0.0,28.41,SW,225,3.1,7.8,80,0.00,,---,0.00,VWS V14.01,2013-04-12 07:48:00,
2013-04-12 04:49:00,49.1,0.0,28.41,SE,135,1.1,3.1,80,0.00,,---,0.00,VWS V14.01,2013-04-12 07:49:00,
2013-04-12 04:50:00,49.5,47.5,28.41,ESE,112,6.9,6.9,93,0.00,,---,0.00,VWS V14.01,2013-04-12 07:50:00,
2013-04-12 04:51:00,49.5,47.5,28.41,SSE,158,6.0,12.8,93,0.00,,---,0.00,VWS V14.01,2013-04-12 07:51:00,
2013-04-12 04:52:00,49.5,47.5,28.41,East,90,4.5,7.2,93,0.00,,---,0.00,VWS V14.01,2013-04-12 07:52:00,
2013-04-12 04:53:00,49.5,47.8,28.41,East,90,10.1,12.8,94,0.00,,---,0.00,VWS V14.01,2013-04-12 07:53:00,
2013-04-12 04:54:00,49.6,48.0,28.41,East,90,5.8,13.2,94,0.00,,---,0.00,VWS V14.01,2013-04-12 07:54:00,
2013-04-12 04:55:00,49.6,48.0,28.41,SE,135,6.0,6.0,94,0.00,,---,0.00,VWS V14.01,2013-04-12 07:55:00,
2013-04-12 04:56:00,49.6,48.0,28.41,East,90,4.3,10.1,94,0.00,,---,0.00,VWS V14.01,2013-04-12 07:56:00,
2013-04-12 04:57:00,49.6,48.0,28.41,East,90,3.4,4.3,94,0.00,,---,0.00,VWS V14.01,2013-04-12 07:57:00,
2013-04-12 04:58:00,49.6,48.0,28.41,SE,135,4.3,7.2,94,0.00,,---,0.00,VWS V14.01,2013-04-12 07:58:00,
2013-04-12 04:59:00,49.6,48.0,28.41,East,90,6.3,7.8,94,0.00,,---,0.00,VWS V14.01,2013-04-12 07:59:00,
2013-04-12 05:00:00,49.6,48.0,28.41,East,90,5.4,5.4,94,0.00,,---,0.00,VWS V14.01,2013-04-12 08:00:00,
2013-04-12 05:01:00,49.6,48.0,28.41,East,90,6.3,11.0,94,0.00,,---,0.00,VWS V14.01,2013-04-12 08:01:00,
2013-04-12 05:02:00,49.6,48.0,28.41,East,90,3.8,7.4,94,0.00,,---,0.00,VWS V14.01,2013-04-12 08:02:00,
2013-04-12 05:03:00,49.6,48.0,28.41,East,90,7.4,7.4,94,0.00,,---,0.00,VWS V14.01,2013-04-12 08:03:00,
2013-04-12 05:04:00,49.8,48.2,28.41,ESE,112,10.1,12.8,94,0.00,,---,0.00,VWS V14.01,2013-04-12 08:04:00,
2013-04-12 05:05:00,50.0,48.3,28.41,East,90,12.8,12.8,94,0.00,,---,0.00,VWS V14.01,2013-04-12 08:05:00,
2013-04-12 05:06:00,50.0,48.3,28.41,SE,135,13.0,13.0,94,0.00,,---,0.00,VWS V14.01,2013-04-12 08:06:00,
2013-04-12 05:07:00,50.0,48.3,28.41,SE,135,10.1,13.0,94,0.00,,---,0.00,VWS V14.01,2013-04-12 08:07:00,
2013-04-12 05:08:00,50.0,48.3,28.41,East,90,10.3,14.8,94,0.00,,---,0.00,VWS V14.01,2013-04-12 08:08:00,
2013-04-12 05:09:00,50.0,48.3,28.41,SE,135,7.2,10.5,94,0.00,,---,0.00,VWS V14.01,2013-04-12 08:09:00,
2013-04-12 05:10:00,50.0,48.3,28.41,ESE,112,7.8,7.8,94,0.00,,---,0.00,VWS V14.01,2013-04-12 08:10:00,
2013-04-12 05:11:00,50.0,48.3,28.41,ESE,112,5.8,6.0,94,0.00,,---,0.00,VWS V14.01,2013-04-12 08:11:00,
2013-04-12 05:12:00,50.0,48.3,28.41,ESE,112,7.8,7.8,94,0.00,,---,0.00,VWS V14.01,2013-04-12 08:12:00,
2013-04-12 05:13:00,50.0,48.3,28.41,SE,135,3.4,7.8,94,0.00,,---,0.00,VWS V14.01,2013-04-12 08:13:00,
2013-04-12 05:14:00,50.0,48.3,28.41,SE,135,7.2,7.4,94,0.00,,---,0.00,VWS V14.01,2013-04-12 08:14:00,
2013-04-12 05:15:00,50.0,48.3,28.41,SE,135,5.6,5.6,94,0.00,,---,0.00,VWS V14.01,2013-04-12 08:15:00,
2013-04-12 05:16:00,50.0,48.3,28.41,East,90,6.3,10.1,94,0.00,,---,0.00,VWS V14.01,2013-04-12 08:16:00,
2013-04-12 05:17:00,50.0,48.3,28.41,SSE,158,5.4,10.1,94,0.00,,---,0.00,VWS V14.01,2013-04-12 08:17:00,
2013-04-12 05:18:00,50.0,48.3,28.41,SE,135,3.4,5.6,94,0.00,,---,0.00,VWS V14.01,2013-04-12 08:18:00,
2013-04-12 05:19:00,50.0,48.3,28.41,SE,135,8.5,8.5,94,0.00,,---,0.00,VWS V14.01,2013-04-12 08:19:00,
2013-04-12 05:20:00,50.0,48.3,28.41,SE,135,4.0,4.0,94,0.00,,---,0.00,VWS V14.01,2013-04-12 08:20:00,
2013-04-12 05:21:00,50.0,48.3,28.41,ESE,112,5.8,8.1,94,0.00,,---,0.00,VWS V14.01,2013-04-12 08:21:00,
2013-04-12 05:22:00,50.0,48.3,28.41,SE,135,4.0,8.1,94,0.00,,---,0.00,VWS V14.01,2013-04-12 08:22:00,
2013-04-12 05:23:00,50.0,48.3,28.41,East,90,8.7,8.7,94,0.00,,---,0.00,VWS V14.01,2013-04-12 08:23:00,
2013-04-12 05:24:00,50.2,48.5,28.41,East,90,10.7,11.2,94,0.00,,---,0.00,VWS V14.01,2013-04-12 08:24:00,
2013-04-12 05:25:00,50.2,48.5,28.41,ESE,112,6.5,6.5,94,0.00,,---,0.00,VWS V14.01,2013-04-12 08:25:00,
2013-04-12 05:26:00,50.2,48.5,28.41,ESE,112,6.3,8.7,94,0.00,,---,0.00,VWS V14.01,2013-04-12 08:26:00,
2013-04-12 05:27:00,50.2,48.5,28.41,ESE,112,6.5,6.5,94,0.00,,---,0.00,VWS V14.01,2013-04-12 08:27:00,
2013-04-12 05:28:00,50.2,48.5,28.41,ESE,112,6.3,6.5,94,0.00,,---,0.00,VWS V14.01,2013-04-12 08:28:00,
2013-04-12 05:29:00,50.0,48.3,28.41,SE,135,2.7,6.3,94,0.00,,---,0.00,VWS V14.01,2013-04-12 08:29:00,
2013-04-12 05:30:00,50.0,48.6,28.41,ESE,112,4.3,6.3,95,0.00,,---,0.00,VWS V14.01,2013-04-12 08:30:00,
2013-04-12 05:31:00,50.0,48.3,28.41,NE,45,7.2,8.5,94,0.00,,---,0.00,VWS V14.01,2013-04-12 08:31:00,
2013-04-12 05:32:00,50.0,48.6,28.41,ESE,112,6.3,7.2,95,0.00,,---,0.00,VWS V14.01,2013-04-12 08:32:00,
2013-04-12 05:33:00,50.2,48.8,28.41,SE,135,3.4,7.2,95,0.00,,---,0.00,VWS V14.01,2013-04-12 08:33:00,
2013-04-12 05:34:00,50.0,48.6,28.41,West,270,10.5,10.5,95,0.00,,---,0.00,VWS V14.01,2013-04-12 08:34:00,
2013-04-12 05:35:00,50.2,48.8,28.41,SE,135,5.8,12.5,95,0.00,,---,0.00,VWS V14.01,2013-04-12 08:35:00,
2013-04-12 05:36:00,50.2,48.8,28.41,SE,135,3.4,6.3,95,0.00,,---,0.00,VWS V14.01,2013-04-12 08:36:00,
2013-04-12 05:37:00,50.2,48.8,28.41,ESE,112,12.5,16.1,95,0.00,,---,0.00,VWS V14.01,2013-04-12 08:37:00,
2013-04-12 05:38:00,50.2,48.8,28.41,SE,135,3.6,12.5,95,0.00,,---,0.00,VWS V14.01,2013-04-12 08:38:00,
2013-04-12 05:39:00,50.2,48.8,28.41,East,90,6.5,6.5,95,0.00,,---,0.00,VWS V14.01,2013-04-12 08:39:00,
2013-04-12 05:40:00,50.2,48.8,28.41,East,90,3.6,3.6,95,0.00,,---,0.00,VWS V14.01,2013-04-12 08:40:00,
2013-04-12 05:41:00,50.2,48.8,28.41,East,90,6.3,8.1,95,0.00,,---,0.00,VWS V14.01,2013-04-12 08:41:00,
2013-04-12 05:42:00,50.2,48.8,28.41,East,90,3.6,8.1,95,0.00,,---,0.00,VWS V14.01,2013-04-12 08:42:00,
2013-04-12 05:43:00,50.2,48.8,28.41,SE,135,11.0,12.8,95,0.00,,---,0.00,VWS V14.01,2013-04-12 08:43:00,
2013-04-12 05:44:00,50.2,48.8,28.41,ENE,68,6.0,11.0,95,0.00,,---,0.00,VWS V14.01,2013-04-12 08:44:00,
2013-04-12 05:45:00,50.2,48.8,28.41,SE,135,6.9,8.7,95,0.00,,---,0.00,VWS V14.01,2013-04-12 08:45:00,
2013-04-12 05:46:00,50.2,48.8,28.41,ESE,112,4.0,4.3,95,0.00,,---,0.00,VWS V14.01,2013-04-12 08:46:00,
2013-04-12 05:47:00,50.2,48.8,28.41,East,90,8.7,9.4,95,0.00,,---,0.00,VWS V14.01,2013-04-12 08:47:00,
2013-04-12 05:48:00,50.4,49.0,28.41,ESE,112,11.0,11.0,95,0.04,,---,0.04,VWS V14.01,2013-04-12 08:48:00,
2013-04-12 05:49:00,50.4,49.0,28.41,East,90,10.3,11.0,95,0.04,,---,0.04,VWS V14.01,2013-04-12 08:49:00,
2013-04-12 05:50:00,50.5,49.2,28.41,East,90,10.1,11.0,95,0.04,,---,0.04,VWS V14.01,2013-04-12 08:50:00,
2013-04-12 05:51:00,50.4,49.0,28.41,East,90,8.1,8.1,95,0.04,,---,0.04,VWS V14.01,2013-04-12 08:51:00,
2013-04-12 05:52:00,50.5,49.2,28.41,SE,135,11.0,13.0,95,0.04,,---,0.04,VWS V14.01,2013-04-12 08:52:00,
2013-04-12 05:53:00,50.5,49.2,28.41,SE,135,6.0,11.0,95,0.04,,---,0.04,VWS V14.01,2013-04-12 08:53:00,
2013-04-12 05:54:00,50.5,49.2,28.41,East,90,9.2,9.2,95,0.04,,---,0.04,VWS V14.01,2013-04-12 08:54:00,
2013-04-12 05:55:00,50.5,49.2,28.41,ESE,112,8.5,8.5,95,0.04,,---,0.04,VWS V14.01,2013-04-12 08:55:00,
2013-04-12 05:56:00,50.5,49.2,28.41,East,90,8.7,13.0,95,0.04,,---,0.04,VWS V14.01,2013-04-12 08:56:00,
2013-04-12 05:57:00,50.5,49.2,28.41,SE,135,8.1,10.5,95,0.04,,---,0.04,VWS V14.01,2013-04-12 08:57:00,
2013-04-12 05:58:00,50.5,49.2,28.41,ESE,112,4.9,8.5,95,0.04,,---,0.04,VWS V14.01,2013-04-12 08:58:00,
2013-04-12 05:59:00,50.5,49.2,28.41,ESE,112,4.3,10.1,95,0.04,,---,0.04,VWS V14.01,2013-04-12 08:59:00,
2013-04-12 06:00:00,50.5,49.5,28.41,East,90,4.0,8.5,96,0.04,,---,0.04,VWS V14.01,2013-04-12 09:00:00,
2013-04-12 06:01:00,50.5,49.2,28.41,East,90,2.0,4.0,95,0.04,,---,0.04,VWS V14.01,2013-04-12 09:01:00,
2013-04-12 06:02:00,50.5,49.4,28.41,East,90,8.5,8.5,96,0.04,,---,0.04,VWS V14.01,2013-04-12 09:02:00,
2013-04-12 06:03:00,50.5,49.4,28.41,SE,135,5.6,9.8,96,0.04,,---,0.04,VWS V14.01,2013-04-12 09:03:00,
2013-04-12 06:04:00,50.5,49.4,28.41,East,90,10.1,10.1,96,0.04,,---,0.04,VWS V14.01,2013-04-12 09:04:00,
2013-04-12 06:05:00,50.5,49.5,28.41,SE,135,6.3,6.3,96,0.04,,---,0.04,VWS V14.01,2013-04-12 09:05:00,
2013-04-12 06:06:00,50.5,49.4,28.41,ESE,112,7.8,7.8,96,0.04,,---,0.04,VWS V14.01,2013-04-12 09:06:00,
2013-04-12 06:07:00,50.5,49.4,28.41,SE,135,6.3,10.1,96,0.04,,---,0.04,VWS V14.01,2013-04-12 09:07:00,
2013-04-12 06:08:00,50.5,49.4,28.41,East,90,8.5,8.7,96,0.04,,---,0.04,VWS V14.01,2013-04-12 09:08:00,
2013-04-12 06:09:00,50.7,49.6,28.41,ESE,112,14.5,14.5,96,0.04,,---,0.04,VWS V14.01,2013-04-12 09:09:00,
2013-04-12 06:10:00,50.7,49.6,28.38,SE,135,6.9,11.0,96,0.04,,---,0.04,VWS V14.01,2013-04-12 09:10:00,
2013-04-12 06:11:00,50.7,49.6,28.38,SE,135,8.1,14.5,96,0.04,,---,0.04,VWS V14.01,2013-04-12 09:11:00,
2013-04-12 06:12:00,50.7,49.6,28.38,East,90,11.0,16.8,96,0.04,,---,0.04,VWS V14.01,2013-04-12 09:12:00,
2013-04-12 06:13:00,50.7,49.6,28.38,East,90,6.3,11.0,96,0.04,,---,0.04,VWS V14.01,2013-04-12 09:13:00,
2013-04-12 06:14:00,50.7,49.6,28.38,ESE,112,6.7,6.7,96,0.08,,---,0.08,VWS V14.01,2013-04-12 09:14:00,
2013-04-12 06:15:00,50.7,49.6,28.38,SE,135,4.0,6.3,96,0.08,,---,0.08,VWS V14.01,2013-04-12 09:15:00,
2013-04-12 06:16:00,50.7,49.6,28.38,East,90,5.6,10.1,96,0.08,,---,0.08,VWS V14.01,2013-04-12 09:16:00,
2013-04-12 06:17:00,50.7,49.6,28.38,East,90,6.3,7.4,96,0.08,,---,0.08,VWS V14.01,2013-04-12 09:17:00,
2013-04-12 06:18:00,50.7,49.6,28.38,East,90,2.7,6.3,96,0.08,,---,0.08,VWS V14.01,2013-04-12 09:18:00,
2013-04-12 06:19:00,50.7,49.6,28.38,East,90,5.4,5.4,96,0.08,,---,0.08,VWS V14.01,2013-04-12 09:19:00,
2013-04-12 06:20:00,50.7,49.6,28.38,East,90,6.5,6.5,96,0.08,,---,0.08,VWS V14.01,2013-04-12 09:20:00,
2013-04-12 06:21:00,50.7,49.6,28.38,South,180,5.6,8.1,96,0.08,,---,0.08,VWS V14.01,2013-04-12 09:21:00,
2013-04-12 06:22:00,50.7,49.6,28.38,NE,45,5.8,5.8,96,0.08,,---,0.08,VWS V14.01,2013-04-12 09:22:00,
2013-04-12 06:23:00,50.7,49.6,28.38,ESE,112,3.1,6.5,96,0.08,,---,0.08,VWS V14.01,2013-04-12 09:23:00,
2013-04-12 06:24:00,50.7,49.6,28.38,SW,225,9.8,9.8,96,0.08,,---,0.08,VWS V14.01,2013-04-12 09:24:00,
2013-04-12 06:25:00,50.7,49.6,28.38,ESE,112,5.4,5.6,96,0.08,,---,0.08,VWS V14.01,2013-04-12 09:25:00,
2013-04-12 06:26:00,50.7,49.6,28.38,ESE,112,2.0,10.7,96,0.08,,---,0.08,VWS V14.01,2013-04-12 09:26:00,
2013-04-12 06:27:00,50.7,49.6,28.38,ESE,112,5.6,7.4,96,0.08,,---,0.08,VWS V14.01,2013-04-12 09:27:00,
2013-04-12 06:28:00,50.7,49.6,28.38,East,90,5.6,5.6,96,0.08,,---,0.08,VWS V14.01,2013-04-12 09:28:00,
2013-04-12 06:29:00,50.7,49.6,28.38,East,90,3.8,5.6,96,0.08,,---,0.08,VWS V14.01,2013-04-12 09:29:00,
2013-04-12 06:30:00,50.7,49.6,28.38,SE,135,2.0,2.0,96,0.08,,---,0.08,VWS V14.01,2013-04-12 09:30:00,
2013-04-12 06:31:00,50.7,49.6,28.38,East,90,7.4,7.4,96,0.08,,---,0.08,VWS V14.01,2013-04-12 09:31:00,
2013-04-12 06:32:00,50.7,49.6,28.38,SE,135,2.0,7.4,96,0.08,,---,0.08,VWS V14.01,2013-04-12 09:32:00,
2013-04-12 06:33:00,50.7,49.6,28.38,SE,135,10.3,10.3,96,0.08,,---,0.08,VWS V14.01,2013-04-12 09:33:00,
2013-04-12 06:34:00,50.7,49.6,28.38,SW,225,3.1,10.3,96,0.08,,---,0.08,VWS V14.01,2013-04-12 09:34:00,
2013-04-12 06:35:00,50.7,0.0,28.38,SE,135,0.9,1.6,32,0.08,,---,0.08,VWS V14.01,2013-04-12 09:35:00,
2013-04-12 06:36:00,50.7,0.0,28.38,ESE,112,4.9,13.0,32,0.08,,---,0.08,VWS V14.01,2013-04-12 09:36:00,
2013-04-12 06:37:00,50.7,0.0,28.38,West,270,1.6,4.9,32,0.08,,---,0.08,VWS V14.01,2013-04-12 09:37:00,
2013-04-12 06:38:00,50.7,0.0,28.38,East,90,3.8,3.8,32,0.12,,---,0.12,VWS V14.01,2013-04-12 09:38:00,
2013-04-12 06:39:00,50.7,0.0,28.38,East,90,4.3,4.7,32,0.12,,---,0.12,VWS V14.01,2013-04-12 09:39:00,
2013-04-12 06:40:00,50.9,50.1,28.35,ENE,68,2.9,3.1,97,0.12,,---,0.12,VWS V14.01,2013-04-12 09:40:00,
2013-04-12 06:41:00,50.9,50.1,28.35,ESE,112,6.3,7.2,97,0.12,,---,0.12,VWS V14.01,2013-04-12 09:41:00,
2013-04-12 06:42:00,50.9,50.1,28.35,SE,135,3.1,6.3,97,0.12,,---,0.12,VWS V14.01,2013-04-12 09:42:00,
2013-04-12 06:43:00,50.9,50.1,28.35,ESE,112,2.9,3.1,97,0.12,,---,0.12,VWS V14.01,2013-04-12 09:43:00,
2013-04-12 06:44:00,50.9,50.1,28.35,SE,135,5.4,5.4,97,0.12,,---,0.12,VWS V14.01,2013-04-12 09:44:00,
2013-04-12 06:45:00,50.9,50.1,28.35,SE,135,3.6,3.6,97,0.12,,---,0.12,VWS V14.01,2013-04-12 09:45:00,
2013-04-12 06:46:00,50.9,50.1,28.35,SE,135,3.6,8.7,97,0.12,,---,0.12,VWS V14.01,2013-04-12 09:46:00,
2013-04-12 06:47:00,50.9,50.1,28.35,SE,135,3.6,3.6,97,0.12,,---,0.12,VWS V14.01,2013-04-12 09:47:00,
2013-04-12 06:48:00,50.9,50.1,28.35,SE,135,3.6,3.6,97,0.12,,---,0.12,VWS V14.01,2013-04-12 09:48:00,
2013-04-12 06:49:00,50.9,50.1,28.35,ENE,68,3.4,4.3,97,0.08,,---,0.12,VWS V14.01,2013-04-12 09:49:00,
2013-04-12 06:50:00,51.1,50.3,28.35,East,90,7.6,7.6,97,0.08,,---,0.12,VWS V14.01,2013-04-12 09:50:00,
2013-04-12 06:51:00,51.1,50.3,28.35,East,90,7.6,7.6,97,0.08,,---,0.12,VWS V14.01,2013-04-12 09:51:00,
2013-04-12 06:52:00,51.1,50.3,28.35,East,90,7.6,7.6,97,0.08,,---,0.12,VWS V14.01,2013-04-12 09:52:00,
2013-04-12 06:53:00,51.1,50.3,28.35,East,90,7.6,7.6,97,0.08,,---,0.12,VWS V14.01,2013-04-12 09:53:00,
2013-04-12 06:54:00,51.1,50.3,28.35,East,90,8.1,8.1,97,0.08,,---,0.12,VWS V14.01,2013-04-12 09:54:00,
2013-04-12 06:55:00,51.3,50.4,28.38,SE,135,3.8,3.8,97,0.08,,---,0.12,VWS V14.01,2013-04-12 09:55:00,
2013-04-12 06:56:00,51.1,50.3,28.38,SE,135,3.8,8.1,97,0.08,,---,0.12,VWS V14.01,2013-04-12 09:56:00,
2013-04-12 06:57:00,51.1,50.3,28.38,SE,135,3.8,3.8,97,0.08,,---,0.12,VWS V14.01,2013-04-12 09:57:00,
2013-04-12 06:58:00,51.3,50.4,28.38,SE,135,3.8,3.8,97,0.08,,---,0.12,VWS V14.01,2013-04-12 09:58:00,
2013-04-12 06:59:00,51.3,50.4,28.38,SE,135,3.8,3.8,97,0.08,,---,0.12,VWS V14.01,2013-04-12 09:59:00,
2013-04-12 07:00:00,51.3,50.4,28.38,ESE,112,3.4,3.4,97,0.08,,---,0.12,VWS V14.01,2013-04-12 10:00:00,
2013-04-12 07:01:00,51.3,50.4,28.38,ESE,112,3.4,3.4,97,0.08,,---,0.12,VWS V14.01,2013-04-12 10:01:00,
2013-04-12 07:02:00,51.3,50.4,28.38,ESE,112,3.4,3.4,97,0.08,,---,0.12,VWS V14.01,2013-04-12 10:02:00,
2013-04-12 07:03:00,51.3,50.4,28.38,ESE,112,3.4,3.4,97,0.08,,---,0.12,VWS V14.01,2013-04-12 10:03:00,
2013-04-12 07:04:00,51.3,0.0,28.38,East,90,4.0,4.0,100,0.08,,---,0.12,VWS V14.01,2013-04-12 10:04:00,
2013-04-12 07:05:00,51.3,0.0,28.38,East,90,4.0,4.0,100,0.08,,---,0.12,VWS V14.01,2013-04-12 10:05:00,
2013-04-12 07:06:00,51.3,0.0,28.38,East,90,4.0,4.0,100,0.08,,---,0.12,VWS V14.01,2013-04-12 10:06:00,
2013-04-12 07:07:00,51.3,0.0,28.38,East,90,4.0,4.0,100,0.08,,---,0.12,VWS V14.01,2013-04-12 10:07:00,
2013-04-12 07:08:00,51.3,0.0,28.38,East,90,4.0,4.0,100,0.08,,---,0.12,VWS V14.01,2013-04-12 10:08:00,
2013-04-12 07:09:00,51.3,50.4,28.38,East,90,4.0,4.0,97,0.08,,---,0.12,VWS V14.01,2013-04-12 10:09:00,
2013-04-12 07:10:00,51.1,50.3,28.38,East,90,5.4,5.4,97,0.08,,---,0.12,VWS V14.01,2013-04-12 10:10:00,
2013-04-12 07:11:00,51.1,50.3,28.38,NE,45,2.5,2.9,97,0.08,,---,0.12,VWS V14.01,2013-04-12 10:11:00,
2013-04-12 07:12:00,51.1,50.3,28.38,ESE,112,3.6,3.6,97,0.08,,---,0.12,VWS V14.01,2013-04-12 10:12:00,
2013-04-12 07:13:00,51.1,50.3,28.38,NE,45,2.9,5.4,97,0.08,,---,0.12,VWS V14.01,2013-04-12 10:13:00,
2013-04-12 07:14:00,51.1,50.3,28.38,East,90,3.4,3.4,97,0.12,,---,0.16,VWS V14.01,2013-04-12 10:14:00,
2013-04-12 07:15:00,51.3,50.4,28.38,ESE,112,6.3,6.3,97,0.08,,---,0.16,VWS V14.01,2013-04-12 10:15:00,
2013-04-12 07:16:00,51.3,50.4,28.38,ESE,112,6.3,8.1,97,0.08,,---,0.16,VWS V14.01,2013-04-12 10:16:00,
2013-04-12 07:17:00,51.3,50.4,28.38,ESE,112,6.3,6.3,97,0.08,,---,0.16,VWS V14.01,2013-04-12 10:17:00,
2013-04-12 07:18:00,51.3,50.4,28.38,ESE,112,6.3,6.3,97,0.08,,---,0.16,VWS V14.01,2013-04-12 10:18:00,
2013-04-12 07:19:00,51.3,50.4,28.38,South,180,5.8,6.3,97,0.08,,---,0.16,VWS V14.01,2013-04-12 10:19:00,
2013-04-12 07:20:00,51.3,50.4,28.38,South,180,5.8,5.8,97,0.08,,---,0.16,VWS V14.01,2013-04-12 10:20:00,
2013-04-12 07:21:00,51.3,50.4,28.38,South,180,5.8,5.8,97,0.08,,---,0.16,VWS V14.01,2013-04-12 10:21:00,
2013-04-12 07:22:00,51.3,50.4,28.38,South,180,5.8,5.8,97,0.08,,---,0.16,VWS V14.01,2013-04-12 10:22:00,
2013-04-12 07:23:00,51.3,50.4,28.38,South,180,5.8,5.8,97,0.08,,---,0.16,VWS V14.01,2013-04-12 10:23:00,
2013-04-12 07:24:00,51.3,50.4,28.38,South,180,5.8,5.8,97,0.08,,---,0.16,VWS V14.01,2013-04-12 10:24:00,
2013-04-12 07:25:00,51.1,50.3,28.35,South,180,5.8,5.8,97,0.08,,---,0.16,VWS V14.01,2013-04-12 10:25:00,
2013-04-12 07:26:00,51.3,50.4,28.35,South,180,5.8,5.8,97,0.08,,---,0.16,VWS V14.01,2013-04-12 10:26:00,
2013-04-12 07:27:00,51.1,50.3,28.35,South,180,5.8,5.8,97,0.08,,---,0.16,VWS V14.01,2013-04-12 10:27:00,
2013-04-12 07:28:00,51.1,50.3,28.35,South,180,5.8,5.8,97,0.08,,---,0.16,VWS V14.01,2013-04-12 10:28:00,
2013-04-12 07:29:00,51.1,50.3,28.35,South,180,5.8,5.8,97,0.08,,---,0.16,VWS V14.01,2013-04-12 10:29:00,
2013-04-12 07:30:00,51.1,0.0,28.35,NE,45,4.3,4.3,96,0.08,,---,0.16,VWS V14.01,2013-04-12 10:30:00,
2013-04-12 07:31:00,51.1,50.3,28.35,ESE,112,2.7,3.8,97,0.08,,---,0.16,VWS V14.01,2013-04-12 10:31:00,
2013-04-12 07:32:00,51.1,0.0,28.35,East,90,1.6,2.7,96,0.08,,---,0.16,VWS V14.01,2013-04-12 10:32:00,
2013-04-12 07:33:00,51.1,0.0,28.35,ESE,112,3.4,4.3,96,0.08,,---,0.16,VWS V14.01,2013-04-12 10:33:00,
2013-04-12 07:34:00,51.1,0.0,28.35,East,90,1.6,3.4,96,0.08,,---,0.16,VWS V14.01,2013-04-12 10:34:00,
2013-04-12 07:35:00,51.1,50.3,28.35,SE,135,4.0,4.0,97,0.08,,---,0.16,VWS V14.01,2013-04-12 10:35:00,
2013-04-12 07:36:00,51.1,50.3,28.35,East,90,2.5,2.5,97,0.08,,---,0.16,VWS V14.01,2013-04-12 10:36:00,
2013-04-12 07:37:00,51.1,50.3,28.35,SE,135,4.0,6.9,97,0.08,,---,0.16,VWS V14.01,2013-04-12 10:37:00,
2013-04-12 07:38:00,51.1,50.3,28.35,ESE,112,3.6,4.3,97,0.08,,---,0.16,VWS V14.01,2013-04-12 10:38:00,
2013-04-12 07:39:00,51.3,50.4,28.35,ESE,112,6.3,6.3,97,0.04,,---,0.16,VWS V14.01,2013-04-12 10:39:00,
2013-04-12 07:40:00,51.3,50.4,28.35,East,90,1.6,1.6,97,0.04,,---,0.16,VWS V14.01,2013-04-12 10:40:00,
2013-04-12 07:41:00,51.3,50.4,28.35,SE,135,4.5,6.3,97,0.04,,---,0.16,VWS V14.01,2013-04-12 10:41:00,
2013-04-12 07:42:00,51.3,50.4,28.35,East,90,1.6,4.5,97,0.04,,---,0.16,VWS V14.01,2013-04-12 10:42:00,
2013-04-12 07:43:00,51.3,50.4,28.35,East,90,2.9,2.9,97,0.04,,---,0.16,VWS V14.01,2013-04-12 10:43:00,
2013-04-12 07:44:00,51.1,50.3,28.35,SE,135,3.8,3.8,97,0.04,,---,0.16,VWS V14.01,2013-04-12 10:44:00,
2013-04-12 07:45:00,51.1,50.3,28.35,East,90,3.1,3.1,97,0.04,,---,0.16,VWS V14.01,2013-04-12 10:45:00,
2013-04-12 07:46:00,51.1,50.3,28.35,NE,45,2.9,4.5,97,0.04,,---,0.16,VWS V14.01,2013-04-12 10:46:00,
2013-04-12 07:47:00,51.1,50.3,28.35,East,90,3.1,3.1,97,0.04,,---,0.16,VWS V14.01,2013-04-12 10:47:00,
2013-04-12 07:48:00,51.1,50.3,28.35,East,90,1.6,7.4,97,0.04,,---,0.16,VWS V14.01,2013-04-12 10:48:00,
2013-04-12 07:49:00,51.1,50.3,28.35,East,90,6.5,6.5,97,0.04,,---,0.16,VWS V14.01,2013-04-12 10:49:00,
2013-04-12 07:50:00,51.1,50.3,28.35,SE,135,6.3,6.3,97,0.04,,---,0.16,VWS V14.01,2013-04-12 10:50:00,
2013-04-12 07:51:00,51.1,50.3,28.35,East,90,2.5,2.9,97,0.04,,---,0.16,VWS V14.01,2013-04-12 10:51:00,
2013-04-12 07:52:00,51.1,50.3,28.35,East,90,2.5,2.5,97,0.04,,---,0.16,VWS V14.01,2013-04-12 10:52:00,
2013-04-12 07:53:00,51.1,50.3,28.35,NE,45,0.9,6.3,97,0.04,,---,0.16,VWS V14.01,2013-04-12 10:53:00,
2013-04-12 07:54:00,51.1,50.3,28.35,East,90,3.8,3.8,97,0.04,,---,0.16,VWS V14.01,2013-04-12 10:54:00,
2013-04-12 07:55:00,51.1,50.3,28.35,WSW,248,4.0,4.0,97,0.09,,---,0.21,VWS V14.01,2013-04-12 10:55:00,
2013-04-12 07:56:00,51.1,50.3,28.35,East,90,2.9,3.4,97,0.04,,---,0.16,VWS V14.01,2013-04-12 10:56:00,
2013-04-12 07:57:00,51.1,50.3,28.35,WSW,248,4.0,4.0,97,0.09,,---,0.21,VWS V14.01,2013-04-12 10:57:00,
2013-04-12 07:58:00,51.1,50.3,28.35,North,0,1.3,4.0,97,0.09,,---,0.21,VWS V14.01,2013-04-12 10:58:00,
2013-04-12 07:59:00,51.1,50.3,28.35,NNW,338,1.6,2.5,97,0.09,,---,0.21,VWS V14.01,2013-04-12 10:59:00,
2013-04-12 08:00:00,51.1,50.3,28.35,East,90,4.0,4.0,97,0.09,,---,0.21,VWS V14.01,2013-04-12 11:00:00,
2013-04-12 08:01:00,51.1,50.3,28.35,East,90,2.9,2.9,97,0.09,,---,0.21,VWS V14.01,2013-04-12 11:01:00,
2013-04-12 08:02:00,51.1,50.3,28.35,SE,135,3.4,3.8,97,0.09,,---,0.21,VWS V14.01,2013-04-12 11:02:00,
2013-04-12 08:03:00,51.1,50.3,28.35,SW,225,2.2,4.0,97,0.09,,---,0.21,VWS V14.01,2013-04-12 11:03:00,
2013-04-12 08:04:00,51.1,50.3,28.35,SE,135,2.7,7.4,97,0.09,,---,0.21,VWS V14.01,2013-04-12 11:04:00,
2013-04-12 08:05:00,51.3,50.4,28.35,SE,135,6.5,6.5,97,0.09,,---,0.21,VWS V14.01,2013-04-12 11:05:00,
2013-04-12 08:06:00,51.3,50.4,28.35,East,90,4.3,6.3,97,0.09,,---,0.21,VWS V14.01,2013-04-12 11:06:00,
2013-04-12 08:07:00,51.3,50.4,28.35,East,90,2.9,4.3,97,0.09,,---,0.21,VWS V14.01,2013-04-12 11:07:00,
2013-04-12 08:08:00,51.3,50.4,28.35,East,90,2.9,6.5,97,0.09,,---,0.21,VWS V14.01,2013-04-12 11:08:00,
2013-04-12 08:09:00,51.3,50.2,28.35,East,90,2.5,4.0,96,0.09,,---,0.21,VWS V14.01,2013-04-12 11:09:00,
2013-04-12 08:10:00,51.3,50.2,28.38,East,90,3.1,3.1,96,0.09,,---,0.21,VWS V14.01,2013-04-12 11:10:00,
2013-04-12 08:11:00,51.3,50.2,28.38,East,90,3.6,4.3,96,0.09,,---,0.21,VWS V14.01,2013-04-12 11:11:00,
2013-04-12 08:12:00,51.3,50.2,28.38,East,90,3.1,6.5,96,0.09,,---,0.21,VWS V14.01,2013-04-12 11:12:00,
2013-04-12 08:13:00,51.3,50.2,28.38,East,90,5.6,6.5,96,0.09,,---,0.21,VWS V14.01,2013-04-12 11:13:00,
2013-04-12 08:14:00,51.3,50.2,28.38,SE,135,5.4,5.6,96,0.09,,---,0.21,VWS V14.01,2013-04-12 11:14:00,
2013-04-12 08:15:00,51.3,50.2,28.38,SSE,158,7.2,7.2,96,0.05,,---,0.21,VWS V14.01,2013-04-12 11:15:00,
2013-04-12 08:16:00,51.4,50.3,28.38,East,90,3.4,3.4,96,0.05,,---,0.21,VWS V14.01,2013-04-12 11:16:00,
2013-04-12 08:17:00,51.3,50.2,28.38,East,90,4.7,6.0,96,0.05,,---,0.21,VWS V14.01,2013-04-12 11:17:00,
2013-04-12 08:18:00,51.3,50.2,28.38,East,90,6.9,7.2,96,0.05,,---,0.21,VWS V14.01,2013-04-12 11:18:00,
2013-04-12 08:19:00,51.3,50.2,28.38,East,90,8.5,8.5,96,0.09,,---,0.25,VWS V14.01,2013-04-12 11:19:00,
2013-04-12 08:20:00,51.3,50.2,28.38,East,90,2.7,2.7,96,0.09,,---,0.25,VWS V14.01,2013-04-12 11:20:00,
2013-04-12 08:21:00,51.3,50.2,28.38,East,90,2.9,4.7,96,0.09,,---,0.25,VWS V14.01,2013-04-12 11:21:00,
2013-04-12 08:22:00,51.3,50.2,28.38,East,90,2.7,2.9,96,0.09,,---,0.25,VWS V14.01,2013-04-12 11:22:00,
2013-04-12 08:23:00,51.3,50.2,28.38,East,90,8.7,8.7,96,0.09,,---,0.25,VWS V14.01,2013-04-12 11:23:00,
2013-04-12 08:24:00,51.4,50.3,28.38,SW,225,2.7,13.0,96,0.09,,---,0.25,VWS V14.01,2013-04-12 11:24:00,
2013-04-12 08:25:00,51.4,50.3,28.38,ESE,112,2.9,3.8,96,0.09,,---,0.25,VWS V14.01,2013-04-12 11:25:00,
2013-04-12 08:26:00,51.4,50.3,28.38,East,90,2.5,4.7,96,0.09,,---,0.25,VWS V14.01,2013-04-12 11:26:00,
2013-04-12 08:27:00,51.4,50.3,28.38,SE,135,3.8,4.3,96,0.09,,---,0.25,VWS V14.01,2013-04-12 11:27:00,
2013-04-12 08:28:00,51.4,50.3,28.38,East,90,1.6,3.8,96,0.09,,---,0.25,VWS V14.01,2013-04-12 11:28:00,
2013-04-12 08:29:00,51.3,50.2,28.38,East,90,1.1,3.1,96,0.09,,---,0.25,VWS V14.01,2013-04-12 11:29:00,
2013-04-12 08:30:00,51.3,50.2,28.38,East,90,3.1,3.1,96,0.09,,---,0.25,VWS V14.01,2013-04-12 11:30:00,
2013-04-12 08:31:00,51.1,50.0,28.38,East,90,3.1,3.1,96,0.09,,---,0.25,VWS V14.01,2013-04-12 11:31:00,
2013-04-12 08:32:00,51.3,50.2,28.38,East,90,3.1,3.1,96,0.09,,---,0.25,VWS V14.01,2013-04-12 11:32:00,
2013-04-12 08:33:00,51.1,50.0,28.38,ESE,112,4.0,4.3,96,0.09,,---,0.25,VWS V14.01,2013-04-12 11:33:00,
2013-04-12 08:34:00,51.1,50.0,28.38,ESE,112,7.2,7.2,96,0.09,,---,0.25,VWS V14.01,2013-04-12 11:34:00,
2013-04-12 08:35:00,51.3,50.2,28.38,East,90,2.9,2.9,96,0.09,,---,0.25,VWS V14.01,2013-04-12 11:35:00,
2013-04-12 08:36:00,51.3,50.2,28.38,East,90,5.4,5.4,96,0.09,,---,0.25,VWS V14.01,2013-04-12 11:36:00,
2013-04-12 08:37:00,51.3,50.2,28.38,SE,135,2.7,5.6,96,0.09,,---,0.25,VWS V14.01,2013-04-12 11:37:00,
2013-04-12 08:38:00,51.3,50.2,28.38,SE,135,2.0,2.9,96,0.17,,---,0.33,VWS V14.01,2013-04-12 11:38:00,
2013-04-12 08:39:00,51.1,50.0,28.38,ENE,68,2.7,2.7,96,0.17,,---,0.33,VWS V14.01,2013-04-12 11:39:00,
2013-04-12 08:40:00,51.1,50.0,28.38,East,90,4.0,5.8,96,0.17,,---,0.33,VWS V14.01,2013-04-12 11:40:00,
2013-04-12 08:41:00,51.1,50.0,28.38,East,90,2.9,3.8,96,0.17,,---,0.33,VWS V14.01,2013-04-12 11:41:00,
2013-04-12 08:42:00,51.1,50.0,28.38,South,180,5.8,5.8,96,0.17,,---,0.33,VWS V14.01,2013-04-12 11:42:00,
2013-04-12 08:43:00,51.1,50.0,28.38,ESE,112,3.4,5.8,96,0.17,,---,0.33,VWS V14.01,2013-04-12 11:43:00,
2013-04-12 08:44:00,51.1,50.0,28.38,ESE,112,9.8,10.7,96,0.17,,---,0.33,VWS V14.01,2013-04-12 11:44:00,
2013-04-12 08:45:00,51.3,50.2,28.38,East,90,4.9,8.5,96,0.17,,---,0.33,VWS V14.01,2013-04-12 11:45:00,
2013-04-12 08:46:00,51.3,50.2,28.38,SE,135,4.9,8.5,96,0.17,,---,0.33,VWS V14.01,2013-04-12 11:46:00,
2013-04-12 08:47:00,51.3,50.2,28.38,East,90,4.9,8.5,96,0.17,,---,0.33,VWS V14.01,2013-04-12 11:47:00,
2013-04-12 08:48:00,51.3,50.2,28.38,SE,135,5.6,5.6,96,0.17,,---,0.33,VWS V14.01,2013-04-12 11:48:00,
2013-04-12 08:49:00,51.3,50.2,28.38,ESE,112,1.6,5.6,96,0.17,,---,0.33,VWS V14.01,2013-04-12 11:49:00,
2013-04-12 08:50:00,51.3,50.2,28.38,East,90,8.5,8.5,96,0.17,,---,0.33,VWS V14.01,2013-04-12 11:50:00,
2013-04-12 08:51:00,51.3,50.2,28.38,East,90,8.5,8.7,96,0.17,,---,0.33,VWS V14.01,2013-04-12 11:51:00,
2013-04-12 08:52:00,51.3,50.2,28.38,East,90,8.5,8.5,96,0.17,,---,0.33,VWS V14.01,2013-04-12 11:52:00,
2013-04-12 08:53:00,51.3,50.2,28.38,ESE,112,4.9,8.5,96,0.17,,---,0.33,VWS V14.01,2013-04-12 11:53:00,
2013-04-12 08:54:00,51.3,50.2,28.38,East,90,4.3,4.9,96,0.17,,---,0.33,VWS V14.01,2013-04-12 11:54:00,
2013-04-12 08:55:00,51.3,50.2,28.38,SE,135,4.0,5.8,96,0.12,,---,0.33,VWS V14.01,2013-04-12 11:55:00,
2013-04-12 08:56:00,51.3,50.2,28.38,SE,135,8.1,10.1,96,0.17,,---,0.33,VWS V14.01,2013-04-12 11:56:00,
2013-04-12 08:57:00,51.3,50.2,28.38,East,90,5.8,8.1,96,0.17,,---,0.33,VWS V14.01,2013-04-12 11:57:00,
2013-04-12 08:58:00,51.3,50.2,28.38,SE,135,4.0,5.8,96,0.12,,---,0.33,VWS V14.01,2013-04-12 11:58:00,
2013-04-12 08:59:00,51.3,50.2,28.38,East,90,6.0,6.0,96,0.12,,---,0.33,VWS V14.01,2013-04-12 11:59:00,
2013-04-12 09:00:00,51.1,50.0,28.38,SE,135,5.4,5.4,96,0.16,,---,0.37,VWS V14.01,2013-04-12 12:00:00,
2013-04-12 09:01:00,51.1,50.0,28.38,SE,135,3.8,3.8,96,0.16,,---,0.37,VWS V14.01,2013-04-12 12:01:00,
2013-04-12 09:02:00,51.1,50.0,28.38,SE,135,5.4,5.6,96,0.16,,---,0.37,VWS V14.01,2013-04-12 12:02:00,
2013-04-12 09:03:00,51.1,50.0,28.38,East,90,7.6,7.6,96,0.16,,---,0.37,VWS V14.01,2013-04-12 12:03:00,
2013-04-12 09:04:00,51.1,49.7,28.38,East,90,2.7,8.5,95,0.16,,---,0.37,VWS V14.01,2013-04-12 12:04:00,
2013-04-12 09:05:00,51.1,49.7,28.38,SE,135,5.4,5.4,95,0.16,,---,0.37,VWS V14.01,2013-04-12 12:05:00,
2013-04-12 09:06:00,51.1,49.7,28.38,East,90,11.4,11.4,95,0.16,,---,0.37,VWS V14.01,2013-04-12 12:06:00,
2013-04-12 09:07:00,51.1,49.7,28.38,SE,135,5.4,11.4,95,0.16,,---,0.37,VWS V14.01,2013-04-12 12:07:00,
2013-04-12 09:08:00,51.1,49.7,28.38,ESE,112,8.1,8.1,95,0.16,,---,0.37,VWS V14.01,2013-04-12 12:08:00,
2013-04-12 09:09:00,51.1,49.7,28.38,ESE,112,8.1,8.1,95,0.16,,---,0.37,VWS V14.01,2013-04-12 12:09:00,
2013-04-12 09:10:00,50.9,49.5,28.35,SE,135,5.4,5.4,95,0.16,,---,0.37,VWS V14.01,2013-04-12 12:10:00,
2013-04-12 09:11:00,51.1,49.7,28.35,SE,135,5.8,9.8,95,0.16,,---,0.37,VWS V14.01,2013-04-12 12:11:00,
2013-04-12 09:12:00,50.9,49.5,28.35,SE,135,5.4,5.8,95,0.16,,---,0.37,VWS V14.01,2013-04-12 12:12:00,
2013-04-12 09:13:00,50.9,49.5,28.35,SE,135,5.4,5.4,95,0.16,,---,0.37,VWS V14.01,2013-04-12 12:13:00,
2013-04-12 09:14:00,50.9,49.5,28.35,SE,135,3.4,5.4,95,0.16,,---,0.37,VWS V14.01,2013-04-12 12:14:00,
2013-04-12 09:15:00,50.9,49.5,28.35,SE,135,10.1,10.1,95,0.16,,---,0.37,VWS V14.01,2013-04-12 12:15:00,
2013-04-12 09:16:00,50.9,49.5,28.35,SE,135,3.4,3.4,95,0.16,,---,0.37,VWS V14.01,2013-04-12 12:16:00,
2013-04-12 09:17:00,50.9,49.5,28.35,SE,135,10.1,10.1,95,0.16,,---,0.37,VWS V14.01,2013-04-12 12:17:00,
2013-04-12 09:18:00,50.9,49.5,28.35,East,90,4.9,10.1,95,0.16,,---,0.37,VWS V14.01,2013-04-12 12:18:00,
2013-04-12 09:19:00,50.9,49.5,28.35,ESE,112,3.1,7.8,95,0.16,,---,0.37,VWS V14.01,2013-04-12 12:19:00,
2013-04-12 09:20:00,50.7,49.3,28.35,SE,135,8.1,8.1,95,0.12,,---,0.37,VWS V14.01,2013-04-12 12:20:00,
2013-04-12 09:21:00,50.7,49.3,28.35,North,0,4.3,4.3,95,0.12,,---,0.37,VWS V14.01,2013-04-12 12:21:00,
2013-04-12 09:22:00,50.7,49.3,28.35,SE,135,8.1,8.1,95,0.12,,---,0.37,VWS V14.01,2013-04-12 12:22:00,
2013-04-12 09:23:00,50.7,49.3,28.35,SE,135,8.1,8.1,95,0.12,,---,0.37,VWS V14.01,2013-04-12 12:23:00,
2013-04-12 09:24:00,50.9,49.5,28.35,SE,135,10.3,10.5,95,0.16,,---,0.41,VWS V14.01,2013-04-12 12:24:00,
2013-04-12 09:25:00,50.7,49.3,28.38,South,180,6.3,12.3,95,0.16,,---,0.41,VWS V14.01,2013-04-12 12:25:00,
2013-04-12 09:26:00,50.9,49.5,28.38,East,90,12.3,12.3,95,0.16,,---,0.41,VWS V14.01,2013-04-12 12:26:00,
2013-04-12 09:27:00,50.7,49.3,28.38,South,180,6.3,12.3,95,0.16,,---,0.41,VWS V14.01,2013-04-12 12:27:00,
2013-04-12 09:28:00,50.7,49.3,28.38,ESE,112,7.6,10.3,95,0.16,,---,0.41,VWS V14.01,2013-04-12 12:28:00,
2013-04-12 09:29:00,50.7,49.3,28.38,East,90,4.3,7.6,95,0.16,,---,0.41,VWS V14.01,2013-04-12 12:29:00,
2013-04-12 09:30:00,50.7,49.3,28.38,ESE,112,7.4,7.4,95,0.16,,---,0.41,VWS V14.01,2013-04-12 12:30:00,
2013-04-12 09:31:00,50.7,49.3,28.38,East,90,6.5,6.5,95,0.16,,---,0.41,VWS V14.01,2013-04-12 12:31:00,
2013-04-12 09:32:00,50.7,49.3,28.38,ESE,112,7.4,8.5,95,0.16,,---,0.41,VWS V14.01,2013-04-12 12:32:00,
2013-04-12 09:33:00,50.7,49.3,28.38,SE,135,5.4,7.4,95,0.16,,---,0.41,VWS V14.01,2013-04-12 12:33:00,
2013-04-12 09:34:00,50.7,49.3,28.38,ESE,112,5.4,5.4,95,0.16,,---,0.41,VWS V14.01,2013-04-12 12:34:00,
2013-04-12 09:35:00,50.7,49.3,28.38,East,90,5.8,8.5,95,0.16,,---,0.41,VWS V14.01,2013-04-12 12:35:00,
2013-04-12 09:36:00,50.7,49.3,28.38,East,90,17.0,17.0,95,0.16,,---,0.41,VWS V14.01,2013-04-12 12:36:00,
2013-04-12 09:37:00,50.7,49.3,28.38,ESE,112,8.5,17.0,95,0.16,,---,0.41,VWS V14.01,2013-04-12 12:37:00,
2013-04-12 09:38:00,50.7,49.3,28.38,ESE,112,7.4,8.7,95,0.16,,---,0.41,VWS V14.01,2013-04-12 12:38:00,
2013-04-12 09:39:00,50.7,49.3,28.38,ESE,112,4.3,7.4,95,0.08,,---,0.41,VWS V14.01,2013-04-12 12:39:00,
2013-04-12 09:40:00,50.7,49.3,28.38,East,90,6.0,7.8,95,0.08,,---,0.41,VWS V14.01,2013-04-12 12:40:00,
2013-04-12 09:41:00,50.7,49.3,28.38,SE,135,7.8,7.8,95,0.08,,---,0.41,VWS V14.01,2013-04-12 12:41:00,
2013-04-12 09:42:00,50.7,49.3,28.38,East,90,6.0,7.8,95,0.08,,---,0.41,VWS V14.01,2013-04-12 12:42:00,
2013-04-12 09:43:00,50.7,49.3,28.38,East,90,8.7,8.7,95,0.08,,---,0.41,VWS V14.01,2013-04-12 12:43:00,
2013-04-12 09:44:00,50.7,49.3,28.38,East,90,3.6,8.7,95,0.08,,---,0.41,VWS V14.01,2013-04-12 12:44:00,
2013-04-12 09:45:00,50.5,49.2,28.38,SE,135,2.7,2.7,95,0.08,,---,0.41,VWS V14.01,2013-04-12 12:45:00,
2013-04-12 09:46:00,50.5,49.2,28.38,East,90,3.8,6.0,95,0.08,,---,0.41,VWS V14.01,2013-04-12 12:46:00,
2013-04-12 09:47:00,50.5,49.2,28.38,SE,135,2.7,3.8,95,0.08,,---,0.41,VWS V14.01,2013-04-12 12:47:00,
2013-04-12 09:48:00,50.5,49.2,28.38,ESE,112,7.6,7.6,95,0.08,,---,0.41,VWS V14.01,2013-04-12 12:48:00,
2013-04-12 09:49:00,50.5,49.2,28.38,ESE,112,9.6,9.6,95,0.08,,---,0.41,VWS V14.01,2013-04-12 12:49:00,
2013-04-12 09:50:00,50.5,49.2,28.38,SE,135,6.0,8.5,95,0.08,,---,0.41,VWS V14.01,2013-04-12 12:50:00,
2013-04-12 09:51:00,50.5,49.2,28.38,South,180,8.5,8.5,95,0.08,,---,0.41,VWS V14.01,2013-04-12 12:51:00,
2013-04-12 09:52:00,50.5,49.2,28.38,SE,135,6.0,8.5,95,0.08,,---,0.41,VWS V14.01,2013-04-12 12:52:00,
2013-04-12 09:53:00,50.5,49.2,28.38,SE,135,4.3,6.0,95,0.08,,---,0.41,VWS V14.01,2013-04-12 12:53:00,
2013-04-12 09:54:00,50.5,49.2,28.38,SE,135,4.3,4.3,95,0.08,,---,0.41,VWS V14.01,2013-04-12 12:54:00,
2013-04-12 09:55:00,50.5,48.9,28.35,SE,135,4.7,4.7,94,0.08,,---,0.41,VWS V14.01,2013-04-12 12:55:00,
2013-04-12 09:56:00,50.5,49.2,28.35,SE,135,4.7,4.7,95,0.08,,---,0.41,VWS V14.01,2013-04-12 12:56:00,
2013-04-12 09:57:00,50.5,48.9,28.35,SE,135,4.7,4.7,94,0.08,,---,0.41,VWS V14.01,2013-04-12 12:57:00,
2013-04-12 09:58:00,50.5,48.9,28.35,ESE,112,4.3,6.3,94,0.08,,---,0.41,VWS V14.01,2013-04-12 12:58:00,
2013-04-12 09:59:00,50.5,48.9,28.35,East,90,7.8,7.8,94,0.08,,---,0.41,VWS V14.01,2013-04-12 12:59:00,
2013-04-12 10:00:00,50.4,49.0,28.35,ESE,112,11.0,11.0,95,0.04,,---,0.41,VWS V14.01,2013-04-12 13:00:00,
2013-04-12 10:01:00,50.4,49.0,28.35,ESE,112,8.5,8.5,95,0.04,,---,0.41,VWS V14.01,2013-04-12 13:01:00,
2013-04-12 10:02:00,50.4,49.0,28.35,ESE,112,11.0,12.3,95,0.04,,---,0.41,VWS V14.01,2013-04-12 13:02:00,
2013-04-12 10:03:00,50.5,48.9,28.35,ESE,112,6.0,11.0,94,0.04,,---,0.41,VWS V14.01,2013-04-12 13:03:00,
2013-04-12 10:04:00,50.5,48.9,28.35,SE,135,4.3,6.0,94,0.04,,---,0.41,VWS V14.01,2013-04-12 13:04:00,
2013-04-12 10:05:00,50.4,49.0,28.35,East,90,6.5,6.5,95,0.04,,---,0.41,VWS V14.01,2013-04-12 13:05:00,
2013-04-12 10:06:00,50.4,48.7,28.35,SE,135,3.8,6.5,94,0.04,,---,0.41,VWS V14.01,2013-04-12 13:06:00,
2013-04-12 10:07:00,50.4,49.0,28.35,East,90,6.5,6.5,95,0.04,,---,0.41,VWS V14.01,2013-04-12 13:07:00,
2013-04-12 10:08:00,50.2,48.8,28.35,East,90,7.4,7.4,95,0.04,,---,0.41,VWS V14.01,2013-04-12 13:08:00,
2013-04-12 10:09:00,50.2,48.8,28.35,ESE,112,4.9,7.4,95,0.04,,---,0.41,VWS V14.01,2013-04-12 13:09:00,
2013-04-12 10:10:00,50.2,48.8,28.35,ESE,112,4.5,4.5,95,0.04,,---,0.41,VWS V14.01,2013-04-12 13:10:00,
2013-04-12 10:11:00,50.2,48.8,28.35,East,90,5.4,5.4,95,0.04,,---,0.41,VWS V14.01,2013-04-12 13:11:00,
2013-04-12 10:12:00,50.2,48.8,28.35,ESE,112,4.5,8.7,95,0.04,,---,0.41,VWS V14.01,2013-04-12 13:12:00,
2013-04-12 10:13:00,50.4,49.0,28.35,NE,45,7.2,7.2,95,0.04,,---,0.41,VWS V14.01,2013-04-12 13:13:00,
2013-04-12 10:14:00,50.4,49.0,28.35,NE,45,7.2,7.2,95,0.04,,---,0.41,VWS V14.01,2013-04-12 13:14:00,
2013-04-12 10:15:00,50.4,49.0,28.35,East,90,3.6,3.6,95,0.04,,---,0.41,VWS V14.01,2013-04-12 13:15:00,
2013-04-12 10:16:00,50.4,49.0,28.35,SE,135,8.1,8.1,95,0.04,,---,0.41,VWS V14.01,2013-04-12 13:16:00,
2013-04-12 10:17:00,50.4,49.0,28.35,East,90,3.6,8.1,95,0.04,,---,0.41,VWS V14.01,2013-04-12 13:17:00,
2013-04-12 10:18:00,50.5,49.2,28.35,SE,135,4.7,4.7,95,0.04,,---,0.41,VWS V14.01,2013-04-12 13:18:00,
2013-04-12 10:19:00,50.5,49.2,28.35,East,90,3.1,4.7,95,0.04,,---,0.41,VWS V14.01,2013-04-12 13:19:00,
2013-04-12 10:20:00,50.5,49.2,28.35,SE,135,8.1,8.1,95,0.21,,---,0.58,VWS V14.01,2013-04-12 13:20:00,
2013-04-12 10:21:00,50.5,49.2,28.35,NE,45,1.3,1.3,95,0.21,,---,0.58,VWS V14.01,2013-04-12 13:21:00,
2013-04-12 10:22:00,50.5,49.2,28.35,SE,135,8.1,8.1,95,0.21,,---,0.58,VWS V14.01,2013-04-12 13:22:00,
2013-04-12 10:23:00,50.5,49.2,28.35,SE,135,8.1,8.1,95,0.21,,---,0.58,VWS V14.01,2013-04-12 13:23:00,
2013-04-12 10:24:00,50.5,49.2,28.35,NE,45,2.0,8.1,95,0.21,,---,0.58,VWS V14.01,2013-04-12 13:24:00,
2013-04-12 10:25:00,50.7,49.6,28.35,East,90,2.0,2.0,96,0.17,,---,0.58,VWS V14.01,2013-04-12 13:25:00,
2013-04-12 10:26:00,50.7,49.3,28.35,East,90,2.9,2.9,95,0.17,,---,0.58,VWS V14.01,2013-04-12 13:26:00,
2013-04-12 10:27:00,50.7,49.6,28.35,East,90,2.0,2.9,96,0.17,,---,0.58,VWS V14.01,2013-04-12 13:27:00,
2013-04-12 10:28:00,50.7,49.6,28.35,East,90,2.0,2.0,96,0.17,,---,0.58,VWS V14.01,2013-04-12 13:28:00,
2013-04-12 10:29:00,50.7,49.6,28.35,East,90,2.0,2.0,96,0.17,,---,0.58,VWS V14.01,2013-04-12 13:29:00,
2013-04-12 10:30:00,50.9,49.8,28.35,East,90,1.6,1.6,96,0.17,,---,0.58,VWS V14.01,2013-04-12 13:30:00,
2013-04-12 10:31:00,50.9,49.8,28.35,East,90,1.6,1.6,96,0.17,,---,0.58,VWS V14.01,2013-04-12 13:31:00,
2013-04-12 10:32:00,50.9,49.8,28.35,East,90,1.6,1.6,96,0.17,,---,0.58,VWS V14.01,2013-04-12 13:32:00,
2013-04-12 10:33:00,50.7,49.3,28.35,East,90,1.6,1.6,95,0.17,,---,0.58,VWS V14.01,2013-04-12 13:33:00,
2013-04-12 10:34:00,50.9,49.5,28.35,East,90,1.6,1.6,95,0.17,,---,0.58,VWS V14.01,2013-04-12 13:34:00,
2013-04-12 10:35:00,50.9,49.5,28.35,East,90,3.6,3.6,95,0.17,,---,0.58,VWS V14.01,2013-04-12 13:35:00,
2013-04-12 10:36:00,50.9,49.5,28.35,SE,135,6.7,6.7,95,0.17,,---,0.58,VWS V14.01,2013-04-12 13:36:00,
2013-04-12 10:37:00,50.9,49.5,28.35,East,90,3.6,6.7,95,0.17,,---,0.58,VWS V14.01,2013-04-12 13:37:00,
2013-04-12 10:38:00,50.9,49.5,28.35,East,90,3.6,3.6,95,0.17,,---,0.58,VWS V14.01,2013-04-12 13:38:00,
2013-04-12 10:39:00,50.9,49.5,28.35,East,90,3.6,3.6,95,0.17,,---,0.58,VWS V14.01,2013-04-12 13:39:00,
2013-04-12 10:40:00,51.1,49.7,28.32,East,90,1.6,1.6,95,0.17,,---,0.58,VWS V14.01,2013-04-12 13:40:00,
2013-04-12 10:41:00,50.9,49.5,28.32,SE,135,2.2,3.8,95,0.17,,---,0.58,VWS V14.01,2013-04-12 13:41:00,
2013-04-12 10:42:00,51.1,49.7,28.32,East,90,1.6,2.2,95,0.17,,---,0.58,VWS V14.01,2013-04-12 13:42:00,
2013-04-12 10:43:00,51.1,49.7,28.32,East,90,1.6,1.6,95,0.17,,---,0.58,VWS V14.01,2013-04-12 13:43:00,
2013-04-12 10:44:00,51.1,49.7,28.32,East,90,1.6,1.6,95,0.17,,---,0.58,VWS V14.01,2013-04-12 13:44:00,
2013-04-12 10:45:00,51.3,49.6,28.32,NNE,22,4.7,4.7,94,0.17,,---,0.58,VWS V14.01,2013-04-12 13:45:00,
2013-04-12 10:46:00,51.1,49.4,28.32,East,90,4.0,6.5,94,0.17,,---,0.58,VWS V14.01,2013-04-12 13:46:00,
2013-04-12 10:47:00,51.3,49.6,28.32,NNE,22,4.7,4.7,94,0.17,,---,0.58,VWS V14.01,2013-04-12 13:47:00,
2013-04-12 10:48:00,51.3,49.6,28.32,NNE,22,4.7,4.7,94,0.17,,---,0.58,VWS V14.01,2013-04-12 13:48:00,
2013-04-12 10:49:00,51.3,49.6,28.32,ESE,112,8.5,8.5,94,0.17,,---,0.58,VWS V14.01,2013-04-12 13:49:00,
2013-04-12 10:50:00,51.3,49.6,28.32,East,90,9.4,9.4,94,0.17,,---,0.58,VWS V14.01,2013-04-12 13:50:00,
2013-04-12 10:51:00,51.3,49.6,28.32,East,90,4.0,6.0,94,0.17,,---,0.58,VWS V14.01,2013-04-12 13:51:00,
2013-04-12 10:52:00,51.3,49.6,28.32,East,90,9.4,9.4,94,0.17,,---,0.58,VWS V14.01,2013-04-12 13:52:00,
2013-04-12 10:53:00,51.3,49.6,28.32,East,90,9.4,9.4,94,0.17,,---,0.58,VWS V14.01,2013-04-12 13:53:00,
2013-04-12 10:54:00,51.3,49.9,28.32,East,90,9.4,9.4,95,0.17,,---,0.58,VWS V14.01,2013-04-12 13:54:00,
2013-04-12 10:55:00,51.4,50.1,28.32,NE,45,6.5,6.5,95,0.21,,---,0.62,VWS V14.01,2013-04-12 13:55:00,
2013-04-12 10:56:00,51.4,50.1,28.32,East,90,6.0,6.0,95,0.17,,---,0.58,VWS V14.01,2013-04-12 13:56:00,
2013-04-12 10:57:00,51.4,50.1,28.32,NE,45,6.5,6.5,95,0.17,,---,0.58,VWS V14.01,2013-04-12 13:57:00,
2013-04-12 10:58:00,51.6,50.2,28.32,ESE,112,10.5,10.5,95,0.21,,---,0.62,VWS V14.01,2013-04-12 13:58:00,
2013-04-12 10:59:00,51.6,50.2,28.32,ESE,112,10.5,10.5,95,0.21,,---,0.62,VWS V14.01,2013-04-12 13:59:00,
2013-04-12 11:00:00,51.6,50.0,28.32,ESE,112,2.7,7.4,94,0.21,,---,0.62,VWS V14.01,2013-04-12 14:00:00,
2013-04-12 11:01:00,51.6,50.0,28.32,SE,135,4.9,7.6,94,0.21,,---,0.62,VWS V14.01,2013-04-12 14:01:00,
2013-04-12 11:02:00,51.6,50.0,28.32,SE,135,7.4,7.4,94,0.21,,---,0.62,VWS V14.01,2013-04-12 14:02:00,
2013-04-12 11:03:00,51.6,50.0,28.32,SE,135,3.6,7.4,94,0.21,,---,0.62,VWS V14.01,2013-04-12 14:03:00,
2013-04-12 11:04:00,51.8,50.1,28.32,SE,135,3.6,3.6,94,0.21,,---,0.62,VWS V14.01,2013-04-12 14:04:00,
2013-04-12 11:05:00,51.8,50.1,28.32,North,0,6.5,6.5,94,0.21,,---,0.62,VWS V14.01,2013-04-12 14:05:00,
2013-04-12 11:06:00,51.8,50.1,28.32,North,0,6.5,6.5,94,0.21,,---,0.62,VWS V14.01,2013-04-12 14:06:00,
2013-04-12 11:07:00,51.8,50.1,28.32,North,0,6.5,6.5,94,0.21,,---,0.62,VWS V14.01,2013-04-12 14:07:00,
2013-04-12 11:08:00,51.8,50.1,28.32,ESE,112,2.9,6.5,94,0.21,,---,0.62,VWS V14.01,2013-04-12 14:08:00,
2013-04-12 11:09:00,51.6,50.0,28.32,ESE,112,2.9,2.9,94,0.21,,---,0.62,VWS V14.01,2013-04-12 14:09:00,
2013-04-12 11:10:00,51.8,50.1,28.32,NE,45,2.7,2.7,94,0.21,,---,0.62,VWS V14.01,2013-04-12 14:10:00,
2013-04-12 11:11:00,51.8,50.1,28.32,East,90,1.3,2.9,94,0.21,,---,0.62,VWS V14.01,2013-04-12 14:11:00,
2013-04-12 11:12:00,51.8,50.1,28.32,NE,45,2.7,2.7,94,0.21,,---,0.62,VWS V14.01,2013-04-12 14:12:00,
2013-04-12 11:13:00,51.8,50.1,28.32,NE,45,2.7,2.7,94,0.21,,---,0.62,VWS V14.01,2013-04-12 14:13:00,
2013-04-12 11:14:00,51.8,50.1,28.32,NE,45,2.7,2.7,94,0.21,,---,0.62,VWS V14.01,2013-04-12 14:14:00,
2013-04-12 11:15:00,51.6,50.0,28.32,East,90,3.4,3.4,94,0.21,,---,0.62,VWS V14.01,2013-04-12 14:15:00,
2013-04-12 11:16:00,51.6,50.0,28.32,East,90,4.0,4.0,94,0.21,,---,0.62,VWS V14.01,2013-04-12 14:16:00,
2013-04-12 11:17:00,51.6,50.0,28.32,East,90,3.4,4.0,94,0.21,,---,0.62,VWS V14.01,2013-04-12 14:17:00,
2013-04-12 11:18:00,51.6,50.0,28.32,East,90,7.4,7.4,94,0.21,,---,0.62,VWS V14.01,2013-04-12 14:18:00,
2013-04-12 11:19:00,51.4,49.8,28.32,ESE,112,6.0,7.4,94,0.21,,---,0.62,VWS V14.01,2013-04-12 14:19:00,
2013-04-12 11:20:00,51.4,49.8,28.32,East,90,8.1,8.1,94,0.04,,---,0.62,VWS V14.01,2013-04-12 14:20:00,
2013-04-12 11:21:00,51.4,49.8,28.32,East,90,2.5,2.5,94,0.21,,---,0.62,VWS V14.01,2013-04-12 14:21:00,
2013-04-12 11:22:00,51.4,49.8,28.32,East,90,8.1,8.1,94,0.04,,---,0.62,VWS V14.01,2013-04-12 14:22:00,
2013-04-12 11:23:00,51.4,49.8,28.32,East,90,4.0,8.1,94,0.04,,---,0.62,VWS V14.01,2013-04-12 14:23:00,
2013-04-12 11:24:00,51.4,50.1,28.32,SE,135,2.7,4.0,95,0.04,,---,0.62,VWS V14.01,2013-04-12 14:24:00,
2013-04-12 11:25:00,51.6,50.2,28.32,East,90,0.0,0.0,95,0.08,,---,0.66,VWS V14.01,2013-04-12 14:25:00,
2013-04-12 11:26:00,51.6,50.2,28.32,East,90,2.5,3.6,95,0.04,,---,0.62,VWS V14.01,2013-04-12 14:26:00,
2013-04-12 11:27:00,51.6,50.2,28.32,East,90,0.0,2.5,95,0.08,,---,0.66,VWS V14.01,2013-04-12 14:27:00,
2013-04-12 11:28:00,51.6,50.2,28.32,NE,45,2.7,2.7,95,0.08,,---,0.66,VWS V14.01,2013-04-12 14:28:00,
2013-04-12 11:29:00,51.6,50.2,28.32,NE,45,2.7,2.7,95,0.08,,---,0.66,VWS V14.01,2013-04-12 14:29:00,
2013-04-12 11:30:00,51.8,50.4,28.32,East,90,2.0,2.0,95,0.08,,---,0.66,VWS V14.01,2013-04-12 14:30:00,
2013-04-12 11:31:00,51.8,50.4,28.32,ENE,68,1.6,1.6,95,0.08,,---,0.66,VWS V14.01,2013-04-12 14:31:00,
2013-04-12 11:32:00,51.8,50.4,28.32,East,90,2.0,2.0,95,0.08,,---,0.66,VWS V14.01,2013-04-12 14:32:00,
2013-04-12 11:33:00,51.8,50.4,28.32,ESE,112,4.0,7.2,95,0.08,,---,0.66,VWS V14.01,2013-04-12 14:33:00,
2013-04-12 11:34:00,51.8,50.4,28.32,East,90,5.4,5.4,95,0.08,,---,0.66,VWS V14.01,2013-04-12 14:34:00,
2013-04-12 11:35:00,51.6,50.0,28.32,SE,135,5.4,5.4,94,0.08,,---,0.66,VWS V14.01,2013-04-12 14:35:00,
2013-04-12 11:36:00,51.8,50.1,28.32,SE,135,5.4,5.4,94,0.08,,---,0.66,VWS V14.01,2013-04-12 14:36:00,
2013-04-12 11:37:00,51.8,50.1,28.32,SE,135,5.4,5.4,94,0.08,,---,0.66,VWS V14.01,2013-04-12 14:37:00,
2013-04-12 11:38:00,51.6,50.0,28.32,NE,45,2.5,5.4,94,0.08,,---,0.66,VWS V14.01,2013-04-12 14:38:00,
2013-04-12 11:39:00,51.6,50.0,28.32,NE,45,2.5,2.5,94,0.08,,---,0.66,VWS V14.01,2013-04-12 14:39:00,
2013-04-12 11:40:00,51.8,50.1,28.32,East,90,2.0,4.3,94,0.08,,---,0.66,VWS V14.01,2013-04-12 14:40:00,
2013-04-12 11:41:00,51.6,50.2,28.32,ESE,112,3.8,3.8,95,0.08,,---,0.66,VWS V14.01,2013-04-12 14:41:00,
2013-04-12 11:42:00,51.8,50.1,28.32,SE,135,4.3,4.3,94,0.08,,---,0.66,VWS V14.01,2013-04-12 14:42:00,
2013-04-12 11:43:00,51.8,50.1,28.32,East,90,2.0,4.3,94,0.08,,---,0.66,VWS V14.01,2013-04-12 14:43:00,
2013-04-12 11:44:00,52.0,50.3,28.32,SE,135,1.6,2.0,94,0.08,,---,0.66,VWS V14.01,2013-04-12 14:44:00,
2013-04-12 11:45:00,52.0,50.3,28.32,SE,135,3.6,4.3,94,0.08,,---,0.66,VWS V14.01,2013-04-12 14:45:00,
2013-04-12 11:46:00,52.0,50.6,28.32,SE,135,3.1,7.2,95,0.08,,---,0.66,VWS V14.01,2013-04-12 14:46:00,
2013-04-12 11:47:00,52.0,50.3,28.32,East,90,4.3,4.3,94,0.08,,---,0.66,VWS V14.01,2013-04-12 14:47:00,
2013-04-12 11:48:00,52.0,50.3,28.32,East,90,3.4,4.3,94,0.08,,---,0.66,VWS V14.01,2013-04-12 14:48:00,
2013-04-12 11:49:00,52.0,50.3,28.32,East,90,3.6,4.3,94,0.08,,---,0.66,VWS V14.01,2013-04-12 14:49:00,
2013-04-12 11:50:00,52.0,50.3,28.32,ENE,68,3.6,3.6,94,0.08,,---,0.66,VWS V14.01,2013-04-12 14:50:00,
2013-04-12 11:51:00,52.0,50.3,28.32,SE,135,3.6,3.6,94,0.08,,---,0.66,VWS V14.01,2013-04-12 14:51:00,
2013-04-12 11:52:00,52.0,50.3,28.32,ENE,68,3.6,3.6,94,0.08,,---,0.66,VWS V14.01,2013-04-12 14:52:00,
2013-04-12 11:53:00,52.0,50.3,28.32,NE,45,2.0,3.6,94,0.08,,---,0.66,VWS V14.01,2013-04-12 14:53:00,
2013-04-12 11:54:00,52.0,50.6,28.32,NE,45,2.0,2.7,95,0.08,,---,0.66,VWS V14.01,2013-04-12 14:54:00,
2013-04-12 11:55:00,52.0,50.6,28.32,East,90,7.6,7.6,95,0.08,,---,0.66,VWS V14.01,2013-04-12 14:55:00,
2013-04-12 11:56:00,52.0,50.6,28.32,North,0,3.6,3.6,95,0.08,,---,0.66,VWS V14.01,2013-04-12 14:56:00,
2013-04-12 11:57:00,52.0,50.6,28.32,ESE,112,6.0,6.0,95,0.08,,---,0.66,VWS V14.01,2013-04-12 14:57:00,
2013-04-12 11:58:00,52.0,50.6,28.32,East,90,4.3,7.6,95,0.08,,---,0.66,VWS V14.01,2013-04-12 14:58:00,
2013-04-12 11:59:00,52.2,50.8,28.32,East,90,5.4,5.4,95,0.04,,---,0.66,VWS V14.01,2013-04-12 14:59:00,
2013-04-12 12:00:00,52.2,50.8,28.32,SE,135,8.7,8.7,95,0.08,,---,0.70,VWS V14.01,2013-04-12 15:00:00,
2013-04-12 12:01:00,52.2,50.8,28.32,NE,45,3.1,3.6,95,0.04,,---,0.66,VWS V14.01,2013-04-12 15:01:00,
2013-04-12 12:02:00,52.2,50.8,28.32,SE,135,6.5,7.2,95,0.08,,---,0.70,VWS V14.01,2013-04-12 15:02:00,
2013-04-12 12:03:00,52.3,51.0,28.32,SE,135,8.7,8.7,95,0.08,,---,0.70,VWS V14.01,2013-04-12 15:03:00,
2013-04-12 12:04:00,52.3,51.0,28.32,SE,135,8.7,8.7,95,0.08,,---,0.70,VWS V14.01,2013-04-12 15:04:00,
2013-04-12 12:05:00,52.5,51.1,28.32,NW,315,1.1,1.1,95,0.08,,---,0.70,VWS V14.01,2013-04-12 15:05:00,
2013-04-12 12:06:00,52.5,51.1,28.32,East,90,4.5,4.5,95,0.08,,---,0.70,VWS V14.01,2013-04-12 15:06:00,
2013-04-12 12:07:00,52.5,51.1,28.32,NW,315,1.1,4.5,95,0.08,,---,0.70,VWS V14.01,2013-04-12 15:07:00,
2013-04-12 12:08:00,52.5,51.1,28.32,North,0,2.2,2.2,95,0.08,,---,0.70,VWS V14.01,2013-04-12 15:08:00,
2013-04-12 12:09:00,52.5,51.1,28.32,West,270,1.1,2.2,95,0.08,,---,0.70,VWS V14.01,2013-04-12 15:09:00,
2013-04-12 12:10:00,52.2,50.8,28.35,NE,45,1.6,1.6,95,0.08,,---,0.70,VWS V14.01,2013-04-12 15:10:00,
2013-04-12 12:11:00,52.2,50.8,28.35,SW,225,2.9,2.9,95,0.08,,---,0.70,VWS V14.01,2013-04-12 15:11:00,
2013-04-12 12:12:00,52.2,50.8,28.35,NE,45,1.6,2.9,95,0.08,,---,0.70,VWS V14.01,2013-04-12 15:12:00,
2013-04-12 12:13:00,52.2,50.8,28.35,NE,45,1.6,1.6,95,0.08,,---,0.70,VWS V14.01,2013-04-12 15:13:00,
2013-04-12 12:14:00,52.2,50.8,28.35,NE,45,1.6,1.6,95,0.08,,---,0.70,VWS V14.01,2013-04-12 15:14:00,
2013-04-12 12:15:00,52.2,50.8,28.35,East,90,3.6,3.6,95,0.08,,---,0.70,VWS V14.01,2013-04-12 15:15:00,
2013-04-12 12:16:00,52.2,50.8,28.35,East,90,3.6,3.6,95,0.08,,---,0.70,VWS V14.01,2013-04-12 15:16:00,
2013-04-12 12:17:00,52.2,50.8,28.35,East,90,3.6,3.6,95,0.08,,---,0.70,VWS V14.01,2013-04-12 15:17:00,
2013-04-12 12:18:00,52.2,50.8,28.35,NE,45,3.6,3.6,95,0.08,,---,0.70,VWS V14.01,2013-04-12 15:18:00,
2013-04-12 12:19:00,52.2,50.8,28.35,East,90,3.8,3.8,95,0.08,,---,0.70,VWS V14.01,2013-04-12 15:19:00,
2013-04-12 12:20:00,52.2,50.8,28.35,North,0,2.0,3.8,95,0.08,,---,0.70,VWS V14.01,2013-04-12 15:20:00,
2013-04-12 12:21:00,52.2,50.8,28.35,East,90,3.8,3.8,95,0.08,,---,0.70,VWS V14.01,2013-04-12 15:21:00,
2013-04-12 12:22:00,52.2,50.8,28.35,East,90,3.8,3.8,95,0.08,,---,0.70,VWS V14.01,2013-04-12 15:22:00,
2013-04-12 12:23:00,52.2,50.8,28.35,North,0,2.2,3.8,95,0.08,,---,0.70,VWS V14.01,2013-04-12 15:23:00,
2013-04-12 12:24:00,52.2,50.8,28.35,North,0,2.2,2.2,95,0.08,,---,0.70,VWS V14.01,2013-04-12 15:24:00,
2013-04-12 12:25:00,52.2,50.8,28.35,NNE,22,2.2,2.2,95,0.04,,---,0.70,VWS V14.01,2013-04-12 15:25:00,
2013-04-12 12:26:00,52.2,50.8,28.35,NNW,338,1.3,2.7,95,0.08,,---,0.70,VWS V14.01,2013-04-12 15:26:00,
2013-04-12 12:27:00,52.2,50.8,28.35,NNE,22,2.2,2.2,95,0.08,,---,0.70,VWS V14.01,2013-04-12 15:27:00,
2013-04-12 12:28:00,52.2,50.8,28.35,NE,45,2.2,2.2,95,0.04,,---,0.70,VWS V14.01,2013-04-12 15:28:00,
2013-04-12 12:29:00,52.2,50.8,28.35,ESE,112,2.5,2.9,95,0.04,,---,0.70,VWS V14.01,2013-04-12 15:29:00,
2013-04-12 12:30:00,52.2,50.8,28.35,West,270,4.9,4.9,95,0.04,,---,0.70,VWS V14.01,2013-04-12 15:30:00,
2013-04-12 12:31:00,52.2,50.8,28.35,East,90,0.0,2.5,95,0.04,,---,0.70,VWS V14.01,2013-04-12 15:31:00,
2013-04-12 12:32:00,52.2,50.8,28.35,West,270,4.9,4.9,95,0.04,,---,0.70,VWS V14.01,2013-04-12 15:32:00,
2013-04-12 12:33:00,52.2,50.8,28.35,West,270,4.9,4.9,95,0.04,,---,0.70,VWS V14.01,2013-04-12 15:33:00,
2013-04-12 12:34:00,52.2,50.8,28.35,SW,225,4.3,4.9,95,0.04,,---,0.70,VWS V14.01,2013-04-12 15:34:00,
2013-04-12 12:35:00,52.5,51.1,28.35,ENE,68,2.0,2.0,95,0.04,,---,0.70,VWS V14.01,2013-04-12 15:35:00,
2013-04-12 12:36:00,52.2,50.8,28.35,ENE,68,2.0,4.3,95,0.04,,---,0.70,VWS V14.01,2013-04-12 15:36:00,
2013-04-12 12:37:00,52.2,50.8,28.35,ENE,68,2.0,2.0,95,0.04,,---,0.70,VWS V14.01,2013-04-12 15:37:00,
2013-04-12 12:38:00,52.5,51.1,28.35,SE,135,1.3,2.0,95,0.04,,---,0.70,VWS V14.01,2013-04-12 15:38:00,
2013-04-12 12:39:00,52.5,51.1,28.35,East,90,1.6,1.6,95,0.04,,---,0.70,VWS V14.01,2013-04-12 15:39:00,
2013-04-12 12:40:00,52.9,51.5,28.35,ENE,68,1.6,1.6,95,0.04,,---,0.70,VWS V14.01,2013-04-12 15:40:00,
2013-04-12 12:41:00,52.7,51.3,28.35,ENE,68,2.0,2.0,95,0.04,,---,0.70,VWS V14.01,2013-04-12 15:41:00,
2013-04-12 12:42:00,52.9,51.5,28.35,ENE,68,1.6,2.0,95,0.04,,---,0.70,VWS V14.01,2013-04-12 15:42:00,
2013-04-12 12:43:00,52.9,51.5,28.35,ENE,68,1.6,1.6,95,0.04,,---,0.70,VWS V14.01,2013-04-12 15:43:00,
2013-04-12 12:44:00,52.9,51.5,28.35,ENE,68,1.6,1.6,95,0.04,,---,0.70,VWS V14.01,2013-04-12 15:44:00,
2013-04-12 12:45:00,53.1,51.7,28.35,NE,45,0.9,0.9,95,0.04,,---,0.70,VWS V14.01,2013-04-12 15:45:00,
2013-04-12 12:46:00,53.1,51.7,28.35,ENE,68,1.6,1.6,95,0.04,,---,0.70,VWS V14.01,2013-04-12 15:46:00,
2013-04-12 12:47:00,53.1,51.7,28.35,NE,45,0.9,1.6,95,0.04,,---,0.70,VWS V14.01,2013-04-12 15:47:00,
2013-04-12 12:48:00,53.6,52.2,28.35,NE,45,0.9,0.9,95,0.04,,---,0.70,VWS V14.01,2013-04-12 15:48:00,
2013-04-12 12:49:00,53.8,52.4,28.35,NE,45,0.9,0.9,95,0.04,,---,0.70,VWS V14.01,2013-04-12 15:49:00,
2013-04-12 12:50:00,54.3,53.2,28.35,ESE,112,3.6,3.6,96,0.04,,---,0.70,VWS V14.01,2013-04-12 15:50:00,
2013-04-12 12:51:00,54.0,52.6,28.35,ESE,112,3.6,3.6,95,0.04,,---,0.70,VWS V14.01,2013-04-12 15:51:00,
2013-04-12 12:52:00,54.1,52.7,28.35,ESE,112,3.6,3.6,95,0.04,,---,0.70,VWS V14.01,2013-04-12 15:52:00,
2013-04-12 12:53:00,54.3,53.2,28.35,NE,45,2.0,3.6,96,0.04,,---,0.70,VWS V14.01,2013-04-12 15:53:00,
2013-04-12 12:54:00,54.3,53.2,28.35,NE,45,2.0,2.0,96,0.04,,---,0.70,VWS V14.01,2013-04-12 15:54:00,
2013-04-12 12:55:00,54.3,53.2,28.38,NE,45,2.9,2.9,96,0.04,,---,0.70,VWS V14.01,2013-04-12 15:55:00,
2013-04-12 12:56:00,54.3,53.2,28.38,East,90,1.6,2.0,96,0.04,,---,0.70,VWS V14.01,2013-04-12 15:56:00,
2013-04-12 12:57:00,54.3,53.2,28.38,East,90,1.6,1.6,96,0.04,,---,0.70,VWS V14.01,2013-04-12 15:57:00,
2013-04-12 12:58:00,54.3,53.2,28.38,NE,45,2.9,2.9,96,0.04,,---,0.70,VWS V14.01,2013-04-12 15:58:00,
2013-04-12 12:59:00,54.3,53.2,28.38,NE,45,2.9,2.9,96,0.04,,---,0.70,VWS V14.01,2013-04-12 15:59:00,
2013-04-12 13:00:00,54.3,53.2,28.38,NE,45,2.0,2.0,96,0.00,,---,0.70,VWS V14.01,2013-04-12 16:00:00,
2013-04-12 13:01:00,54.3,53.2,28.38,ENE,68,2.0,2.0,96,0.04,,---,0.70,VWS V14.01,2013-04-12 16:01:00,
2013-04-12 13:02:00,54.3,53.2,28.38,NE,45,2.0,2.0,96,0.04,,---,0.70,VWS V14.01,2013-04-12 16:02:00,
2013-04-12 13:03:00,54.3,53.2,28.38,NE,45,2.5,2.5,96,0.00,,---,0.70,VWS V14.01,2013-04-12 16:03:00,
2013-04-12 13:04:00,54.9,53.5,28.38,NE,45,2.0,3.1,95,0.00,,---,0.70,VWS V14.01,2013-04-12 16:04:00,
2013-04-12 13:05:00,54.7,53.3,28.38,NE,45,1.3,1.3,95,0.00,,---,0.70,VWS V14.01,2013-04-12 16:05:00,
2013-04-12 13:06:00,54.7,53.3,28.38,NE,45,1.3,2.0,95,0.00,,---,0.70,VWS V14.01,2013-04-12 16:06:00,
2013-04-12 13:07:00,54.7,53.3,28.38,NE,45,1.3,1.3,95,0.00,,---,0.70,VWS V14.01,2013-04-12 16:07:00,
2013-04-12 13:08:00,54.7,53.3,28.38,East,90,0.9,1.6,95,0.00,,---,0.70,VWS V14.01,2013-04-12 16:08:00,
2013-04-12 13:09:00,54.7,53.3,28.38,NNE,22,1.6,1.6,95,0.00,,---,0.70,VWS V14.01,2013-04-12 16:09:00,
2013-04-12 13:10:00,54.1,52.5,28.35,NW,315,3.1,3.1,94,0.00,,---,0.70,VWS V14.01,2013-04-12 16:10:00,
2013-04-12 13:11:00,54.5,53.1,28.35,NW,315,2.0,2.0,95,0.00,,---,0.70,VWS V14.01,2013-04-12 16:11:00,
2013-04-12 13:12:00,54.1,52.5,28.35,NNW,338,2.7,2.7,94,0.00,,---,0.70,VWS V14.01,2013-04-12 16:12:00,
2013-04-12 13:13:00,54.0,52.3,28.35,NNW,338,2.9,3.1,94,0.00,,---,0.70,VWS V14.01,2013-04-12 16:13:00,
2013-04-12 13:14:00,54.0,52.3,28.35,NNW,338,2.9,2.9,94,0.00,,---,0.70,VWS V14.01,2013-04-12 16:14:00,
2013-04-12 13:15:00,54.3,52.6,28.35,East,90,2.0,2.0,94,0.00,,---,0.70,VWS V14.01,2013-04-12 16:15:00,
2013-04-12 13:16:00,54.0,52.3,28.35,North,0,1.1,1.6,94,0.00,,---,0.70,VWS V14.01,2013-04-12 16:16:00,
2013-04-12 13:17:00,54.0,52.3,28.35,East,90,0.0,1.1,94,0.00,,---,0.70,VWS V14.01,2013-04-12 16:17:00,
2013-04-12 13:18:00,54.3,52.9,28.35,East,90,2.9,3.1,95,0.00,,---,0.70,VWS V14.01,2013-04-12 16:18:00,
2013-04-12 13:19:00,54.3,52.9,28.35,East,90,0.0,2.9,95,0.00,,---,0.70,VWS V14.01,2013-04-12 16:19:00,
2013-04-12 13:20:00,54.3,52.9,28.35,East,90,0.0,0.0,95,0.00,,---,0.70,VWS V14.01,2013-04-12 16:20:00,
2013-04-12 13:21:00,54.3,52.9,28.35,East,90,0.0,0.0,95,0.00,,---,0.70,VWS V14.01,2013-04-12 16:21:00,
2013-04-12 13:22:00,54.3,52.9,28.35,East,90,0.0,0.0,95,0.00,,---,0.70,VWS V14.01,2013-04-12 16:22:00,
2013-04-12 13:23:00,54.3,52.9,28.35,East,90,0.0,0.0,95,0.00,,---,0.70,VWS V14.01,2013-04-12 16:23:00,
2013-04-12 13:24:00,54.3,52.9,28.35,East,90,0.0,0.0,95,0.00,,---,0.70,VWS V14.01,2013-04-12 16:24:00,
2013-04-12 13:25:00,54.3,52.9,28.38,East,90,0.0,0.0,95,0.00,,---,0.70,VWS V14.01,2013-04-12 16:25:00,
2013-04-12 13:26:00,54.3,52.9,28.38,East,90,0.0,0.0,95,0.00,,---,0.70,VWS V14.01,2013-04-12 16:26:00,
2013-04-12 13:27:00,54.3,52.9,28.38,East,90,0.0,0.0,95,0.00,,---,0.70,VWS V14.01,2013-04-12 16:27:00,
2013-04-12 13:28:00,54.3,52.9,28.38,East,90,0.0,0.0,95,0.00,,---,0.70,VWS V14.01,2013-04-12 16:28:00,
2013-04-12 13:29:00,54.3,52.9,28.38,East,90,0.0,0.0,95,0.00,,---,0.70,VWS V14.01,2013-04-12 16:29:00,
2013-04-12 13:30:00,54.3,52.9,28.38,East,90,0.0,0.0,95,0.00,,---,0.70,VWS V14.01,2013-04-12 16:30:00,
2013-04-12 13:31:00,54.3,52.9,28.38,East,90,0.0,0.0,95,0.00,,---,0.70,VWS V14.01,2013-04-12 16:31:00,
2013-04-12 13:32:00,54.3,52.9,28.38,East,90,0.0,0.0,95,0.00,,---,0.70,VWS V14.01,2013-04-12 16:32:00,
2013-04-12 13:33:00,55.0,53.6,28.38,East,90,0.0,0.0,95,0.00,,---,0.70,VWS V14.01,2013-04-12 16:33:00,
2013-04-12 13:34:00,55.2,53.8,28.38,East,90,0.0,0.0,95,0.00,,---,0.70,VWS V14.01,2013-04-12 16:34:00,
2013-04-12 13:35:00,55.2,53.8,28.38,East,90,0.0,0.0,95,0.00,,---,0.70,VWS V14.01,2013-04-12 16:35:00,
2013-04-12 13:36:00,55.2,53.8,28.38,East,90,0.0,0.0,95,0.00,,---,0.70,VWS V14.01,2013-04-12 16:36:00,
2013-04-12 13:37:00,55.2,53.8,28.38,East,90,0.0,0.0,95,0.00,,---,0.70,VWS V14.01,2013-04-12 16:37:00,
2013-04-12 13:38:00,55.2,53.8,28.38,East,90,0.0,0.0,95,0.00,,---,0.70,VWS V14.01,2013-04-12 16:38:00,
2013-04-12 13:39:00,55.2,53.8,28.38,East,90,0.0,0.0,95,0.00,,---,0.70,VWS V14.01,2013-04-12 16:39:00,
2013-04-12 13:40:00,55.8,54.3,28.38,East,90,0.0,0.0,95,0.00,,---,0.70,VWS V14.01,2013-04-12 16:40:00,
2013-04-12 13:41:00,55.8,54.3,28.38,East,90,0.0,0.0,95,0.00,,---,0.70,VWS V14.01,2013-04-12 16:41:00,
2013-04-12 13:42:00,55.8,54.3,28.38,East,90,0.0,0.0,95,0.00,,---,0.70,VWS V14.01,2013-04-12 16:42:00,
2013-04-12 13:43:00,55.4,54.0,28.38,East,90,0.0,0.0,95,0.00,,---,0.70,VWS V14.01,2013-04-12 16:43:00,
2013-04-12 13:44:00,55.4,53.7,28.38,East,90,0.0,0.0,94,0.00,,---,0.70,VWS V14.01,2013-04-12 16:44:00,
2013-04-12 13:45:00,55.4,53.7,28.38,East,90,0.0,0.0,94,0.00,,---,0.70,VWS V14.01,2013-04-12 16:45:00,
2013-04-12 13:46:00,55.4,53.7,28.38,East,90,0.0,0.0,94,0.00,,---,0.70,VWS V14.01,2013-04-12 16:46:00,
2013-04-12 13:47:00,55.4,53.7,28.38,East,90,0.0,0.0,94,0.00,,---,0.70,VWS V14.01,2013-04-12 16:47:00,
2013-04-12 13:48:00,55.4,53.7,28.38,East,90,0.0,0.0,94,0.00,,---,0.70,VWS V14.01,2013-04-12 16:48:00,
2013-04-12 13:49:00,55.4,53.7,28.38,East,90,0.0,0.0,94,0.00,,---,0.70,VWS V14.01,2013-04-12 16:49:00,
2013-04-12 13:50:00,55.4,53.7,28.38,East,90,0.0,0.0,94,0.00,,---,0.70,VWS V14.01,2013-04-12 16:50:00,
2013-04-12 13:51:00,55.4,53.7,28.38,East,90,0.0,0.0,94,0.00,,---,0.70,VWS V14.01,2013-04-12 16:51:00,
2013-04-12 13:52:00,55.4,53.7,28.38,East,90,0.0,0.0,94,0.00,,---,0.70,VWS V14.01,2013-04-12 16:52:00,
2013-04-12 13:53:00,55.4,53.7,28.38,East,90,0.0,0.0,94,0.00,,---,0.70,VWS V14.01,2013-04-12 16:53:00,
2013-04-12 13:54:00,55.4,53.7,28.38,East,90,0.0,0.0,94,0.00,,---,0.70,VWS V14.01,2013-04-12 16:54:00,
2013-04-12 13:55:00,56.7,55.2,28.38,East,90,0.0,0.0,95,0.00,,---,0.70,VWS V14.01,2013-04-12 16:55:00,
2013-04-12 13:56:00,56.7,55.2,28.38,East,90,0.0,0.0,95,0.00,,---,0.70,VWS V14.01,2013-04-12 16:56:00,
2013-04-12 13:57:00,56.7,55.2,28.38,East,90,0.0,0.0,95,0.00,,---,0.70,VWS V14.01,2013-04-12 16:57:00,
2013-04-12 13:58:00,56.7,55.2,28.38,East,90,0.0,0.0,95,0.00,,---,0.70,VWS V14.01,2013-04-12 16:58:00,
2013-04-12 13:59:00,56.7,55.2,28.38,East,90,0.0,0.0,95,0.00,,---,0.70,VWS V14.01,2013-04-12 16:59:00,
2013-04-12 14:00:00,55.2,52.3,28.38,East,90,0.0,0.0,90,0.00,,---,0.70,VWS V14.01,2013-04-12 17:00:00,
2013-04-12 14:01:00,56.7,55.2,28.38,East,90,0.0,0.0,95,0.00,,---,0.70,VWS V14.01,2013-04-12 17:01:00,
2013-04-12 14:02:00,55.0,52.2,28.38,East,90,0.0,0.0,90,0.00,,---,0.70,VWS V14.01,2013-04-12 17:02:00,
2013-04-12 14:03:00,55.2,52.3,28.38,East,90,0.0,0.0,90,0.00,,---,0.70,VWS V14.01,2013-04-12 17:03:00,
2013-04-12 14:04:00,54.9,52.3,28.38,East,90,0.0,0.0,91,0.00,,---,0.70,VWS V14.01,2013-04-12 17:04:00,
2013-04-12 14:05:00,54.9,52.9,28.38,East,90,0.0,0.0,93,0.00,,---,0.70,VWS V14.01,2013-04-12 17:05:00,
2013-04-12 14:06:00,54.9,52.3,28.38,East,90,0.0,0.0,91,0.00,,---,0.70,VWS V14.01,2013-04-12 17:06:00,
2013-04-12 14:07:00,54.9,52.9,28.38,East,90,0.0,0.0,93,0.00,,---,0.70,VWS V14.01,2013-04-12 17:07:00,
2013-04-12 14:08:00,54.9,52.9,28.38,East,90,0.0,0.0,93,0.00,,---,0.70,VWS V14.01,2013-04-12 17:08:00,
2013-04-12 14:09:00,54.9,52.6,28.38,East,90,0.0,0.0,92,0.00,,---,0.70,VWS V14.01,2013-04-12 17:09:00,
2013-04-12 14:10:00,54.5,52.2,28.38,East,90,0.0,0.0,92,0.00,,---,0.70,VWS V14.01,2013-04-12 17:10:00,
2013-04-12 14:11:00,54.9,52.6,28.38,East,90,0.0,0.0,92,0.00,,---,0.70,VWS V14.01,2013-04-12 17:11:00,
2013-04-12 14:12:00,54.5,52.2,28.38,East,90,0.0,0.0,92,0.00,,---,0.70,VWS V14.01,2013-04-12 17:12:00,
2013-04-12 14:13:00,54.3,52.0,28.38,East,90,0.0,0.0,92,0.00,,---,0.70,VWS V14.01,2013-04-12 17:13:00,
2013-04-12 14:14:00,54.1,51.9,28.38,East,90,0.0,0.0,92,0.00,,---,0.70,VWS V14.01,2013-04-12 17:14:00,
2013-04-12 14:15:00,53.8,51.5,28.38,East,90,0.0,0.0,92,0.00,,---,0.70,VWS V14.01,2013-04-12 17:15:00,
2013-04-12 14:16:00,53.8,51.5,28.38,East,90,0.0,0.0,92,0.00,,---,0.70,VWS V14.01,2013-04-12 17:16:00,
2013-04-12 14:17:00,53.8,51.5,28.38,East,90,0.0,0.0,92,0.00,,---,0.70,VWS V14.01,2013-04-12 17:17:00,
2013-04-12 14:18:00,53.6,51.3,28.38,East,90,0.0,0.0,92,0.00,,---,0.70,VWS V14.01,2013-04-12 17:18:00,
2013-04-12 14:19:00,53.6,51.3,28.38,East,90,0.0,0.0,92,0.00,,---,0.70,VWS V14.01,2013-04-12 17:19:00,
2013-04-12 14:20:00,53.6,51.3,28.38,East,90,0.0,0.0,92,0.00,,---,0.70,VWS V14.01,2013-04-12 17:20:00,
2013-04-12 14:21:00,53.6,51.3,28.38,East,90,0.0,0.0,92,0.00,,---,0.70,VWS V14.01,2013-04-12 17:21:00,
2013-04-12 14:22:00,53.6,51.3,28.38,East,90,0.0,0.0,92,0.00,,---,0.70,VWS V14.01,2013-04-12 17:22:00,
2013-04-12 14:23:00,53.6,51.3,28.38,East,90,0.0,0.0,92,0.00,,---,0.70,VWS V14.01,2013-04-12 17:23:00,
2013-04-12 14:24:00,53.6,51.3,28.38,East,90,0.0,0.0,92,0.00,,---,0.70,VWS V14.01,2013-04-12 17:24:00,
2013-04-12 14:25:00,53.2,51.3,28.38,East,90,0.0,0.0,93,0.00,,---,0.70,VWS V14.01,2013-04-12 17:25:00,
2013-04-12 14:26:00,53.2,51.3,28.38,East,90,0.0,0.0,93,0.00,,---,0.70,VWS V14.01,2013-04-12 17:26:00,
2013-04-12 14:27:00,53.2,51.3,28.38,East,90,0.0,0.0,93,0.00,,---,0.70,VWS V14.01,2013-04-12 17:27:00,
2013-04-12 14:28:00,53.2,51.3,28.38,East,90,0.0,0.0,93,0.00,,---,0.70,VWS V14.01,2013-04-12 17:28:00,
2013-04-12 14:29:00,53.2,51.3,28.38,East,90,0.0,0.0,93,0.00,,---,0.70,VWS V14.01,2013-04-12 17:29:00,
2013-04-12 14:30:00,53.2,51.3,28.38,East,90,0.0,0.0,93,0.00,,---,0.70,VWS V14.01,2013-04-12 17:30:00,
2013-04-12 14:31:00,53.2,51.3,28.38,East,90,0.0,0.0,93,0.00,,---,0.70,VWS V14.01,2013-04-12 17:31:00,
2013-04-12 14:32:00,53.2,51.3,28.38,East,90,0.0,0.0,93,0.00,,---,0.70,VWS V14.01,2013-04-12 17:32:00,
2013-04-12 14:33:00,53.2,51.3,28.38,East,90,0.0,0.0,93,0.00,,---,0.70,VWS V14.01,2013-04-12 17:33:00,
2013-04-12 14:34:00,53.2,51.3,28.38,East,90,0.0,0.0,93,0.00,,---,0.70,VWS V14.01,2013-04-12 17:34:00,
2013-04-12 14:35:00,53.2,51.3,28.38,East,90,0.0,0.0,93,0.00,,---,0.70,VWS V14.01,2013-04-12 17:35:00,
2013-04-12 14:36:00,53.2,51.3,28.38,East,90,0.0,0.0,93,0.00,,---,0.70,VWS V14.01,2013-04-12 17:36:00,
2013-04-12 14:37:00,53.2,51.3,28.38,East,90,0.0,0.0,93,0.00,,---,0.70,VWS V14.01,2013-04-12 17:37:00,
2013-04-12 14:38:00,53.2,51.3,28.38,East,90,0.0,0.0,93,0.00,,---,0.70,VWS V14.01,2013-04-12 17:38:00,
2013-04-12 14:39:00,53.2,51.3,28.38,East,90,0.0,0.0,93,0.00,,---,0.70,VWS V14.01,2013-04-12 17:39:00,
2013-04-12 14:40:00,54.0,51.7,28.41,East,90,0.0,0.0,92,0.00,,---,0.70,VWS V14.01,2013-04-12 17:40:00,
2013-04-12 14:41:00,54.0,51.7,28.41,East,90,0.0,0.0,92,0.00,,---,0.70,VWS V14.01,2013-04-12 17:41:00,
2013-04-12 14:42:00,54.0,51.7,28.41,East,90,0.0,0.0,92,0.00,,---,0.70,VWS V14.01,2013-04-12 17:42:00,
2013-04-12 14:43:00,54.0,51.7,28.41,East,90,0.0,0.0,92,0.00,,---,0.70,VWS V14.01,2013-04-12 17:43:00,
2013-04-12 14:44:00,54.0,51.7,28.41,East,90,0.0,0.0,92,0.00,,---,0.70,VWS V14.01,2013-04-12 17:44:00,
2013-04-12 14:45:00,54.0,51.7,28.41,East,90,0.0,0.0,92,0.00,,---,0.70,VWS V14.01,2013-04-12 17:45:00,
2013-04-12 14:46:00,54.0,51.7,28.41,East,90,0.0,0.0,92,0.00,,---,0.70,VWS V14.01,2013-04-12 17:46:00,
2013-04-12 14:47:00,54.0,51.7,28.41,East,90,0.0,0.0,92,0.00,,---,0.70,VWS V14.01,2013-04-12 17:47:00,
2013-04-12 14:48:00,53.8,51.2,28.41,East,90,0.0,0.0,91,0.00,,---,0.70,VWS V14.01,2013-04-12 17:48:00,
2013-04-12 14:49:00,53.8,51.2,28.41,West,270,6.5,6.5,91,0.00,,---,0.70,VWS V14.01,2013-04-12 17:49:00,
2013-04-12 14:50:00,53.4,50.9,28.41,West,270,6.0,6.0,91,0.00,,---,0.70,VWS V14.01,2013-04-12 17:50:00,
2013-04-12 14:51:00,53.8,51.2,28.41,West,270,6.5,6.5,91,0.00,,---,0.70,VWS V14.01,2013-04-12 17:51:00,
2013-04-12 14:52:00,53.4,50.9,28.41,West,270,6.0,6.5,91,0.00,,---,0.70,VWS V14.01,2013-04-12 17:52:00,
2013-04-12 14:53:00,53.4,50.9,28.41,West,270,6.0,6.0,91,0.00,,---,0.70,VWS V14.01,2013-04-12 17:53:00,
2013-04-12 14:54:00,53.4,50.9,28.41,West,270,6.0,6.0,91,0.00,,---,0.70,VWS V14.01,2013-04-12 17:54:00,
2013-04-12 14:55:00,53.4,50.9,28.41,West,270,6.0,6.0,91,0.00,,---,0.70,VWS V14.01,2013-04-12 17:55:00,
2013-04-12 14:56:00,53.4,50.9,28.41,West,270,6.0,6.0,91,0.00,,---,0.70,VWS V14.01,2013-04-12 17:56:00,
2013-04-12 14:57:00,53.4,50.9,28.41,West,270,6.0,6.0,91,0.00,,---,0.70,VWS V14.01,2013-04-12 17:57:00,
2013-04-12 14:58:00,53.1,49.9,28.41,West,270,6.0,6.0,89,0.00,,---,0.70,VWS V14.01,2013-04-12 17:58:00,
2013-04-12 14:59:00,53.1,49.9,28.41,West,270,6.0,6.0,89,0.00,,---,0.70,VWS V14.01,2013-04-12 17:59:00,
2013-04-12 15:00:00,53.1,49.6,28.41,WNW,292,10.3,10.3,88,0.00,,---,0.70,VWS V14.01,2013-04-12 18:00:00,
2013-04-12 15:01:00,53.1,49.6,28.41,West,270,15.7,15.7,88,0.00,,---,0.70,VWS V14.01,2013-04-12 18:01:00,
2013-04-12 15:02:00,53.1,49.6,28.41,WNW,292,10.3,15.7,88,0.00,,---,0.70,VWS V14.01,2013-04-12 18:02:00,
2013-04-12 15:03:00,53.1,49.6,28.41,WNW,292,10.3,10.3,88,0.00,,---,0.70,VWS V14.01,2013-04-12 18:03:00,
2013-04-12 15:04:00,53.1,49.6,28.41,WNW,292,10.3,10.3,88,0.00,,---,0.70,VWS V14.01,2013-04-12 18:04:00,
2013-04-12 15:05:00,52.9,49.4,28.41,WNW,292,10.3,10.3,88,0.00,,---,0.70,VWS V14.01,2013-04-12 18:05:00,
2013-04-12 15:06:00,52.9,49.4,28.41,WNW,292,10.3,10.3,88,0.00,,---,0.70,VWS V14.01,2013-04-12 18:06:00,
2013-04-12 15:07:00,52.9,49.4,28.41,WNW,292,10.3,10.3,88,0.00,,---,0.70,VWS V14.01,2013-04-12 18:07:00,
2013-04-12 15:08:00,52.9,49.4,28.41,WNW,292,10.3,10.3,88,0.00,,---,0.70,VWS V14.01,2013-04-12 18:08:00,
2013-04-12 15:09:00,52.9,49.4,28.41,WNW,292,10.3,10.3,88,0.00,,---,0.70,VWS V14.01,2013-04-12 18:09:00,
2013-04-12 15:10:00,53.1,49.6,28.44,WNW,292,10.3,10.3,88,0.00,,---,0.70,VWS V14.01,2013-04-12 18:10:00,
2013-04-12 15:11:00,53.2,50.1,28.44,WNW,292,10.3,10.3,89,0.00,,---,0.70,VWS V14.01,2013-04-12 18:11:00,
2013-04-12 15:12:00,53.1,49.6,28.44,WNW,292,10.3,10.3,88,0.00,,---,0.70,VWS V14.01,2013-04-12 18:12:00,
2013-04-12 15:13:00,53.2,50.1,28.44,WNW,292,10.3,10.3,89,0.00,,---,0.70,VWS V14.01,2013-04-12 18:13:00,
2013-04-12 15:14:00,53.6,50.1,28.44,WNW,292,10.3,10.3,88,0.00,,---,0.70,VWS V14.01,2013-04-12 18:14:00,
2013-04-12 15:15:00,53.6,50.1,28.44,WNW,292,10.3,10.3,88,0.00,,---,0.70,VWS V14.01,2013-04-12 18:15:00,
2013-04-12 15:16:00,54.1,50.0,28.44,WNW,292,3.1,3.1,86,0.00,,---,0.70,VWS V14.01,2013-04-12 18:16:00,
2013-04-12 15:17:00,53.6,50.1,28.44,WNW,292,10.3,10.3,88,0.00,,---,0.70,VWS V14.01,2013-04-12 18:17:00,
2013-04-12 15:18:00,53.6,50.1,28.44,WNW,292,3.1,10.3,88,0.00,,---,0.70,VWS V14.01,2013-04-12 18:18:00,
2013-04-12 15:19:00,54.3,50.2,28.44,NW,315,8.1,8.1,86,0.00,,---,0.70,VWS V14.01,2013-04-12 18:19:00,
2013-04-12 15:20:00,54.3,49.9,28.44,West,270,5.8,8.1,85,0.00,,---,0.70,VWS V14.01,2013-04-12 18:20:00,
2013-04-12 15:21:00,54.0,48.9,28.44,West,270,5.8,5.8,83,0.00,,---,0.70,VWS V14.01,2013-04-12 18:21:00,
2013-04-12 15:22:00,54.1,49.4,28.44,West,270,5.8,5.8,84,0.00,,---,0.70,VWS V14.01,2013-04-12 18:22:00,
2013-04-12 15:23:00,54.1,49.4,28.44,West,270,5.8,5.8,84,0.00,,---,0.70,VWS V14.01,2013-04-12 18:23:00,
2013-04-12 15:24:00,54.0,48.9,28.44,West,270,5.8,5.8,83,0.00,,---,0.70,VWS V14.01,2013-04-12 18:24:00,
2013-04-12 15:25:00,53.8,49.1,28.47,West,270,5.8,5.8,84,0.00,,---,0.70,VWS V14.01,2013-04-12 18:25:00,
2013-04-12 15:26:00,53.6,48.6,28.47,West,270,5.8,5.8,83,0.00,,---,0.70,VWS V14.01,2013-04-12 18:26:00,
2013-04-12 15:27:00,53.6,48.6,28.47,West,270,5.8,5.8,83,0.00,,---,0.70,VWS V14.01,2013-04-12 18:27:00,
2013-04-12 15:28:00,53.6,48.6,28.47,West,270,5.8,5.8,83,0.00,,---,0.70,VWS V14.01,2013-04-12 18:28:00,
2013-04-12 15:29:00,53.1,48.0,28.47,West,270,5.8,5.8,83,0.00,,---,0.70,VWS V14.01,2013-04-12 18:29:00,
2013-04-12 15:30:00,53.1,48.0,28.47,West,270,5.8,5.8,83,0.00,,---,0.70,VWS V14.01,2013-04-12 18:30:00,
2013-04-12 15:31:00,52.9,47.9,28.47,West,270,5.8,5.8,83,0.00,,---,0.70,VWS V14.01,2013-04-12 18:31:00,
2013-04-12 15:32:00,52.7,47.7,28.47,West,270,5.8,5.8,83,0.00,,---,0.70,VWS V14.01,2013-04-12 18:32:00,
2013-04-12 15:33:00,52.7,48.0,28.47,West,270,5.8,5.8,84,0.00,,---,0.70,VWS V14.01,2013-04-12 18:33:00,
2013-04-12 15:34:00,52.5,47.8,28.47,West,270,5.8,5.8,84,0.00,,---,0.70,VWS V14.01,2013-04-12 18:34:00,
2013-04-12 15:35:00,52.5,47.8,28.47,West,270,5.8,5.8,84,0.00,,---,0.70,VWS V14.01,2013-04-12 18:35:00,
2013-04-12 15:36:00,52.5,47.8,28.47,West,270,5.8,5.8,84,0.00,,---,0.70,VWS V14.01,2013-04-12 18:36:00,
2013-04-12 15:37:00,52.3,47.7,28.47,West,270,5.8,5.8,84,0.00,,---,0.70,VWS V14.01,2013-04-12 18:37:00,
2013-04-12 15:38:00,52.5,47.8,28.47,West,270,5.8,5.8,84,0.00,,---,0.70,VWS V14.01,2013-04-12 18:38:00,
2013-04-12 15:39:00,52.3,47.7,28.47,West,270,5.8,5.8,84,0.00,,---,0.70,VWS V14.01,2013-04-12 18:39:00,
2013-04-12 15:40:00,52.3,47.7,28.41,West,270,5.8,5.8,84,0.00,,---,0.70,VWS V14.01,2013-04-12 18:40:00,
2013-04-12 15:41:00,52.2,47.5,28.41,West,270,5.8,5.8,84,0.00,,---,0.70,VWS V14.01,2013-04-12 18:41:00,
2013-04-12 15:42:00,52.2,47.5,28.41,West,270,5.8,5.8,84,0.00,,---,0.70,VWS V14.01,2013-04-12 18:42:00,
2013-04-12 15:43:00,52.2,47.5,28.41,West,270,5.8,5.8,84,0.00,,---,0.70,VWS V14.01,2013-04-12 18:43:00,
2013-04-12 15:44:00,52.2,47.5,28.41,West,270,5.8,5.8,84,0.00,,---,0.70,VWS V14.01,2013-04-12 18:44:00,
2013-04-12 15:45:00,52.2,47.5,28.41,West,270,5.8,5.8,84,0.00,,---,0.70,VWS V14.01,2013-04-12 18:45:00,
2013-04-12 15:46:00,52.2,47.5,28.41,West,270,5.8,5.8,84,0.00,,---,0.70,VWS V14.01,2013-04-12 18:46:00,
2013-04-12 15:47:00,52.2,47.5,28.41,West,270,5.8,5.8,84,0.00,,---,0.70,VWS V14.01,2013-04-12 18:47:00,
2013-04-12 15:48:00,52.0,47.3,28.41,West,270,5.8,5.8,84,0.00,,---,0.70,VWS V14.01,2013-04-12 18:48:00,
2013-04-12 15:49:00,51.8,47.1,28.41,West,270,8.5,8.5,84,0.00,,---,0.70,VWS V14.01,2013-04-12 18:49:00,
2013-04-12 15:50:00,51.8,47.1,28.41,West,270,8.5,8.5,84,0.00,,---,0.70,VWS V14.01,2013-04-12 18:50:00,
2013-04-12 15:51:00,51.8,47.1,28.41,West,270,8.5,8.5,84,0.00,,---,0.70,VWS V14.01,2013-04-12 18:51:00,
2013-04-12 15:52:00,51.6,47.0,28.41,West,270,8.5,8.5,84,0.00,,---,0.70,VWS V14.01,2013-04-12 18:52:00,
2013-04-12 15:53:00,51.6,47.0,28.41,West,270,8.5,8.5,84,0.00,,---,0.70,VWS V14.01,2013-04-12 18:53:00,
2013-04-12 15:54:00,51.6,47.3,28.41,West,270,8.5,8.5,85,0.00,,---,0.70,VWS V14.01,2013-04-12 18:54:00,
2013-04-12 15:55:00,51.6,47.3,28.44,West,270,8.5,8.5,85,0.00,,---,0.70,VWS V14.01,2013-04-12 18:55:00,
2013-04-12 15:56:00,51.6,47.0,28.44,West,270,8.5,8.5,84,0.00,,---,0.70,VWS V14.01,2013-04-12 18:56:00,
2013-04-12 15:57:00,51.6,47.0,28.44,West,270,8.5,8.5,84,0.00,,---,0.70,VWS V14.01,2013-04-12 18:57:00,
2013-04-12 15:58:00,51.6,47.0,28.44,West,270,8.5,8.5,84,0.00,,---,0.70,VWS V14.01,2013-04-12 18:58:00,
2013-04-12 15:59:00,51.6,47.0,28.44,West,270,8.5,8.5,84,0.00,,---,0.70,VWS V14.01,2013-04-12 18:59:00,
2013-04-12 16:00:00,51.6,47.0,28.44,West,270,8.5,8.5,84,0.00,,---,0.70,VWS V14.01,2013-04-12 19:00:00,
2013-04-12 16:01:00,51.6,47.0,28.44,West,270,8.5,8.5,84,0.00,,---,0.70,VWS V14.01,2013-04-12 19:01:00,
2013-04-12 16:02:00,51.6,47.0,28.44,West,270,8.5,8.5,84,0.00,,---,0.70,VWS V14.01,2013-04-12 19:02:00,
2013-04-12 16:03:00,51.6,47.0,28.44,West,270,8.5,8.5,84,0.00,,---,0.70,VWS V14.01,2013-04-12 19:03:00,
2013-04-12 16:04:00,51.6,47.0,28.44,West,270,8.5,8.5,84,0.00,,---,0.70,VWS V14.01,2013-04-12 19:04:00,
2013-04-12 16:05:00,51.6,47.0,28.44,West,270,8.5,8.5,84,0.00,,---,0.70,VWS V14.01,2013-04-12 19:05:00,
2013-04-12 16:06:00,51.4,46.8,28.44,West,270,8.5,8.5,84,0.00,,---,0.70,VWS V14.01,2013-04-12 19:06:00,
2013-04-12 16:07:00,51.4,46.8,28.44,West,270,8.5,8.5,84,0.00,,---,0.70,VWS V14.01,2013-04-12 19:07:00,
2013-04-12 16:08:00,51.4,46.8,28.44,West,270,8.5,8.5,84,0.00,,---,0.70,VWS V14.01,2013-04-12 19:08:00,
2013-04-12 16:09:00,51.4,46.8,28.44,West,270,8.5,8.5,84,0.00,,---,0.70,VWS V14.01,2013-04-12 19:09:00,
2013-04-12 16:10:00,51.4,46.8,28.44,West,270,8.5,8.5,84,0.00,,---,0.70,VWS V14.01,2013-04-12 19:10:00,
2013-04-12 16:11:00,51.4,46.5,28.44,West,270,8.5,8.5,83,0.00,,---,0.70,VWS V14.01,2013-04-12 19:11:00,
2013-04-12 16:12:00,51.4,46.5,28.44,West,270,8.5,8.5,83,0.00,,---,0.70,VWS V14.01,2013-04-12 19:12:00,
2013-04-12 16:13:00,51.6,46.6,28.44,West,270,8.5,8.5,83,0.00,,---,0.70,VWS V14.01,2013-04-12 19:13:00,
2013-04-12 16:14:00,51.6,46.6,28.44,West,270,8.5,8.5,83,0.00,,---,0.70,VWS V14.01,2013-04-12 19:14:00,
2013-04-12 16:15:00,51.6,46.6,28.44,West,270,8.5,8.5,83,0.00,,---,0.70,VWS V14.01,2013-04-12 19:15:00,
2013-04-12 16:16:00,51.6,46.3,28.44,West,270,8.5,8.5,82,0.00,,---,0.70,VWS V14.01,2013-04-12 19:16:00,
2013-04-12 16:17:00,51.6,46.3,28.44,West,270,8.5,8.5,82,0.00,,---,0.70,VWS V14.01,2013-04-12 19:17:00,
2013-04-12 16:18:00,51.6,46.6,28.44,NW,315,6.0,12.8,83,0.00,,---,0.70,VWS V14.01,2013-04-12 19:18:00,
2013-04-12 16:19:00,51.6,46.3,28.44,NW,315,8.1,9.6,82,0.00,,---,0.70,VWS V14.01,2013-04-12 19:19:00,
2013-04-12 16:20:00,51.6,46.3,28.44,NW,315,8.1,8.1,82,0.00,,---,0.70,VWS V14.01,2013-04-12 19:20:00,
2013-04-12 16:21:00,51.6,46.3,28.44,NW,315,8.1,8.1,82,0.00,,---,0.70,VWS V14.01,2013-04-12 19:21:00,
2013-04-12 16:22:00,51.6,46.3,28.44,North,0,6.5,8.1,82,0.00,,---,0.70,VWS V14.01,2013-04-12 19:22:00,
2013-04-12 16:23:00,51.6,46.0,28.44,SW,225,5.8,6.5,81,0.00,,---,0.70,VWS V14.01,2013-04-12 19:23:00,
2013-04-12 16:24:00,51.6,46.3,28.44,SW,225,5.8,5.8,82,0.00,,---,0.70,VWS V14.01,2013-04-12 19:24:00,
2013-04-12 16:25:00,51.6,46.3,28.44,NW,315,8.1,8.1,82,0.00,,---,0.70,VWS V14.01,2013-04-12 19:25:00,
2013-04-12 16:26:00,51.1,45.8,28.44,West,270,11.0,11.0,82,0.00,,---,0.70,VWS V14.01,2013-04-12 19:26:00,
2013-04-12 16:27:00,51.3,45.6,28.44,NW,315,7.6,11.0,81,0.00,,---,0.70,VWS V14.01,2013-04-12 19:27:00,
2013-04-12 16:28:00,51.1,45.8,28.44,West,270,11.0,11.0,82,0.00,,---,0.70,VWS V14.01,2013-04-12 19:28:00,
2013-04-12 16:29:00,50.9,45.6,28.44,West,270,11.0,11.0,82,0.00,,---,0.70,VWS V14.01,2013-04-12 19:29:00,
2013-04-12 16:30:00,50.9,45.6,28.44,West,270,11.0,11.0,82,0.00,,---,0.70,VWS V14.01,2013-04-12 19:30:00,
2013-04-12 16:31:00,50.4,44.8,28.44,NNW,338,7.4,9.4,81,0.00,,---,0.70,VWS V14.01,2013-04-12 19:31:00,
2013-04-12 16:32:00,50.7,45.1,28.44,West,270,11.0,11.0,81,0.00,,---,0.70,VWS V14.01,2013-04-12 19:32:00,
2013-04-12 16:33:00,50.5,44.9,28.44,NW,315,9.4,13.0,81,0.00,,---,0.70,VWS V14.01,2013-04-12 19:33:00,
2013-04-12 16:34:00,50.4,44.8,28.44,NNW,338,7.4,9.4,81,0.00,,---,0.70,VWS V14.01,2013-04-12 19:34:00,
2013-04-12 16:35:00,50.4,44.8,28.44,West,270,6.5,9.0,81,0.00,,---,0.70,VWS V14.01,2013-04-12 19:35:00,
2013-04-12 16:36:00,50.2,44.6,28.44,NW,315,7.4,7.4,81,0.00,,---,0.70,VWS V14.01,2013-04-12 19:36:00,
2013-04-12 16:37:00,50.4,44.8,28.44,NW,315,4.0,10.5,81,0.00,,---,0.70,VWS V14.01,2013-04-12 19:37:00,
2013-04-12 16:38:00,50.2,44.6,28.44,NW,315,5.8,7.8,81,0.00,,---,0.70,VWS V14.01,2013-04-12 19:38:00,
2013-04-12 16:39:00,50.2,44.6,28.44,NW,315,7.4,7.4,81,0.00,,---,0.70,VWS V14.01,2013-04-12 19:39:00,
2013-04-12 16:40:00,50.2,44.6,28.47,NW,315,9.2,9.2,81,0.00,,---,0.70,VWS V14.01,2013-04-12 19:40:00,
2013-04-12 16:41:00,49.8,44.2,28.47,NW,315,9.2,9.2,81,0.00,,---,0.70,VWS V14.01,2013-04-12 19:41:00,
2013-04-12 16:42:00,49.8,44.2,28.47,NW,315,9.2,9.2,81,0.00,,---,0.70,VWS V14.01,2013-04-12 19:42:00,
2013-04-12 16:43:00,49.8,44.2,28.47,NW,315,9.2,9.2,81,0.00,,---,0.70,VWS V14.01,2013-04-12 19:43:00,
2013-04-12 16:44:00,49.8,44.2,28.47,NW,315,9.2,9.2,81,0.00,,---,0.70,VWS V14.01,2013-04-12 19:44:00,
2013-04-12 16:45:00,49.8,44.2,28.47,NW,315,9.2,9.2,81,0.00,,---,0.70,VWS V14.01,2013-04-12 19:45:00,
2013-04-12 16:46:00,49.6,43.7,28.47,NW,315,9.2,9.2,80,0.00,,---,0.70,VWS V14.01,2013-04-12 19:46:00,
2013-04-12 16:47:00,49.8,44.2,28.47,NW,315,9.2,9.2,81,0.00,,---,0.70,VWS V14.01,2013-04-12 19:47:00,
2013-04-12 16:48:00,49.8,44.2,28.47,NW,315,9.2,9.2,81,0.00,,---,0.70,VWS V14.01,2013-04-12 19:48:00,
2013-04-12 16:49:00,49.8,44.2,28.47,NW,315,9.2,9.2,81,0.00,,---,0.70,VWS V14.01,2013-04-12 19:49:00,
2013-04-12 16:50:00,49.6,44.1,28.47,West,270,5.8,9.4,81,0.00,,---,0.70,VWS V14.01,2013-04-12 19:50:00,
2013-04-12 16:51:00,49.8,44.2,28.47,NW,315,5.6,5.6,81,0.00,,---,0.70,VWS V14.01,2013-04-12 19:51:00,
2013-04-12 16:52:00,49.6,44.1,28.47,NW,315,4.0,5.6,81,0.00,,---,0.70,VWS V14.01,2013-04-12 19:52:00,
2013-04-12 16:53:00,49.8,44.2,28.47,NW,315,4.0,4.7,81,0.00,,---,0.70,VWS V14.01,2013-04-12 19:53:00,
2013-04-12 16:54:00,49.8,44.2,28.47,NW,315,5.6,5.6,81,0.00,,---,0.70,VWS V14.01,2013-04-12 19:54:00,
2013-04-12 16:55:00,49.8,44.6,28.47,West,270,6.3,6.3,82,0.00,,---,0.70,VWS V14.01,2013-04-12 19:55:00,
2013-04-12 16:56:00,50.2,44.3,28.47,West,270,10.5,10.5,80,0.00,,---,0.70,VWS V14.01,2013-04-12 19:56:00,
2013-04-12 16:57:00,50.0,44.4,28.47,NW,315,5.8,8.5,81,0.00,,---,0.70,VWS V14.01,2013-04-12 19:57:00,
2013-04-12 16:58:00,50.0,44.4,28.47,SW,225,7.2,8.1,81,0.00,,---,0.70,VWS V14.01,2013-04-12 19:58:00,
2013-04-12 16:59:00,50.2,44.3,28.47,West,270,6.3,7.8,80,0.00,,---,0.70,VWS V14.01,2013-04-12 19:59:00,
2013-04-12 17:00:00,50.4,44.1,28.47,NW,315,7.6,10.5,79,0.00,,---,0.70,VWS V14.01,2013-04-12 20:00:00,
2013-04-12 17:01:00,50.7,44.5,28.47,West,270,5.4,5.4,79,0.00,,---,0.70,VWS V14.01,2013-04-12 20:01:00,
2013-04-12 17:02:00,50.4,43.8,28.47,NNW,338,4.7,11.0,78,0.00,,---,0.70,VWS V14.01,2013-04-12 20:02:00,
2013-04-12 17:03:00,50.5,44.3,28.47,North,0,4.7,5.8,79,0.00,,---,0.70,VWS V14.01,2013-04-12 20:03:00,
2013-04-12 17:04:00,50.7,44.5,28.47,West,270,5.4,5.8,79,0.00,,---,0.70,VWS V14.01,2013-04-12 20:04:00,
2013-04-12 17:05:00,50.7,44.1,28.47,NW,315,13.4,13.4,78,0.00,,---,0.70,VWS V14.01,2013-04-12 20:05:00,
2013-04-12 17:06:00,51.3,43.6,28.47,NW,315,4.3,4.3,75,0.00,,---,0.70,VWS V14.01,2013-04-12 20:06:00,
2013-04-12 17:07:00,50.9,43.6,28.47,West,270,4.3,7.4,76,0.00,,---,0.70,VWS V14.01,2013-04-12 20:07:00,
2013-04-12 17:08:00,51.1,43.4,28.47,West,270,4.3,4.3,75,0.00,,---,0.70,VWS V14.01,2013-04-12 20:08:00,
2013-04-12 17:09:00,51.3,43.6,28.47,West,270,3.6,4.3,75,0.00,,---,0.70,VWS V14.01,2013-04-12 20:09:00,
2013-04-12 17:10:00,51.4,43.8,28.47,NW,315,4.3,4.3,75,0.00,,---,0.70,VWS V14.01,2013-04-12 20:10:00,
2013-04-12 17:11:00,51.4,43.8,28.47,NW,315,4.3,4.3,75,0.00,,---,0.70,VWS V14.01,2013-04-12 20:11:00,
2013-04-12 17:12:00,51.6,44.0,28.47,NW,315,4.3,4.3,75,0.00,,---,0.70,VWS V14.01,2013-04-12 20:12:00,
2013-04-12 17:13:00,51.6,44.0,28.47,NW,315,4.3,4.3,75,0.00,,---,0.70,VWS V14.01,2013-04-12 20:13:00,
2013-04-12 17:14:00,51.6,44.0,28.47,NW,315,4.3,4.3,75,0.00,,---,0.70,VWS V14.01,2013-04-12 20:14:00,
2013-04-12 17:15:00,51.6,43.6,28.47,NW,315,4.3,4.3,74,0.00,,---,0.70,VWS V14.01,2013-04-12 20:15:00,
2013-04-12 17:16:00,51.8,43.8,28.47,NW,315,5.4,5.4,74,0.00,,---,0.70,VWS V14.01,2013-04-12 20:16:00,
2013-04-12 17:17:00,52.0,43.6,28.47,NW,315,5.4,5.4,73,0.00,,---,0.70,VWS V14.01,2013-04-12 20:17:00,
2013-04-12 17:18:00,51.8,43.8,28.47,NW,315,5.4,5.4,74,0.00,,---,0.70,VWS V14.01,2013-04-12 20:18:00,
2013-04-12 17:19:00,51.8,43.1,28.47,NW,315,5.4,5.4,72,0.00,,---,0.70,VWS V14.01,2013-04-12 20:19:00,
2013-04-12 17:20:00,52.0,43.6,28.47,NW,315,5.4,5.4,73,0.00,,---,0.70,VWS V14.01,2013-04-12 20:20:00,
2013-04-12 17:21:00,52.0,43.2,28.47,NW,315,5.4,5.4,72,0.00,,---,0.70,VWS V14.01,2013-04-12 20:21:00,
2013-04-12 17:22:00,52.0,43.6,28.47,NW,315,5.4,5.4,73,0.00,,---,0.70,VWS V14.01,2013-04-12 20:22:00,
2013-04-12 17:23:00,52.0,43.6,28.47,NW,315,5.4,5.4,73,0.00,,---,0.70,VWS V14.01,2013-04-12 20:23:00,
2013-04-12 17:24:00,52.0,43.6,28.47,NW,315,5.4,5.4,73,0.00,,---,0.70,VWS V14.01,2013-04-12 20:24:00,
2013-04-12 17:25:00,52.0,43.6,28.47,NW,315,2.5,5.4,73,0.00,,---,0.70,VWS V14.01,2013-04-12 20:25:00,
2013-04-12 17:26:00,52.0,44.0,28.47,West,270,4.3,5.6,74,0.00,,---,0.70,VWS V14.01,2013-04-12 20:26:00,
2013-04-12 17:27:00,52.0,44.0,28.47,NW,315,4.9,5.6,74,0.00,,---,0.70,VWS V14.01,2013-04-12 20:27:00,
2013-04-12 17:28:00,52.0,43.6,28.47,NW,315,3.8,4.0,73,0.00,,---,0.70,VWS V14.01,2013-04-12 20:28:00,
2013-04-12 17:29:00,52.0,44.0,28.47,NNW,338,5.6,5.6,74,0.00,,---,0.70,VWS V14.01,2013-04-12 20:29:00,
2013-04-12 17:30:00,52.0,44.0,28.47,West,270,3.8,5.6,74,0.00,,---,0.70,VWS V14.01,2013-04-12 20:30:00,
2013-04-12 17:31:00,52.0,44.0,28.47,NW,315,2.9,5.6,74,0.00,,---,0.70,VWS V14.01,2013-04-12 20:31:00,
2013-04-12 17:32:00,51.8,43.1,28.47,West,270,8.5,8.5,72,0.00,,---,0.70,VWS V14.01,2013-04-12 20:32:00,
2013-04-12 17:33:00,52.0,43.6,28.47,North,0,4.9,6.3,73,0.00,,---,0.70,VWS V14.01,2013-04-12 20:33:00,
2013-04-12 17:34:00,51.8,43.1,28.47,West,270,5.8,6.5,72,0.00,,---,0.70,VWS V14.01,2013-04-12 20:34:00,
2013-04-12 17:35:00,51.6,42.9,28.47,West,270,6.5,8.5,72,0.00,,---,0.70,VWS V14.01,2013-04-12 20:35:00,
2013-04-12 17:36:00,51.6,42.9,28.47,West,270,8.5,8.5,72,0.00,,---,0.70,VWS V14.01,2013-04-12 20:36:00,
2013-04-12 17:37:00,51.4,42.7,28.47,West,270,5.6,5.6,72,0.00,,---,0.70,VWS V14.01,2013-04-12 20:37:00,
2013-04-12 17:38:00,51.4,42.7,28.47,West,270,6.3,8.5,72,0.00,,---,0.70,VWS V14.01,2013-04-12 20:38:00,
2013-04-12 17:39:00,51.4,42.7,28.47,West,270,5.6,8.5,72,0.00,,---,0.70,VWS V14.01,2013-04-12 20:39:00,
2013-04-12 17:40:00,51.4,42.7,28.47,NW,315,5.4,5.6,72,0.00,,---,0.70,VWS V14.01,2013-04-12 20:40:00,
2013-04-12 17:41:00,51.4,42.7,28.47,NW,315,5.4,5.4,72,0.00,,---,0.70,VWS V14.01,2013-04-12 20:41:00,
2013-04-12 17:42:00,51.1,42.4,28.47,NW,315,5.6,5.6,72,0.00,,---,0.70,VWS V14.01,2013-04-12 20:42:00,
2013-04-12 17:43:00,51.3,42.5,28.47,NW,315,5.4,5.4,72,0.00,,---,0.70,VWS V14.01,2013-04-12 20:43:00,
2013-04-12 17:44:00,51.1,42.4,28.47,NW,315,5.6,5.6,72,0.00,,---,0.70,VWS V14.01,2013-04-12 20:44:00,
2013-04-12 17:45:00,51.1,42.4,28.47,NW,315,5.6,5.6,72,0.00,,---,0.70,VWS V14.01,2013-04-12 20:45:00,
2013-04-12 17:46:00,50.9,42.2,28.47,NW,315,6.0,6.0,72,0.00,,---,0.70,VWS V14.01,2013-04-12 20:46:00,
2013-04-12 17:47:00,50.9,42.6,28.47,South,180,3.4,3.4,73,0.00,,---,0.70,VWS V14.01,2013-04-12 20:47:00,
2013-04-12 17:48:00,50.9,42.2,28.47,South,180,3.4,3.6,72,0.00,,---,0.70,VWS V14.01,2013-04-12 20:48:00,
2013-04-12 17:49:00,50.9,42.6,28.47,South,180,3.4,3.4,73,0.00,,---,0.70,VWS V14.01,2013-04-12 20:49:00,
2013-04-12 17:50:00,50.9,42.6,28.47,WNW,292,5.4,5.4,73,0.00,,---,0.70,VWS V14.01,2013-04-12 20:50:00,
2013-04-12 17:51:00,50.7,42.4,28.47,NW,315,5.8,5.8,73,0.00,,---,0.70,VWS V14.01,2013-04-12 20:51:00,
2013-04-12 17:52:00,50.7,42.4,28.47,WNW,292,6.0,6.3,73,0.00,,---,0.70,VWS V14.01,2013-04-12 20:52:00,
2013-04-12 17:53:00,50.7,42.4,28.47,NNW,338,3.8,8.5,73,0.00,,---,0.70,VWS V14.01,2013-04-12 20:53:00,
2013-04-12 17:54:00,50.7,42.4,28.47,NW,315,6.3,6.3,73,0.00,,---,0.70,VWS V14.01,2013-04-12 20:54:00,
2013-04-12 17:55:00,50.7,42.4,28.50,NW,315,3.1,6.3,73,0.00,,---,0.70,VWS V14.01,2013-04-12 20:55:00,
2013-04-12 17:56:00,50.7,42.4,28.50,North,0,4.9,7.6,73,0.00,,---,0.70,VWS V14.01,2013-04-12 20:56:00,
2013-04-12 17:57:00,50.7,42.4,28.50,West,270,1.6,3.8,73,0.00,,---,0.70,VWS V14.01,2013-04-12 20:57:00,
2013-04-12 17:58:00,50.7,42.4,28.50,West,270,6.0,8.5,73,0.00,,---,0.70,VWS V14.01,2013-04-12 20:58:00,
2013-04-12 17:59:00,50.7,42.4,28.50,NW,315,3.8,6.3,73,0.00,,---,0.70,VWS V14.01,2013-04-12 20:59:00,
2013-04-12 18:00:00,50.7,42.4,28.50,West,270,4.3,4.3,73,0.00,,---,0.70,VWS V14.01,2013-04-12 21:00:00,
2013-04-12 18:01:00,50.7,42.8,28.50,WNW,292,5.8,5.8,74,0.00,,---,0.70,VWS V14.01,2013-04-12 21:01:00,
2013-04-12 18:02:00,51.3,43.3,28.50,West,270,3.4,3.4,74,0.00,,---,0.70,VWS V14.01,2013-04-12 21:02:00,
2013-04-12 18:03:00,51.1,43.1,28.50,North,0,2.9,3.1,74,0.00,,---,0.70,VWS V14.01,2013-04-12 21:03:00,
2013-04-12 18:04:00,51.1,43.1,28.50,NW,315,2.9,3.6,74,0.00,,---,0.70,VWS V14.01,2013-04-12 21:04:00,
2013-04-12 18:05:00,51.3,43.3,28.50,West,270,3.8,3.8,74,0.00,,---,0.70,VWS V14.01,2013-04-12 21:05:00,
2013-04-12 18:06:00,51.3,42.9,28.50,NW,315,2.9,5.8,73,0.00,,---,0.70,VWS V14.01,2013-04-12 21:06:00,
2013-04-12 18:07:00,51.3,42.9,28.50,North,0,3.6,3.6,73,0.00,,---,0.70,VWS V14.01,2013-04-12 21:07:00,
2013-04-12 18:08:00,51.4,43.4,28.50,NW,315,2.9,2.9,74,0.00,,---,0.70,VWS V14.01,2013-04-12 21:08:00,
2013-04-12 18:09:00,51.3,43.3,28.50,NW,315,2.9,6.3,74,0.00,,---,0.70,VWS V14.01,2013-04-12 21:09:00,
2013-04-12 18:10:00,51.3,42.9,28.50,North,0,3.6,3.6,73,0.00,,---,0.70,VWS V14.01,2013-04-12 21:10:00,
2013-04-12 18:11:00,51.4,43.1,28.50,NW,315,3.6,3.6,73,0.00,,---,0.70,VWS V14.01,2013-04-12 21:11:00,
2013-04-12 18:12:00,51.3,42.9,28.50,West,270,4.9,4.9,73,0.00,,---,0.70,VWS V14.01,2013-04-12 21:12:00,
2013-04-12 18:13:00,51.1,42.7,28.50,West,270,3.1,3.8,73,0.00,,---,0.70,VWS V14.01,2013-04-12 21:13:00,
2013-04-12 18:14:00,51.3,42.9,28.50,West,270,3.8,3.8,73,0.00,,---,0.70,VWS V14.01,2013-04-12 21:14:00,
2013-04-12 18:15:00,51.3,42.9,28.50,West,270,2.9,4.9,73,0.00,,---,0.70,VWS V14.01,2013-04-12 21:15:00,
2013-04-12 18:16:00,51.1,42.7,28.50,NW,315,3.1,4.3,73,0.00,,---,0.70,VWS V14.01,2013-04-12 21:16:00,
2013-04-12 18:17:00,50.9,42.6,28.50,West,270,5.6,5.6,73,0.00,,---,0.70,VWS V14.01,2013-04-12 21:17:00,
2013-04-12 18:18:00,50.9,42.6,28.50,NW,315,2.9,3.6,73,0.00,,---,0.70,VWS V14.01,2013-04-12 21:18:00,
2013-04-12 18:19:00,50.9,42.6,28.50,NW,315,4.0,6.3,73,0.00,,---,0.70,VWS V14.01,2013-04-12 21:19:00,
2013-04-12 18:20:00,50.9,42.6,28.50,West,270,5.4,5.6,73,0.00,,---,0.70,VWS V14.01,2013-04-12 21:20:00,
2013-04-12 18:21:00,50.5,42.2,28.50,NNW,338,4.0,5.8,73,0.00,,---,0.70,VWS V14.01,2013-04-12 21:21:00,
2013-04-12 18:22:00,50.7,42.4,28.50,SW,225,5.4,5.4,73,0.00,,---,0.70,VWS V14.01,2013-04-12 21:22:00,
2013-04-12 18:23:00,50.7,42.4,28.50,NW,315,8.7,8.7,73,0.00,,---,0.70,VWS V14.01,2013-04-12 21:23:00,
2013-04-12 18:24:00,50.7,42.4,28.50,NW,315,4.3,8.7,73,0.00,,---,0.70,VWS V14.01,2013-04-12 21:24:00,
2013-04-12 18:25:00,50.7,42.4,28.50,West,270,3.6,6.0,73,0.00,,---,0.70,VWS V14.01,2013-04-12 21:25:00,
2013-04-12 18:26:00,50.7,42.4,28.50,NW,315,7.6,7.6,73,0.00,,---,0.70,VWS V14.01,2013-04-12 21:26:00,
2013-04-12 18:27:00,50.5,42.6,28.50,NNW,338,5.6,6.3,74,0.00,,---,0.70,VWS V14.01,2013-04-12 21:27:00,
2013-04-12 18:28:00,50.5,42.2,28.50,West,270,7.6,8.1,73,0.00,,---,0.70,VWS V14.01,2013-04-12 21:28:00,
2013-04-12 18:29:00,50.5,42.6,28.50,North,0,5.6,8.1,74,0.00,,---,0.70,VWS V14.01,2013-04-12 21:29:00,
2013-04-12 18:30:00,50.5,42.6,28.50,North,0,3.4,6.3,74,0.00,,---,0.70,VWS V14.01,2013-04-12 21:30:00,
2013-04-12 18:31:00,50.4,42.4,28.50,NW,315,4.9,6.0,74,0.00,,---,0.70,VWS V14.01,2013-04-12 21:31:00,
2013-04-12 18:32:00,50.2,42.2,28.50,NW,315,6.3,7.2,74,0.00,,---,0.70,VWS V14.01,2013-04-12 21:32:00,
2013-04-12 18:33:00,50.4,42.4,28.50,NNW,338,3.8,7.6,74,0.00,,---,0.70,VWS V14.01,2013-04-12 21:33:00,
2013-04-12 18:34:00,50.4,42.4,28.50,NW,315,7.2,8.5,74,0.00,,---,0.70,VWS V14.01,2013-04-12 21:34:00,
2013-04-12 18:35:00,50.2,42.2,28.50,NW,315,5.8,7.2,74,0.00,,---,0.70,VWS V14.01,2013-04-12 21:35:00,
2013-04-12 18:36:00,50.0,42.4,28.50,West,270,7.4,7.4,75,0.00,,---,0.70,VWS V14.01,2013-04-12 21:36:00,
2013-04-12 18:37:00,50.0,42.4,28.50,NW,315,5.8,5.8,75,0.00,,---,0.70,VWS V14.01,2013-04-12 21:37:00,
2013-04-12 18:38:00,50.0,42.0,28.50,North,0,3.8,6.5,74,0.00,,---,0.70,VWS V14.01,2013-04-12 21:38:00,
2013-04-12 18:39:00,50.0,42.0,28.50,WNW,292,4.3,4.3,74,0.00,,---,0.70,VWS V14.01,2013-04-12 21:39:00,
2013-04-12 18:40:00,50.0,42.4,28.50,NNW,338,4.0,5.8,75,0.00,,---,0.70,VWS V14.01,2013-04-12 21:40:00,
2013-04-12 18:41:00,49.8,42.2,28.50,WNW,292,5.4,6.5,75,0.00,,---,0.70,VWS V14.01,2013-04-12 21:41:00,
2013-04-12 18:42:00,49.6,41.7,28.50,NW,315,4.9,6.5,74,0.00,,---,0.70,VWS V14.01,2013-04-12 21:42:00,
2013-04-12 18:43:00,49.6,42.0,28.50,NNW,338,4.9,7.6,75,0.00,,---,0.70,VWS V14.01,2013-04-12 21:43:00,
2013-04-12 18:44:00,49.6,41.7,28.50,WNW,292,5.4,7.6,74,0.00,,---,0.70,VWS V14.01,2013-04-12 21:44:00,
2013-04-12 18:45:00,49.6,41.7,28.50,NW,315,4.9,6.5,74,0.00,,---,0.70,VWS V14.01,2013-04-12 21:45:00,
2013-04-12 18:46:00,49.5,41.5,28.50,West,270,6.0,8.5,74,0.00,,---,0.70,VWS V14.01,2013-04-12 21:46:00,
2013-04-12 18:47:00,49.5,42.2,28.50,West,270,2.5,4.9,76,0.00,,---,0.70,VWS V14.01,2013-04-12 21:47:00,
2013-04-12 18:48:00,49.5,41.9,28.50,WNW,292,3.1,6.0,75,0.00,,---,0.70,VWS V14.01,2013-04-12 21:48:00,
2013-04-12 18:49:00,49.5,41.9,28.50,West,270,2.5,3.8,75,0.00,,---,0.70,VWS V14.01,2013-04-12 21:49:00,
2013-04-12 18:50:00,49.5,42.2,28.50,NNW,338,3.1,4.9,76,0.00,,---,0.70,VWS V14.01,2013-04-12 21:50:00,
2013-04-12 18:51:00,49.3,42.0,28.50,West,270,3.8,4.5,76,0.00,,---,0.70,VWS V14.01,2013-04-12 21:51:00,
2013-04-12 18:52:00,49.1,41.9,28.50,NW,315,8.1,8.1,76,0.00,,---,0.70,VWS V14.01,2013-04-12 21:52:00,
2013-04-12 18:53:00,49.3,42.0,28.50,NW,315,6.5,6.5,76,0.00,,---,0.70,VWS V14.01,2013-04-12 21:53:00,
2013-04-12 18:54:00,49.1,41.9,28.50,North,0,4.0,6.5,76,0.00,,---,0.70,VWS V14.01,2013-04-12 21:54:00,
2013-04-12 18:55:00,49.1,41.9,28.50,NW,315,10.1,13.0,76,0.00,,---,0.70,VWS V14.01,2013-04-12 21:55:00,
2013-04-12 18:56:00,49.1,41.9,28.50,West,270,6.5,10.1,76,0.00,,---,0.70,VWS V14.01,2013-04-12 21:56:00,
2013-04-12 18:57:00,48.9,42.0,28.50,West,270,3.4,3.8,77,0.00,,---,0.70,VWS V14.01,2013-04-12 21:57:00,
2013-04-12 18:58:00,48.9,41.7,28.50,West,270,6.0,6.0,76,0.00,,---,0.70,VWS V14.01,2013-04-12 21:58:00,
2013-04-12 18:59:00,48.9,42.0,28.50,WNW,292,3.8,6.0,77,0.00,,---,0.70,VWS V14.01,2013-04-12 21:59:00,
2013-04-12 19:00:00,48.7,41.9,28.50,WNW,292,4.0,5.8,77,0.00,,---,0.70,VWS V14.01,2013-04-12 22:00:00,
2013-04-12 19:01:00,48.7,41.9,28.50,NW,315,4.0,4.9,77,0.00,,---,0.70,VWS V14.01,2013-04-12 22:01:00,
2013-04-12 19:02:00,48.7,41.9,28.50,NW,315,3.6,3.6,77,0.00,,---,0.70,VWS V14.01,2013-04-12 22:02:00,
2013-04-12 19:03:00,48.7,41.9,28.50,North,0,3.1,4.9,77,0.00,,---,0.70,VWS V14.01,2013-04-12 22:03:00,
2013-04-12 19:04:00,48.7,41.9,28.50,NW,315,3.4,4.0,77,0.00,,---,0.70,VWS V14.01,2013-04-12 22:04:00,
2013-04-12 19:05:00,48.7,41.9,28.50,West,270,5.8,5.8,77,0.00,,---,0.70,VWS V14.01,2013-04-12 22:05:00,
2013-04-12 19:06:00,48.6,41.3,28.50,NW,315,9.2,9.2,76,0.00,,---,0.70,VWS V14.01,2013-04-12 22:06:00,
2013-04-12 19:07:00,48.0,41.2,28.50,NW,315,6.5,8.5,77,0.00,,---,0.70,VWS V14.01,2013-04-12 22:07:00,
2013-04-12 19:08:00,48.2,41.7,28.50,North,0,7.6,7.6,78,0.00,,---,0.70,VWS V14.01,2013-04-12 22:08:00,
2013-04-12 19:09:00,48.0,41.2,28.50,NNW,338,5.6,11.9,77,0.00,,---,0.70,VWS V14.01,2013-04-12 22:09:00,
2013-04-12 19:10:00,47.7,40.1,28.52,NW,315,16.3,16.3,75,0.00,,---,0.70,VWS V14.01,2013-04-12 22:10:00,
2013-04-12 19:11:00,47.1,39.3,28.52,NW,315,12.3,16.3,74,0.00,,---,0.70,VWS V14.01,2013-04-12 22:11:00,
2013-04-12 19:12:00,45.3,37.5,28.52,NW,315,5.4,11.0,74,0.00,,---,0.70,VWS V14.01,2013-04-12 22:12:00,
2013-04-12 19:13:00,46.6,38.4,28.52,NW,315,10.5,15.4,73,0.00,,---,0.70,VWS V14.01,2013-04-12 22:13:00,
2013-04-12 19:14:00,45.3,37.5,28.52,NW,315,11.0,11.0,74,0.00,,---,0.70,VWS V14.01,2013-04-12 22:14:00,
2013-04-12 19:15:00,45.1,37.7,28.52,NW,315,8.5,11.0,75,0.00,,---,0.70,VWS V14.01,2013-04-12 22:15:00,
2013-04-12 19:16:00,45.1,38.0,28.52,NW,315,8.7,9.8,76,0.00,,---,0.70,VWS V14.01,2013-04-12 22:16:00,
2013-04-12 19:17:00,44.1,37.0,28.52,NNW,338,7.8,7.8,76,0.00,,---,0.70,VWS V14.01,2013-04-12 22:17:00,
2013-04-12 19:18:00,44.6,37.2,28.52,WNW,292,11.0,17.2,75,0.00,,---,0.70,VWS V14.01,2013-04-12 22:18:00,
2013-04-12 19:19:00,44.1,37.0,28.52,NNW,338,6.9,11.0,76,0.00,,---,0.70,VWS V14.01,2013-04-12 22:19:00,
2013-04-12 19:20:00,44.1,37.0,28.52,NNW,338,7.8,7.8,76,0.00,,---,0.70,VWS V14.01,2013-04-12 22:20:00,
2013-04-12 19:21:00,43.7,36.6,28.52,North,0,8.5,8.5,76,0.00,,---,0.70,VWS V14.01,2013-04-12 22:21:00,
2013-04-12 19:22:00,43.7,36.6,28.52,WNW,292,10.3,10.3,76,0.00,,---,0.00,VWS V14.01,2013-04-12 22:22:00,
2013-04-12 19:23:00,43.3,36.6,28.52,NNW,338,6.3,10.3,77,0.00,,---,0.00,VWS V14.01,2013-04-12 22:23:00,
2013-04-12 19:24:00,43.2,36.5,28.52,NNW,338,6.3,6.3,77,0.00,,---,0.70,VWS V14.01,2013-04-12 22:24:00,
2013-04-12 19:25:00,43.2,36.8,28.55,NW,315,7.4,7.4,78,0.00,,---,0.70,VWS V14.01,2013-04-12 22:25:00,
2013-04-12 19:26:00,43.0,36.6,28.55,NNE,22,5.4,7.4,78,0.00,,---,0.70,VWS V14.01,2013-04-12 22:26:00,
2013-04-12 19:27:00,42.8,36.4,28.55,NNW,338,4.0,5.4,78,0.00,,---,0.70,VWS V14.01,2013-04-12 22:27:00,
2013-04-12 19:28:00,42.6,36.9,28.55,NNW,338,8.5,8.5,80,0.00,,---,0.70,VWS V14.01,2013-04-12 22:28:00,
2013-04-12 19:29:00,42.6,36.6,28.55,North,0,5.8,8.5,79,0.00,,---,0.70,VWS V14.01,2013-04-12 22:29:00,
2013-04-12 19:30:00,42.4,36.7,28.55,North,0,10.7,10.7,80,0.00,,---,0.70,VWS V14.01,2013-04-12 22:30:00,
2013-04-12 19:31:00,42.4,36.7,28.55,NW,315,10.3,10.7,80,0.00,,---,0.70,VWS V14.01,2013-04-12 22:31:00,
2013-04-12 19:32:00,42.3,36.2,28.55,NW,315,10.3,10.3,79,0.00,,---,0.70,VWS V14.01,2013-04-12 22:32:00,
2013-04-12 19:33:00,42.3,36.5,28.55,NW,315,10.3,10.3,80,0.00,,---,0.70,VWS V14.01,2013-04-12 22:33:00,
2013-04-12 19:34:00,42.1,36.7,28.55,NW,315,10.3,10.3,81,0.00,,---,0.70,VWS V14.01,2013-04-12 22:34:00,
2013-04-12 19:35:00,42.1,36.4,28.55,NW,315,10.3,10.3,80,0.00,,---,0.70,VWS V14.01,2013-04-12 22:35:00,
2013-04-12 19:36:00,42.1,36.7,28.55,WNW,292,4.0,10.3,81,0.00,,---,0.70,VWS V14.01,2013-04-12 22:36:00,
2013-04-12 19:37:00,42.1,37.0,28.55,North,0,3.8,4.0,82,0.00,,---,0.70,VWS V14.01,2013-04-12 22:37:00,
2013-04-12 19:38:00,41.9,36.8,28.55,NW,315,4.7,4.7,82,0.00,,---,0.70,VWS V14.01,2013-04-12 22:38:00,
2013-04-12 19:39:00,41.9,36.8,28.55,NNW,338,6.5,6.5,82,0.00,,---,0.70,VWS V14.01,2013-04-12 22:39:00,
2013-04-12 19:40:00,41.9,36.8,28.58,NW,315,6.3,6.5,82,0.00,,---,0.70,VWS V14.01,2013-04-12 22:40:00,
2013-04-12 19:41:00,41.7,36.3,28.58,North,0,4.9,6.3,81,0.00,,---,0.70,VWS V14.01,2013-04-12 22:41:00,
2013-04-12 19:42:00,41.7,36.3,28.58,North,0,4.9,4.9,81,0.00,,---,0.70,VWS V14.01,2013-04-12 22:42:00,
2013-04-12 19:43:00,41.7,36.6,28.58,North,0,4.9,4.9,82,0.00,,---,0.70,VWS V14.01,2013-04-12 22:43:00,
2013-04-12 19:44:00,41.7,36.6,28.58,North,0,4.9,4.9,82,0.00,,---,0.70,VWS V14.01,2013-04-12 22:44:00,
2013-04-12 19:45:00,41.7,36.6,28.58,North,0,4.9,4.9,82,0.00,,---,0.70,VWS V14.01,2013-04-12 22:45:00,
2013-04-12 19:46:00,41.7,36.6,28.58,North,0,4.9,4.9,82,0.00,,---,0.70,VWS V14.01,2013-04-12 22:46:00,
2013-04-12 19:47:00,41.7,36.6,28.58,NNW,338,4.9,4.9,82,0.00,,---,0.70,VWS V14.01,2013-04-12 22:47:00,
2013-04-12 19:48:00,41.7,36.6,28.58,North,0,3.4,4.9,82,0.00,,---,0.70,VWS V14.01,2013-04-12 22:48:00,
2013-04-12 19:49:00,41.7,36.6,28.58,NNW,338,6.3,6.3,82,0.00,,---,0.70,VWS V14.01,2013-04-12 22:49:00,
2013-04-12 19:50:00,41.5,36.5,28.58,North,0,5.6,6.3,82,0.00,,---,0.70,VWS V14.01,2013-04-12 22:50:00,
2013-04-12 19:51:00,41.5,36.8,28.58,NNW,338,5.6,5.6,83,0.00,,---,0.70,VWS V14.01,2013-04-12 22:51:00,
2013-04-12 19:52:00,41.5,36.5,28.58,North,0,6.0,6.0,82,0.00,,---,0.70,VWS V14.01,2013-04-12 22:52:00,
2013-04-12 19:53:00,41.4,36.6,28.58,North,0,6.0,6.0,83,0.00,,---,0.70,VWS V14.01,2013-04-12 22:53:00,
2013-04-12 19:54:00,41.4,36.6,28.58,North,0,6.0,6.0,83,0.00,,---,0.70,VWS V14.01,2013-04-12 22:54:00,
2013-04-12 19:55:00,41.2,36.4,28.55,North,0,6.0,6.0,83,0.00,,---,0.70,VWS V14.01,2013-04-12 22:55:00,
2013-04-12 19:56:00,41.2,36.4,28.55,North,0,6.0,6.0,83,0.00,,---,0.70,VWS V14.01,2013-04-12 22:56:00,
2013-04-12 19:57:00,41.2,36.4,28.55,North,0,6.0,6.0,83,0.00,,---,0.70,VWS V14.01,2013-04-12 22:57:00,
2013-04-12 19:58:00,41.2,36.4,28.55,North,0,6.0,6.0,83,0.00,,---,0.70,VWS V14.01,2013-04-12 22:58:00,
2013-04-12 19:59:00,41.2,36.7,28.55,NW,315,8.5,8.5,84,0.00,,---,0.70,VWS V14.01,2013-04-12 22:59:00,
2013-04-12 20:00:00,41.0,36.5,28.55,West,270,7.4,8.5,84,0.00,,---,0.70,VWS V14.01,2013-04-12 23:00:00,
2013-04-12 20:01:00,41.0,36.5,28.55,NW,315,3.1,7.4,84,0.00,,---,0.70,VWS V14.01,2013-04-12 23:01:00,
2013-04-12 20:02:00,41.0,36.5,28.55,WNW,292,6.5,6.5,84,0.00,,---,0.70,VWS V14.01,2013-04-12 23:02:00,
2013-04-12 20:03:00,41.0,36.8,28.55,WNW,292,6.5,6.5,85,0.00,,---,0.70,VWS V14.01,2013-04-12 23:03:00,
2013-04-12 20:04:00,41.0,36.5,28.55,WNW,292,6.5,6.5,84,0.00,,---,0.70,VWS V14.01,2013-04-12 23:04:00,
2013-04-12 20:05:00,41.0,36.5,28.55,NNW,338,7.2,7.2,84,0.00,,---,0.70,VWS V14.01,2013-04-12 23:05:00,
2013-04-12 20:06:00,40.8,36.4,28.55,NNW,338,7.2,7.2,84,0.00,,---,0.70,VWS V14.01,2013-04-12 23:06:00,
2013-04-12 20:07:00,40.8,36.4,28.55,NNW,338,7.2,7.2,84,0.00,,---,0.70,VWS V14.01,2013-04-12 23:07:00,
2013-04-12 20:08:00,40.8,36.7,28.55,West,270,4.3,7.2,85,0.00,,---,0.70,VWS V14.01,2013-04-12 23:08:00,
2013-04-12 20:09:00,40.8,36.7,28.55,West,270,4.3,4.3,85,0.00,,---,0.70,VWS V14.01,2013-04-12 23:09:00,
2013-04-12 20:10:00,40.8,36.7,28.55,West,270,4.3,4.3,85,0.00,,---,0.70,VWS V14.01,2013-04-12 23:10:00,
2013-04-12 20:11:00,40.8,36.4,28.55,NNW,338,3.8,4.3,84,0.00,,---,0.70,VWS V14.01,2013-04-12 23:11:00,
2013-04-12 20:12:00,40.6,36.5,28.55,NW,315,4.7,7.8,85,0.00,,---,0.70,VWS V14.01,2013-04-12 23:12:00,
2013-04-12 20:13:00,40.8,36.7,28.55,West,270,7.8,7.8,85,0.00,,---,0.70,VWS V14.01,2013-04-12 23:13:00,
2013-04-12 20:14:00,40.6,36.5,28.55,NW,315,4.7,7.8,85,0.00,,---,0.70,VWS V14.01,2013-04-12 23:14:00,
2013-04-12 20:15:00,40.6,36.5,28.55,NW,315,4.7,4.7,85,0.00,,---,0.70,VWS V14.01,2013-04-12 23:15:00,
2013-04-12 20:16:00,40.6,36.5,28.55,NNW,338,3.1,4.7,85,0.00,,---,0.70,VWS V14.01,2013-04-12 23:16:00,
2013-04-12 20:17:00,40.6,36.8,28.55,West,270,7.2,7.2,86,0.00,,---,0.70,VWS V14.01,2013-04-12 23:17:00,
2013-04-12 20:18:00,40.6,36.5,28.55,NNW,338,3.1,3.1,85,0.00,,---,0.70,VWS V14.01,2013-04-12 23:18:00,
2013-04-12 20:19:00,40.6,36.8,28.55,NNW,338,3.1,3.1,86,0.00,,---,0.70,VWS V14.01,2013-04-12 23:19:00,
2013-04-12 20:20:00,40.6,36.8,28.55,West,270,7.2,7.2,86,0.00,,---,0.70,VWS V14.01,2013-04-12 23:20:00,
2013-04-12 20:21:00,40.6,36.8,28.55,West,270,7.2,7.2,86,0.00,,---,0.70,VWS V14.01,2013-04-12 23:21:00,
2013-04-12 20:22:00,40.6,36.8,28.55,NW,315,5.6,7.2,86,0.00,,---,0.70,VWS V14.01,2013-04-12 23:22:00,
2013-04-12 20:23:00,40.6,36.8,28.55,West,270,7.2,7.2,86,0.70,,---,0.70,VWS V14.01,2013-04-12 23:23:00,
2013-04-12 20:24:00,40.6,36.8,28.55,West,270,7.2,7.2,86,0.70,,---,0.70,VWS V14.01,2013-04-12 23:24:00,
2013-04-12 20:25:00,40.6,36.8,28.55,NW,315,5.6,7.2,86,0.00,,---,0.70,VWS V14.01,2013-04-12 23:25:00,
2013-04-12 20:26:00,40.5,36.6,28.55,NW,315,5.6,5.6,86,0.00,,---,0.70,VWS V14.01,2013-04-12 23:26:00,
2013-04-12 20:27:00,40.5,36.6,28.55,NW,315,4.9,6.5,86,0.00,,---,0.70,VWS V14.01,2013-04-12 23:27:00,
2013-04-12 20:28:00,40.5,36.3,28.55,NW,315,5.6,5.6,85,0.00,,---,0.70,VWS V14.01,2013-04-12 23:28:00,
2013-04-12 20:29:00,40.5,36.6,28.55,North,0,5.4,5.6,86,0.00,,---,0.70,VWS V14.01,2013-04-12 23:29:00,
2013-04-12 20:30:00,40.5,36.6,28.55,NW,315,4.9,6.5,86,0.00,,---,0.70,VWS V14.01,2013-04-12 23:30:00,
2013-04-12 20:31:00,40.5,36.6,28.55,NW,315,4.9,4.9,86,0.00,,---,0.70,VWS V14.01,2013-04-12 23:31:00,
2013-04-12 20:32:00,40.5,36.6,28.55,NW,315,4.9,4.9,86,0.00,,---,0.70,VWS V14.01,2013-04-12 23:32:00,
2013-04-12 20:33:00,40.5,36.6,28.55,NW,315,4.9,4.9,86,0.00,,---,0.70,VWS V14.01,2013-04-12 23:33:00,
2013-04-12 20:34:00,40.5,36.6,28.55,NW,315,4.9,4.9,86,0.00,,---,0.70,VWS V14.01,2013-04-12 23:34:00,
2013-04-12 20:35:00,40.5,36.6,28.55,NW,315,4.9,4.9,86,0.00,,---,0.70,VWS V14.01,2013-04-12 23:35:00,
2013-04-12 20:36:00,40.5,36.6,28.55,NW,315,4.9,4.9,86,0.00,,---,0.70,VWS V14.01,2013-04-12 23:36:00,
2013-04-12 20:37:00,40.5,36.9,28.58,NW,315,4.9,4.9,87,0.00,,---,0.70,VWS V14.01,2013-04-12 23:37:00,
2013-04-12 20:38:00,40.5,36.6,28.55,NW,315,4.9,4.9,86,0.00,,---,0.70,VWS V14.01,2013-04-12 23:38:00,
2013-04-12 20:39:00,40.5,36.6,28.55,NW,315,4.9,4.9,86,0.00,,---,0.70,VWS V14.01,2013-04-12 23:39:00,
2013-04-12 20:40:00,40.5,36.9,28.58,NW,315,4.9,4.9,87,0.00,,---,0.70,VWS V14.01,2013-04-12 23:40:00,
2013-04-12 20:41:00,40.5,36.9,28.58,NW,315,4.9,4.9,87,0.00,,---,0.70,VWS V14.01,2013-04-12 23:41:00,
2013-04-12 20:42:00,40.5,36.9,28.58,WSW,248,1.6,3.8,87,0.00,,---,0.70,VWS V14.01,2013-04-12 23:42:00,
2013-04-12 20:43:00,40.5,36.9,28.58,NW,315,4.9,4.9,87,0.00,,---,0.70,VWS V14.01,2013-04-12 23:43:00,
2013-04-12 20:44:00,40.5,36.9,28.58,West,270,3.8,4.9,87,0.00,,---,0.70,VWS V14.01,2013-04-12 23:44:00,
2013-04-12 20:45:00,40.5,36.9,28.58,West,270,6.5,6.5,87,0.00,,---,0.70,VWS V14.01,2013-04-12 23:45:00,
2013-04-12 20:46:00,40.5,36.9,28.58,West,270,6.5,6.5,87,0.00,,---,0.70,VWS V14.01,2013-04-12 23:46:00,
2013-04-12 20:47:00,40.5,36.9,28.58,NW,315,2.9,2.9,87,0.00,,---,0.70,VWS V14.01,2013-04-12 23:47:00,
2013-04-12 20:48:00,40.5,36.9,28.58,West,270,3.4,3.4,87,0.00,,---,0.70,VWS V14.01,2013-04-12 23:48:00,
2013-04-12 20:49:00,40.5,36.9,28.58,West,270,2.7,3.4,87,0.00,,---,0.70,VWS V14.01,2013-04-12 23:49:00,
2013-04-12 20:50:00,40.5,36.9,28.58,NW,315,2.9,2.9,87,0.00,,---,0.70,VWS V14.01,2013-04-12 23:50:00,
2013-04-12 20:51:00,40.5,36.9,28.58,SW,225,3.1,4.0,87,0.00,,---,0.70,VWS V14.01,2013-04-12 23:51:00,
2013-04-12 20:52:00,40.3,37.0,28.58,North,0,2.5,4.9,88,0.00,,---,0.70,VWS V14.01,2013-04-12 23:52:00,
2013-04-12 20:53:00,40.5,37.2,28.58,NW,315,2.5,3.6,88,0.00,,---,0.70,VWS V14.01,2013-04-12 23:53:00,
2013-04-12 20:54:00,40.3,37.0,28.58,West,270,4.9,4.9,88,0.00,,---,0.70,VWS V14.01,2013-04-12 23:54:00,
2013-04-12 20:55:00,40.3,37.0,28.58,NNW,338,2.0,4.9,88,0.00,,---,0.70,VWS V14.01,2013-04-12 23:55:00,
2013-04-12 20:56:00,40.3,37.0,28.58,NNW,338,2.9,3.1,88,0.00,,---,0.70,VWS V14.01,2013-04-12 23:56:00,
2013-04-12 20:57:00,40.3,37.0,28.58,NNW,338,2.5,3.6,88,0.00,,---,0.70,VWS V14.01,2013-04-12 23:57:00,
2013-04-12 20:58:00,40.3,37.0,28.58,NW,315,3.1,3.1,88,0.00,,---,0.70,VWS V14.01,2013-04-12 23:58:00,
2013-04-12 20:59:00,40.3,37.0,28.58,West,270,3.6,5.6,88,0.00,,---,0.70,VWS V14.01,2013-04-12 23:59:00,
2013-04-12 21:00:00,40.3,37.0,28.58,NNW,338,2.9,3.6,88,0.00,,---,0.70,VWS V14.01,2013-04-13 00:00:00,
2013-04-12 21:01:00,40.3,37.0,28.58,NW,315,2.5,3.4,88,0.00,,---,0.70,VWS V14.01,2013-04-13 00:01:00,
2013-04-12 21:02:00,40.3,37.0,28.58,NNW,338,2.7,2.7,88,0.00,,---,0.70,VWS V14.01,2013-04-13 00:02:00,
2013-04-12 21:03:00,40.3,37.0,28.58,NW,315,3.1,3.1,88,0.00,,---,0.70,VWS V14.01,2013-04-13 00:03:00,
2013-04-12 21:04:00,40.3,37.0,28.58,NNW,338,2.5,3.1,88,0.00,,---,0.70,VWS V14.01,2013-04-13 00:04:00,
2013-04-12 21:05:00,40.3,37.0,28.58,NNW,338,2.7,2.7,88,0.00,,---,0.70,VWS V14.01,2013-04-13 00:05:00,
2013-04-12 21:06:00,40.3,37.0,28.58,NW,315,3.8,3.8,88,0.00,,---,0.70,VWS V14.01,2013-04-13 00:06:00,
2013-04-12 21:07:00,40.3,37.3,28.58,NW,315,2.9,3.1,89,0.00,,---,0.70,VWS V14.01,2013-04-13 00:07:00,
2013-04-12 21:08:00,40.3,37.0,28.58,West,270,4.3,4.5,88,0.00,,---,0.70,VWS V14.01,2013-04-13 00:08:00,
2013-04-12 21:09:00,40.3,37.0,28.58,WNW,292,2.0,4.3,88,0.00,,---,0.70,VWS V14.01,2013-04-13 00:09:00,
2013-04-12 21:10:00,40.3,37.3,28.61,North,0,2.9,3.1,89,0.00,,---,0.70,VWS V14.01,2013-04-13 00:10:00,
2013-04-12 21:11:00,40.3,37.0,28.61,North,0,1.6,3.1,88,0.00,,---,0.70,VWS V14.01,2013-04-13 00:11:00,
2013-04-12 21:12:00,40.3,37.0,28.61,WNW,292,3.4,3.4,88,0.00,,---,0.70,VWS V14.01,2013-04-13 00:12:00,
2013-04-12 21:13:00,40.3,37.0,28.61,WNW,292,4.3,4.3,88,0.00,,---,0.70,VWS V14.01,2013-04-13 00:13:00,
2013-04-12 21:14:00,40.3,37.0,28.61,NW,315,2.0,4.3,88,0.00,,---,0.70,VWS V14.01,2013-04-13 00:14:00,
2013-04-12 21:15:00,40.3,37.0,28.61,WNW,292,3.4,3.4,88,0.00,,---,0.70,VWS V14.01,2013-04-13 00:15:00,
2013-04-12 21:16:00,40.3,37.3,28.61,West,270,3.8,4.9,89,0.00,,---,0.70,VWS V14.01,2013-04-13 00:16:00,
2013-04-12 21:17:00,40.5,37.2,28.61,North,0,2.5,3.4,88,0.00,,---,0.70,VWS V14.01,2013-04-13 00:17:00,
2013-04-12 21:18:00,40.5,37.5,28.61,NW,315,2.7,3.8,89,0.00,,---,0.70,VWS V14.01,2013-04-13 00:18:00,
2013-04-12 21:19:00,40.5,37.5,28.61,NNW,338,3.4,3.4,89,0.00,,---,0.70,VWS V14.01,2013-04-13 00:19:00,
2013-04-12 21:20:00,40.5,37.2,28.61,NW,315,3.1,3.4,88,0.00,,---,0.70,VWS V14.01,2013-04-13 00:20:00,
2013-04-12 21:21:00,40.5,37.2,28.61,NNW,338,3.4,3.4,88,0.00,,---,0.70,VWS V14.01,2013-04-13 00:21:00,
2013-04-12 21:22:00,40.5,37.2,28.61,NW,315,2.2,2.9,88,0.00,,---,0.70,VWS V14.01,2013-04-13 00:22:00,
2013-04-12 21:23:00,40.5,37.5,28.61,NW,315,2.0,4.7,89,0.00,,---,0.70,VWS V14.01,2013-04-13 00:23:00,
2013-04-12 21:24:00,40.5,37.5,28.61,West,270,2.9,2.9,89,0.00,,---,0.70,VWS V14.01,2013-04-13 00:24:00,
2013-04-12 21:25:00,40.5,37.2,28.61,NW,315,2.2,2.9,88,0.00,,---,0.70,VWS V14.01,2013-04-13 00:25:00,
2013-04-12 21:26:00,40.5,37.2,28.61,NW,315,2.2,2.2,88,0.00,,---,0.70,VWS V14.01,2013-04-13 00:26:00,
2013-04-12 21:27:00,40.3,37.3,28.61,West,270,2.0,2.2,89,0.05,,---,0.75,VWS V14.01,2013-04-13 00:27:00,
2013-04-12 21:28:00,40.3,37.3,28.61,NW,315,2.2,2.2,89,0.00,,---,0.70,VWS V14.01,2013-04-13 00:28:00,
2013-04-12 21:29:00,40.3,37.3,28.61,NW,315,2.2,2.2,89,0.00,,---,0.70,VWS V14.01,2013-04-13 00:29:00,
2013-04-12 21:30:00,40.3,37.3,28.61,NW,315,2.5,2.5,89,0.05,,---,0.75,VWS V14.01,2013-04-13 00:30:00,
2013-04-12 21:31:00,40.3,37.6,28.61,West,270,4.3,4.3,90,0.05,,---,0.75,VWS V14.01,2013-04-13 00:31:00,
2013-04-12 21:32:00,40.3,38.4,28.61,West,270,4.3,4.9,93,0.05,,---,0.70,VWS V14.01,2013-04-13 00:32:00,
2013-04-12 21:33:00,40.3,38.2,28.61,West,270,4.9,4.9,92,0.05,,---,0.75,VWS V14.01,2013-04-13 00:33:00,
2013-04-12 21:34:00,40.3,38.2,28.61,West,270,4.9,4.9,92,0.05,,---,0.75,VWS V14.01,2013-04-13 00:34:00,
2013-04-12 21:35:00,40.3,38.4,28.61,West,270,6.0,6.0,93,0.05,,---,0.75,VWS V14.01,2013-04-13 00:35:00,
2013-04-12 21:36:00,40.3,38.4,28.61,NW,315,9.8,9.8,93,0.05,,---,0.75,VWS V14.01,2013-04-13 00:36:00,
2013-04-12 21:37:00,39.9,37.2,28.61,West,270,8.1,8.1,90,0.05,,---,0.75,VWS V14.01,2013-04-13 00:37:00,
2013-04-12 21:38:00,39.9,37.8,28.61,West,270,8.1,8.1,92,0.05,,---,0.75,VWS V14.01,2013-04-13 00:38:00,
2013-04-12 21:39:00,39.9,37.2,28.61,West,270,8.1,8.1,90,0.05,,---,0.75,VWS V14.01,2013-04-13 00:39:00,
2013-04-12 21:40:00,39.9,37.2,28.61,West,270,8.1,8.1,90,0.05,,---,0.75,VWS V14.01,2013-04-13 00:40:00,
2013-04-12 21:41:00,39.9,36.4,28.61,West,270,8.1,8.1,87,0.05,,---,0.75,VWS V14.01,2013-04-13 00:41:00,
2013-04-12 21:42:00,40.1,35.4,28.61,SW,225,4.9,8.1,83,0.05,,---,0.75,VWS V14.01,2013-04-13 00:42:00,
2013-04-12 21:43:00,39.9,35.8,28.61,West,270,8.1,8.1,85,0.05,,---,0.75,VWS V14.01,2013-04-13 00:43:00,
2013-04-12 21:44:00,40.1,35.4,28.61,West,270,8.1,8.1,83,0.05,,---,0.75,VWS V14.01,2013-04-13 00:44:00,
2013-04-12 21:45:00,40.1,35.4,28.61,SW,225,4.9,8.1,83,0.05,,---,0.75,VWS V14.01,2013-04-13 00:45:00,
2013-04-12 21:46:00,40.1,35.7,28.61,WNW,292,2.9,4.9,84,0.05,,---,0.75,VWS V14.01,2013-04-13 00:46:00,
2013-04-12 21:47:00,39.9,35.5,28.61,WNW,292,2.9,2.9,84,0.05,,---,0.75,VWS V14.01,2013-04-13 00:47:00,
2013-04-12 21:48:00,40.1,36.0,28.61,WNW,292,2.9,2.9,85,0.05,,---,0.75,VWS V14.01,2013-04-13 00:48:00,
2013-04-12 21:49:00,40.1,36.0,28.61,WNW,292,2.9,2.9,85,0.05,,---,0.75,VWS V14.01,2013-04-13 00:49:00,
2013-04-12 21:50:00,39.9,35.5,28.61,WNW,292,2.9,2.9,84,0.05,,---,0.75,VWS V14.01,2013-04-13 00:50:00,
2013-04-12 21:51:00,40.1,35.4,28.61,WNW,292,2.9,2.9,83,0.05,,---,0.75,VWS V14.01,2013-04-13 00:51:00,
2013-04-12 21:52:00,40.1,34.1,28.61,WNW,292,2.9,2.9,79,0.05,,---,0.75,VWS V14.01,2013-04-13 00:52:00,
2013-04-12 21:53:00,39.9,34.9,28.61,WNW,292,2.9,2.9,82,0.05,,---,0.75,VWS V14.01,2013-04-13 00:53:00,
2013-04-12 21:54:00,39.9,33.6,28.61,WNW,292,2.9,2.9,78,0.05,,---,0.75,VWS V14.01,2013-04-13 00:54:00,
2013-04-12 21:55:00,40.1,34.1,28.61,WNW,292,2.9,2.9,79,0.05,,---,0.75,VWS V14.01,2013-04-13 00:55:00,
2013-04-12 21:56:00,39.9,34.3,28.61,WNW,292,2.9,2.9,80,0.05,,---,0.75,VWS V14.01,2013-04-13 00:56:00,
2013-04-12 21:57:00,40.1,33.2,28.61,WNW,292,2.9,2.9,76,0.05,,---,0.75,VWS V14.01,2013-04-13 00:57:00,
2013-04-12 21:58:00,40.1,33.5,28.61,WNW,292,2.9,2.9,77,0.05,,---,0.75,VWS V14.01,2013-04-13 00:58:00,
2013-04-12 21:59:00,40.1,33.5,28.61,WNW,292,2.9,2.9,77,0.05,,---,0.75,VWS V14.01,2013-04-13 00:59:00,
2013-04-12 22:00:00,40.1,33.2,28.61,WNW,292,2.9,2.9,76,0.05,,---,0.75,VWS V14.01,2013-04-13 01:00:00,
2013-04-12 22:01:00,40.1,33.8,28.61,WNW,292,2.9,2.9,78,0.05,,---,0.75,VWS V14.01,2013-04-13 01:01:00,
2013-04-12 22:02:00,40.1,33.5,28.61,WNW,292,2.9,2.9,77,0.05,,---,0.75,VWS V14.01,2013-04-13 01:02:00,
2013-04-12 22:03:00,40.1,33.8,28.61,WNW,292,2.9,2.9,78,0.05,,---,0.75,VWS V14.01,2013-04-13 01:03:00,
2013-04-12 22:04:00,40.1,33.8,28.61,WNW,292,2.9,2.9,78,0.05,,---,0.75,VWS V14.01,2013-04-13 01:04:00,
2013-04-12 22:05:00,40.1,33.5,28.61,WNW,292,2.9,2.9,77,0.05,,---,0.75,VWS V14.01,2013-04-13 01:05:00,
2013-04-12 22:06:00,40.1,33.5,28.61,WNW,292,2.9,2.9,77,0.05,,---,0.75,VWS V14.01,2013-04-13 01:06:00,
2013-04-12 22:07:00,40.1,33.2,28.64,WNW,292,2.9,2.9,76,0.05,,---,0.75,VWS V14.01,2013-04-13 01:07:00,
2013-04-12 22:08:00,40.1,33.2,28.61,WNW,292,2.9,2.9,76,0.05,,---,0.75,VWS V14.01,2013-04-13 01:08:00,
2013-04-12 22:09:00,40.3,33.3,28.61,WNW,292,2.9,2.9,76,0.05,,---,0.75,VWS V14.01,2013-04-13 01:09:00,
2013-04-12 22:10:00,40.1,33.2,28.64,WNW,292,2.9,2.9,76,0.05,,---,0.75,VWS V14.01,2013-04-13 01:10:00,
2013-04-12 22:11:00,40.3,33.3,28.64,WNW,292,2.9,2.9,76,0.05,,---,0.75,VWS V14.01,2013-04-13 01:11:00,
2013-04-12 22:12:00,40.1,33.2,28.64,WNW,292,2.9,2.9,76,0.05,,---,0.75,VWS V14.01,2013-04-13 01:12:00,
2013-04-12 22:13:00,40.3,33.7,28.64,WNW,292,2.9,2.9,77,0.05,,---,0.75,VWS V14.01,2013-04-13 01:13:00,
2013-04-12 22:14:00,40.1,33.2,28.64,WNW,292,2.9,2.9,76,0.05,,---,0.75,VWS V14.01,2013-04-13 01:14:00,
2013-04-12 22:15:00,40.1,33.5,28.64,WNW,292,2.9,2.9,77,0.05,,---,0.75,VWS V14.01,2013-04-13 01:15:00,
2013-04-12 22:16:00,40.1,33.5,28.64,WNW,292,2.9,2.9,77,0.05,,---,0.75,VWS V14.01,2013-04-13 01:16:00,
2013-04-12 22:17:00,40.1,33.5,28.64,WNW,292,2.9,2.9,77,0.05,,---,0.75,VWS V14.01,2013-04-13 01:17:00,
2013-04-12 22:18:00,40.1,33.5,28.64,WNW,292,2.9,2.9,77,0.05,,---,0.75,VWS V14.01,2013-04-13 01:18:00,
2013-04-12 22:19:00,40.1,33.5,28.64,WNW,292,2.9,2.9,77,0.05,,---,0.75,VWS V14.01,2013-04-13 01:19:00,
2013-04-12 22:20:00,40.1,33.5,28.64,WNW,292,2.9,2.9,77,0.05,,---,0.75,VWS V14.01,2013-04-13 01:20:00,
2013-04-12 22:21:00,39.9,33.3,28.64,WNW,292,2.9,2.9,77,0.05,,---,0.75,VWS V14.01,2013-04-13 01:21:00,
2013-04-12 22:22:00,40.1,33.2,28.64,WNW,292,2.9,2.9,76,0.05,,---,0.75,VWS V14.01,2013-04-13 01:22:00,
2013-04-12 22:23:00,40.1,33.5,28.64,WNW,292,2.9,2.9,77,0.05,,---,0.75,VWS V14.01,2013-04-13 01:23:00,
2013-04-12 22:24:00,39.9,33.3,28.64,WNW,292,2.9,2.9,77,0.05,,---,0.75,VWS V14.01,2013-04-13 01:24:00,
2013-04-12 22:25:00,40.1,33.2,28.64,WNW,292,2.9,2.9,76,0.05,,---,0.75,VWS V14.01,2013-04-13 01:25:00,
2013-04-12 22:26:00,40.1,33.2,28.64,WNW,292,2.9,2.9,76,0.05,,---,0.75,VWS V14.01,2013-04-13 01:26:00,
2013-04-12 22:27:00,39.9,33.0,28.64,WNW,292,2.9,2.9,76,0.05,,---,0.75,VWS V14.01,2013-04-13 01:27:00,
2013-04-12 22:28:00,40.1,33.2,28.64,WNW,292,2.9,2.9,76,0.05,,---,0.75,VWS V14.01,2013-04-13 01:28:00,
2013-04-12 22:29:00,39.9,33.0,28.64,WNW,292,2.9,2.9,76,0.05,,---,0.75,VWS V14.01,2013-04-13 01:29:00,
2013-04-12 22:30:00,39.9,33.0,28.64,WNW,292,2.9,2.9,76,0.05,,---,0.75,VWS V14.01,2013-04-13 01:30:00,
2013-04-12 22:31:00,40.1,32.8,28.64,WNW,292,2.9,2.9,75,0.00,,---,0.75,VWS V14.01,2013-04-13 01:31:00,
2013-04-12 22:32:00,40.1,32.8,28.64,WNW,292,2.9,2.9,75,0.00,,---,0.75,VWS V14.01,2013-04-13 01:32:00,
2013-04-12 22:33:00,40.1,32.8,28.64,WNW,292,2.9,2.9,75,0.00,,---,0.75,VWS V14.01,2013-04-13 01:33:00,
2013-04-12 22:34:00,40.1,32.8,28.64,WNW,292,2.9,2.9,75,0.00,,---,0.75,VWS V14.01,2013-04-13 01:34:00,
2013-04-12 22:35:00,40.1,32.8,28.64,WNW,292,2.9,2.9,75,0.00,,---,0.75,VWS V14.01,2013-04-13 01:35:00,
2013-04-12 22:36:00,40.1,32.8,28.64,WNW,292,2.9,2.9,75,0.00,,---,0.75,VWS V14.01,2013-04-13 01:36:00,
2013-04-12 22:37:00,39.9,32.7,28.64,WNW,292,2.9,2.9,75,0.00,,---,0.75,VWS V14.01,2013-04-13 01:37:00,
2013-04-12 22:38:00,39.9,32.7,28.64,WNW,292,2.9,2.9,75,0.00,,---,0.75,VWS V14.01,2013-04-13 01:38:00,
2013-04-12 22:39:00,39.9,32.3,28.64,WNW,292,2.9,2.9,74,0.00,,---,0.75,VWS V14.01,2013-04-13 01:39:00,
2013-04-12 22:40:00,39.9,32.7,28.64,WNW,292,2.9,2.9,75,0.00,,---,0.75,VWS V14.01,2013-04-13 01:40:00,
2013-04-12 22:41:00,39.9,32.3,28.64,WNW,292,2.9,2.9,74,0.00,,---,0.75,VWS V14.01,2013-04-13 01:41:00,
2013-04-12 22:42:00,40.1,32.8,28.64,WNW,292,2.9,2.9,75,0.00,,---,0.75,VWS V14.01,2013-04-13 01:42:00,
2013-04-12 22:43:00,40.1,32.8,28.64,WNW,292,2.9,2.9,75,0.00,,---,0.75,VWS V14.01,2013-04-13 01:43:00,
2013-04-12 22:44:00,40.1,32.8,28.64,WNW,292,2.9,2.9,75,0.00,,---,0.75,VWS V14.01,2013-04-13 01:44:00,
2013-04-12 22:45:00,39.9,32.7,28.64,WNW,292,2.9,2.9,75,0.00,,---,0.75,VWS V14.01,2013-04-13 01:45:00,
2013-04-12 22:46:00,39.9,32.3,28.64,WNW,292,2.9,2.9,74,0.00,,---,0.75,VWS V14.01,2013-04-13 01:46:00,
2013-04-12 22:47:00,40.1,31.8,28.64,WNW,292,2.9,2.9,72,0.00,,---,0.75,VWS V14.01,2013-04-13 01:47:00,
2013-04-12 22:48:00,39.9,32.0,28.64,WNW,292,2.9,2.9,73,0.00,,---,0.75,VWS V14.01,2013-04-13 01:48:00,
2013-04-12 22:49:00,39.9,32.0,28.64,WNW,292,2.9,2.9,73,0.00,,---,0.75,VWS V14.01,2013-04-13 01:49:00,
2013-04-12 22:50:00,40.1,31.8,28.64,WNW,292,2.9,2.9,72,0.00,,---,0.75,VWS V14.01,2013-04-13 01:50:00,
2013-04-12 22:51:00,40.1,32.2,28.64,WNW,292,2.9,2.9,73,0.00,,---,0.75,VWS V14.01,2013-04-13 01:51:00,
2013-04-12 22:52:00,40.1,31.8,28.64,WNW,292,2.9,2.9,72,0.00,,---,0.75,VWS V14.01,2013-04-13 01:52:00,
2013-04-12 22:53:00,40.1,32.2,28.64,WNW,292,2.9,2.9,73,0.00,,---,0.75,VWS V14.01,2013-04-13 01:53:00,
2013-04-12 22:54:00,39.9,32.0,28.64,WNW,292,2.9,2.9,73,0.00,,---,0.75,VWS V14.01,2013-04-13 01:54:00,
2013-04-12 22:55:00,40.1,31.8,28.64,WNW,292,2.9,2.9,72,0.00,,---,0.75,VWS V14.01,2013-04-13 01:55:00,
2013-04-12 22:56:00,40.1,32.2,28.64,WNW,292,2.9,2.9,73,0.00,,---,0.75,VWS V14.01,2013-04-13 01:56:00,
2013-04-12 22:57:00,39.9,31.6,28.64,WNW,292,2.9,2.9,72,0.00,,---,0.75,VWS V14.01,2013-04-13 01:57:00,
2013-04-12 22:58:00,39.9,32.3,28.64,WNW,292,2.9,2.9,74,0.00,,---,0.75,VWS V14.01,2013-04-13 01:58:00,
2013-04-12 22:59:00,39.9,32.3,28.64,WNW,292,2.9,2.9,74,0.00,,---,0.75,VWS V14.01,2013-04-13 01:59:00,
2013-04-12 23:00:00,40.1,31.5,28.64,WNW,292,2.9,2.9,71,0.00,,---,0.75,VWS V14.01,2013-04-13 02:00:00,
2013-04-12 23:01:00,40.1,31.8,28.64,WNW,292,2.9,2.9,72,0.00,,---,0.75,VWS V14.01,2013-04-13 02:01:00,
2013-04-12 23:02:00,40.1,32.2,28.64,WNW,292,2.9,2.9,73,0.00,,---,0.75,VWS V14.01,2013-04-13 02:02:00,
2013-04-12 23:03:00,40.1,31.8,28.64,WNW,292,2.9,2.9,72,0.00,,---,0.75,VWS V14.01,2013-04-13 02:03:00,
2013-04-12 23:04:00,40.1,31.8,28.64,WNW,292,2.9,2.9,72,0.00,,---,0.75,VWS V14.01,2013-04-13 02:04:00,
2013-04-12 23:05:00,40.1,32.2,28.64,WNW,292,2.9,2.9,73,0.00,,---,0.75,VWS V14.01,2013-04-13 02:05:00,
2013-04-12 23:06:00,39.9,32.0,28.64,SW,225,3.6,3.6,73,0.00,,---,0.75,VWS V14.01,2013-04-13 02:06:00,
2013-04-12 23:07:00,40.1,31.1,28.61,SW,225,3.6,3.6,70,0.00,,---,0.75,VWS V14.01,2013-04-13 02:07:00,
2013-04-12 23:08:00,40.1,31.1,28.64,SW,225,3.6,3.6,70,0.00,,---,0.75,VWS V14.01,2013-04-13 02:08:00,
2013-04-12 23:09:00,40.1,31.1,28.64,SW,225,3.6,3.6,70,0.00,,---,0.75,VWS V14.01,2013-04-13 02:09:00,
2013-04-12 23:10:00,40.1,31.1,28.61,SW,225,3.6,3.6,70,0.00,,---,0.75,VWS V14.01,2013-04-13 02:10:00,
2013-04-12 23:11:00,40.1,31.1,28.61,SW,225,3.6,3.6,70,0.00,,---,0.75,VWS V14.01,2013-04-13 02:11:00,
2013-04-12 23:12:00,39.9,32.0,28.61,SW,225,3.6,3.6,73,0.00,,---,0.75,VWS V14.01,2013-04-13 02:12:00,
2013-04-12 23:13:00,40.1,31.8,28.61,SW,225,3.6,3.6,72,0.00,,---,0.75,VWS V14.01,2013-04-13 02:13:00,
2013-04-12 23:14:00,40.1,32.2,28.61,SW,225,3.6,3.6,73,0.00,,---,0.75,VWS V14.01,2013-04-13 02:14:00,
2013-04-12 23:15:00,39.9,32.0,28.61,SW,225,3.6,3.6,73,0.00,,---,0.75,VWS V14.01,2013-04-13 02:15:00,
2013-04-12 23:16:00,39.9,31.6,28.61,SW,225,3.6,3.6,72,0.00,,---,0.75,VWS V14.01,2013-04-13 02:16:00,
2013-04-12 23:17:00,39.9,32.0,28.61,SW,225,3.6,3.6,73,0.00,,---,0.75,VWS V14.01,2013-04-13 02:17:00,
2013-04-12 23:18:00,39.9,31.6,28.61,SW,225,3.6,3.6,72,0.00,,---,0.75,VWS V14.01,2013-04-13 02:18:00,
2013-04-12 23:19:00,39.9,32.0,28.61,SW,225,3.6,3.6,73,0.00,,---,0.75,VWS V14.01,2013-04-13 02:19:00,
2013-04-12 23:20:00,39.9,32.0,28.61,SW,225,3.6,3.6,73,0.00,,---,0.75,VWS V14.01,2013-04-13 02:20:00,
2013-04-12 23:21:00,39.9,32.0,28.61,SW,225,3.6,3.6,73,0.00,,---,0.75,VWS V14.01,2013-04-13 02:21:00,
2013-04-12 23:22:00,39.9,32.3,28.64,SW,225,3.6,3.6,74,0.00,,---,0.75,VWS V14.01,2013-04-13 02:22:00,
2013-04-12 23:23:00,39.9,32.3,28.61,SW,225,3.6,3.6,74,0.00,,---,0.75,VWS V14.01,2013-04-13 02:23:00,
2013-04-12 23:24:00,39.9,32.3,28.61,SW,225,3.6,3.6,74,0.00,,---,0.75,VWS V14.01,2013-04-13 02:24:00,
2013-04-12 23:25:00,39.9,32.3,28.64,SW,225,3.6,3.6,74,0.00,,---,0.75,VWS V14.01,2013-04-13 02:25:00,
2013-04-12 23:26:00,39.9,32.3,28.64,SW,225,3.6,3.6,74,0.00,,---,0.75,VWS V14.01,2013-04-13 02:26:00,
2013-04-12 23:27:00,39.9,32.0,28.64,SW,225,3.6,3.6,73,0.00,,---,0.75,VWS V14.01,2013-04-13 02:27:00,
2013-04-12 23:28:00,39.9,32.0,28.64,SW,225,3.6,3.6,73,0.00,,---,0.75,VWS V14.01,2013-04-13 02:28:00,
2013-04-12 23:29:00,39.9,32.0,28.64,SW,225,3.6,3.6,73,0.00,,---,0.75,VWS V14.01,2013-04-13 02:29:00,
2013-04-12 23:30:00,39.9,32.0,28.64,SW,225,3.6,3.6,73,0.00,,---,0.75,VWS V14.01,2013-04-13 02:30:00,
2013-04-12 23:31:00,39.9,31.6,28.64,SW,225,3.6,3.6,72,0.00,,---,0.75,VWS V14.01,2013-04-13 02:31:00,
2013-04-12 23:32:00,40.1,31.1,28.64,NNW,338,3.1,3.6,70,0.00,,---,0.75,VWS V14.01,2013-04-13 02:32:00,
2013-04-12 23:33:00,39.9,31.3,28.64,SW,225,3.6,3.6,71,0.00,,---,0.75,VWS V14.01,2013-04-13 02:33:00,
2013-04-12 23:34:00,39.9,30.9,28.64,SW,225,3.6,3.6,70,0.00,,---,0.75,VWS V14.01,2013-04-13 02:34:00,
2013-04-12 23:35:00,40.1,31.1,28.64,NNW,338,3.1,3.6,70,0.00,,---,0.75,VWS V14.01,2013-04-13 02:35:00,
2013-04-12 23:36:00,40.1,31.1,28.64,West,270,4.9,4.9,70,0.00,,---,0.75,VWS V14.01,2013-04-13 02:36:00,
2013-04-12 23:37:00,39.9,31.3,28.64,South,180,3.1,3.1,71,0.00,,---,0.75,VWS V14.01,2013-04-13 02:37:00,
2013-04-12 23:38:00,40.1,31.5,28.64,South,180,2.0,3.6,71,0.00,,---,0.75,VWS V14.01,2013-04-13 02:38:00,
2013-04-12 23:39:00,39.9,31.3,28.64,South,180,3.1,3.1,71,0.00,,---,0.75,VWS V14.01,2013-04-13 02:39:00,
2013-04-12 23:40:00,39.9,31.3,28.64,South,180,3.1,3.1,71,0.00,,---,0.75,VWS V14.01,2013-04-13 02:40:00,
2013-04-12 23:41:00,39.9,31.3,28.64,South,180,3.1,3.1,71,0.00,,---,0.75,VWS V14.01,2013-04-13 02:41:00,
2013-04-12 23:42:00,40.1,30.4,28.64,South,180,3.1,3.1,68,0.00,,---,0.75,VWS V14.01,2013-04-13 02:42:00,
2013-04-12 23:43:00,40.1,31.5,28.64,South,180,3.1,3.1,71,0.00,,---,0.75,VWS V14.01,2013-04-13 02:43:00,
2013-04-12 23:44:00,39.9,30.9,28.64,South,180,3.1,3.1,70,0.00,,---,0.75,VWS V14.01,2013-04-13 02:44:00,
2013-04-12 23:45:00,40.1,30.4,28.64,South,180,3.1,3.1,68,0.00,,---,0.75,VWS V14.01,2013-04-13 02:45:00,
2013-04-12 23:46:00,40.1,30.4,28.64,South,180,3.1,3.1,68,0.00,,---,0.75,VWS V14.01,2013-04-13 02:46:00,
2013-04-12 23:47:00,40.1,30.0,28.64,South,180,3.1,3.1,67,0.00,,---,0.75,VWS V14.01,2013-04-13 02:47:00,
2013-04-12 23:48:00,40.1,30.8,28.64,South,180,3.1,3.1,69,0.00,,---,0.75,VWS V14.01,2013-04-13 02:48:00,
2013-04-12 23:49:00,40.1,30.8,28.64,South,180,3.1,3.1,69,0.00,,---,0.75,VWS V14.01,2013-04-13 02:49:00,
2013-04-12 23:50:00,40.1,30.0,28.64,South,180,3.1,3.1,67,0.00,,---,0.75,VWS V14.01,2013-04-13 02:50:00,
2013-04-12 23:51:00,40.1,30.4,28.64,South,180,3.1,3.1,68,0.00,,---,0.75,VWS V14.01,2013-04-13 02:51:00,
2013-04-12 23:52:00,40.1,30.8,28.64,South,180,3.4,3.4,69,0.00,,---,0.75,VWS V14.01,2013-04-13 02:52:00,
2013-04-12 23:53:00,40.1,30.4,28.64,South,180,3.4,3.4,68,0.00,,---,0.75,VWS V14.01,2013-04-13 02:53:00,
2013-04-12 23:54:00,40.1,30.8,28.64,South,180,3.4,3.4,69,0.00,,---,0.75,VWS V14.01,2013-04-13 02:54:00,
2013-04-12 23:55:00,40.1,30.8,28.64,South,180,3.4,3.4,69,0.00,,---,0.75,VWS V14.01,2013-04-13 02:55:00,
2013-04-12 23:56:00,40.1,30.8,28.64,South,180,3.4,3.4,69,0.00,,---,0.75,VWS V14.01,2013-04-13 02:56:00,
2013-04-12 23:57:00,40.1,30.8,28.64,SSW,202,2.0,2.0,69,0.00,,---,0.75,VWS V14.01,2013-04-13 02:57:00,
2013-04-12 23:58:00,40.1,30.8,28.64,NNW,338,3.4,3.8,69,0.00,,---,0.75,VWS V14.01,2013-04-13 02:58:00,
2013-04-12 23:59:00,40.1,30.8,28.64,SSW,202,2.0,3.4,69,0.00,,---,0.75,VWS V14.01,2013-04-13 02:59:00,